<?xml version="1.0" encoding="UTF-8" standalone="no" ?>
<gpx xmlns="http://www.topografix.com/GPX/1/1" xmlns:xsi="http://www.w3.org/2001/XMLSchema-instance" xsi:schemaLocation="http://www.topografix.com/GPX/1/1 http://www.topografix.com/GPX/1/1/gpx.xsd" version="1.1" creator="VisuGPX - https://www.visugpx.com">
  <metadata>
    <name>AUZAT-Pic du Far</name>
    <desc><![CDATA[Une belle rando avec vue sur le Montcalm]]></desc>
  </metadata>
  <trk>
    <name><![CDATA[AUZAT10-03 16:48:41]]></name>
    <trkseg>
      <trkpt lat="42.76724" lon="1.48012">
        <ele>740.35</ele>
        <time>2020-10-03T07:05:06Z</time>
      </trkpt>
      <trkpt lat="42.76725" lon="1.48011">
        <ele>740.35</ele>
        <time>2020-10-03T07:05:07Z</time>
      </trkpt>
      <trkpt lat="42.76723" lon="1.4801">
        <ele>738.91</ele>
        <time>2020-10-03T07:05:23Z</time>
      </trkpt>
      <trkpt lat="42.76725" lon="1.48009">
        <ele>739.39</ele>
        <time>2020-10-03T07:05:47Z</time>
      </trkpt>
      <trkpt lat="42.76726" lon="1.48009">
        <ele>739.39</ele>
        <time>2020-10-03T07:06:08Z</time>
      </trkpt>
      <trkpt lat="42.76723" lon="1.48011">
        <ele>738.91</ele>
        <time>2020-10-03T07:06:22Z</time>
      </trkpt>
      <trkpt lat="42.76722" lon="1.48011">
        <ele>738.91</ele>
        <time>2020-10-03T07:06:45Z</time>
      </trkpt>
      <trkpt lat="42.76721" lon="1.48011">
        <ele>738.91</ele>
        <time>2020-10-03T07:06:49Z</time>
      </trkpt>
      <trkpt lat="42.76725" lon="1.48005">
        <ele>738.43</ele>
        <time>2020-10-03T07:07:06Z</time>
      </trkpt>
      <trkpt lat="42.76724" lon="1.48007">
        <ele>738.43</ele>
        <time>2020-10-03T07:07:43Z</time>
      </trkpt>
      <trkpt lat="42.76725" lon="1.48009">
        <ele>738.43</ele>
        <time>2020-10-03T07:08:08Z</time>
      </trkpt>
      <trkpt lat="42.76723" lon="1.4801">
        <ele>738.43</ele>
        <time>2020-10-03T07:08:26Z</time>
      </trkpt>
      <trkpt lat="42.76722" lon="1.48008">
        <ele>739.87</ele>
        <time>2020-10-03T07:08:30Z</time>
      </trkpt>
      <trkpt lat="42.76724" lon="1.48008">
        <ele>740.83</ele>
        <time>2020-10-03T07:08:48Z</time>
      </trkpt>
      <trkpt lat="42.76722" lon="1.4801">
        <ele>740.83</ele>
        <time>2020-10-03T07:09:08Z</time>
      </trkpt>
      <trkpt lat="42.76722" lon="1.47998">
        <ele>740.83</ele>
        <time>2020-10-03T07:09:22Z</time>
      </trkpt>
      <trkpt lat="42.76713" lon="1.47978">
        <ele>740.83</ele>
        <time>2020-10-03T07:09:39Z</time>
      </trkpt>
      <trkpt lat="42.7671" lon="1.4797">
        <ele>740.83</ele>
        <time>2020-10-03T07:09:44Z</time>
      </trkpt>
      <trkpt lat="42.76706" lon="1.47945">
        <ele>740.83</ele>
        <time>2020-10-03T07:10:00Z</time>
      </trkpt>
      <trkpt lat="42.76705" lon="1.47918">
        <ele>740.83</ele>
        <time>2020-10-03T07:10:16Z</time>
      </trkpt>
      <trkpt lat="42.76705" lon="1.47889">
        <ele>740.83</ele>
        <time>2020-10-03T07:10:33Z</time>
      </trkpt>
      <trkpt lat="42.76704" lon="1.47873">
        <ele>740.83</ele>
        <time>2020-10-03T07:10:43Z</time>
      </trkpt>
      <trkpt lat="42.76701" lon="1.4787">
        <ele>739.39</ele>
        <time>2020-10-03T07:10:46Z</time>
      </trkpt>
      <trkpt lat="42.76701" lon="1.47868">
        <ele>739.39</ele>
        <time>2020-10-03T07:10:47Z</time>
      </trkpt>
      <trkpt lat="42.76707" lon="1.47841">
        <ele>739.39</ele>
        <time>2020-10-03T07:11:02Z</time>
      </trkpt>
      <trkpt lat="42.76709" lon="1.47827">
        <ele>739.39</ele>
        <time>2020-10-03T07:11:10Z</time>
      </trkpt>
      <trkpt lat="42.76718" lon="1.47803">
        <ele>740.83</ele>
        <time>2020-10-03T07:11:25Z</time>
      </trkpt>
      <trkpt lat="42.76718" lon="1.47793">
        <ele>741.79</ele>
        <time>2020-10-03T07:11:38Z</time>
      </trkpt>
      <trkpt lat="42.76721" lon="1.47793">
        <ele>741.79</ele>
        <time>2020-10-03T07:11:49Z</time>
      </trkpt>
      <trkpt lat="42.76719" lon="1.47797">
        <ele>741.79</ele>
        <time>2020-10-03T07:11:53Z</time>
      </trkpt>
      <trkpt lat="42.76717" lon="1.478">
        <ele>740.83</ele>
        <time>2020-10-03T07:11:56Z</time>
      </trkpt>
      <trkpt lat="42.76709" lon="1.478">
        <ele>740.83</ele>
        <time>2020-10-03T07:12:01Z</time>
      </trkpt>
      <trkpt lat="42.76707" lon="1.47779">
        <ele>742.28</ele>
        <time>2020-10-03T07:12:14Z</time>
      </trkpt>
      <trkpt lat="42.76706" lon="1.47773">
        <ele>743.24</ele>
        <time>2020-10-03T07:12:19Z</time>
      </trkpt>
      <trkpt lat="42.76699" lon="1.47756">
        <ele>746.12</ele>
        <time>2020-10-03T07:12:33Z</time>
      </trkpt>
      <trkpt lat="42.76698" lon="1.47745">
        <ele>748.52</ele>
        <time>2020-10-03T07:12:43Z</time>
      </trkpt>
      <trkpt lat="42.76697" lon="1.47742">
        <ele>749.49</ele>
        <time>2020-10-03T07:12:46Z</time>
      </trkpt>
      <trkpt lat="42.76692" lon="1.47738">
        <ele>751.41</ele>
        <time>2020-10-03T07:12:59Z</time>
      </trkpt>
      <trkpt lat="42.76683" lon="1.47733">
        <ele>754.77</ele>
        <time>2020-10-03T07:13:11Z</time>
      </trkpt>
      <trkpt lat="42.7668" lon="1.47733">
        <ele>755.25</ele>
        <time>2020-10-03T07:13:15Z</time>
      </trkpt>
      <trkpt lat="42.76673" lon="1.47721">
        <ele>758.14</ele>
        <time>2020-10-03T07:13:30Z</time>
      </trkpt>
      <trkpt lat="42.76673" lon="1.47713">
        <ele>761.02</ele>
        <time>2020-10-03T07:13:42Z</time>
      </trkpt>
      <trkpt lat="42.76672" lon="1.47703">
        <ele>762.46</ele>
        <time>2020-10-03T07:13:53Z</time>
      </trkpt>
      <trkpt lat="42.7667" lon="1.47691">
        <ele>764.87</ele>
        <time>2020-10-03T07:14:06Z</time>
      </trkpt>
      <trkpt lat="42.7667" lon="1.4768">
        <ele>765.35</ele>
        <time>2020-10-03T07:14:16Z</time>
      </trkpt>
      <trkpt lat="42.7667" lon="1.47664">
        <ele>766.31</ele>
        <time>2020-10-03T07:14:28Z</time>
      </trkpt>
      <trkpt lat="42.76666" lon="1.47647">
        <ele>769.67</ele>
        <time>2020-10-03T07:14:41Z</time>
      </trkpt>
      <trkpt lat="42.76667" lon="1.47641">
        <ele>771.6</ele>
        <time>2020-10-03T07:14:53Z</time>
      </trkpt>
      <trkpt lat="42.76672" lon="1.47631">
        <ele>774.48</ele>
        <time>2020-10-03T07:15:04Z</time>
      </trkpt>
      <trkpt lat="42.76673" lon="1.47628">
        <ele>774.96</ele>
        <time>2020-10-03T07:15:07Z</time>
      </trkpt>
      <trkpt lat="42.76676" lon="1.47618">
        <ele>776.4</ele>
        <time>2020-10-03T07:15:16Z</time>
      </trkpt>
      <trkpt lat="42.76677" lon="1.47606">
        <ele>778.81</ele>
        <time>2020-10-03T07:15:29Z</time>
      </trkpt>
      <trkpt lat="42.76676" lon="1.47596">
        <ele>780.73</ele>
        <time>2020-10-03T07:15:40Z</time>
      </trkpt>
      <trkpt lat="42.76674" lon="1.47585">
        <ele>783.61</ele>
        <time>2020-10-03T07:15:54Z</time>
      </trkpt>
      <trkpt lat="42.76674" lon="1.47579">
        <ele>784.09</ele>
        <time>2020-10-03T07:15:58Z</time>
      </trkpt>
      <trkpt lat="42.76674" lon="1.47562">
        <ele>785.53</ele>
        <time>2020-10-03T07:16:12Z</time>
      </trkpt>
      <trkpt lat="42.76674" lon="1.47556">
        <ele>786.98</ele>
        <time>2020-10-03T07:16:17Z</time>
      </trkpt>
      <trkpt lat="42.76676" lon="1.4754">
        <ele>789.38</ele>
        <time>2020-10-03T07:16:31Z</time>
      </trkpt>
      <trkpt lat="42.76677" lon="1.47539">
        <ele>789.38</ele>
        <time>2020-10-03T07:16:33Z</time>
      </trkpt>
      <trkpt lat="42.76682" lon="1.47522">
        <ele>790.82</ele>
        <time>2020-10-03T07:16:46Z</time>
      </trkpt>
      <trkpt lat="42.76685" lon="1.47505">
        <ele>792.74</ele>
        <time>2020-10-03T07:17:00Z</time>
      </trkpt>
      <trkpt lat="42.76683" lon="1.47496">
        <ele>794.67</ele>
        <time>2020-10-03T07:17:13Z</time>
      </trkpt>
      <trkpt lat="42.7668" lon="1.47481">
        <ele>798.03</ele>
        <time>2020-10-03T07:17:27Z</time>
      </trkpt>
      <trkpt lat="42.76682" lon="1.4747">
        <ele>799.47</ele>
        <time>2020-10-03T07:17:37Z</time>
      </trkpt>
      <trkpt lat="42.76686" lon="1.47456">
        <ele>800.92</ele>
        <time>2020-10-03T07:17:50Z</time>
      </trkpt>
      <trkpt lat="42.76685" lon="1.47445">
        <ele>803.8</ele>
        <time>2020-10-03T07:18:03Z</time>
      </trkpt>
      <trkpt lat="42.76682" lon="1.47435">
        <ele>806.2</ele>
        <time>2020-10-03T07:18:15Z</time>
      </trkpt>
      <trkpt lat="42.76682" lon="1.47421">
        <ele>809.09</ele>
        <time>2020-10-03T07:18:28Z</time>
      </trkpt>
      <trkpt lat="42.76682" lon="1.4741">
        <ele>811.49</ele>
        <time>2020-10-03T07:18:40Z</time>
      </trkpt>
      <trkpt lat="42.76686" lon="1.47399">
        <ele>814.37</ele>
        <time>2020-10-03T07:18:55Z</time>
      </trkpt>
      <trkpt lat="42.76688" lon="1.47389">
        <ele>816.78</ele>
        <time>2020-10-03T07:19:09Z</time>
      </trkpt>
      <trkpt lat="42.7669" lon="1.4737">
        <ele>818.7</ele>
        <time>2020-10-03T07:19:23Z</time>
      </trkpt>
      <trkpt lat="42.7669" lon="1.47353">
        <ele>821.1</ele>
        <time>2020-10-03T07:19:39Z</time>
      </trkpt>
      <trkpt lat="42.76691" lon="1.47341">
        <ele>823.03</ele>
        <time>2020-10-03T07:19:54Z</time>
      </trkpt>
      <trkpt lat="42.76689" lon="1.47342">
        <ele>823.51</ele>
        <time>2020-10-03T07:20:17Z</time>
      </trkpt>
      <trkpt lat="42.7669" lon="1.47337">
        <ele>823.51</ele>
        <time>2020-10-03T07:20:29Z</time>
      </trkpt>
      <trkpt lat="42.76688" lon="1.47336">
        <ele>822.55</ele>
        <time>2020-10-03T07:20:40Z</time>
      </trkpt>
      <trkpt lat="42.76689" lon="1.47338">
        <ele>821.58</ele>
        <time>2020-10-03T07:20:42Z</time>
      </trkpt>
      <trkpt lat="42.76683" lon="1.47349">
        <ele>820.14</ele>
        <time>2020-10-03T07:20:54Z</time>
      </trkpt>
      <trkpt lat="42.76682" lon="1.47351">
        <ele>820.14</ele>
        <time>2020-10-03T07:20:56Z</time>
      </trkpt>
      <trkpt lat="42.76671" lon="1.47364">
        <ele>820.62</ele>
        <time>2020-10-03T07:21:08Z</time>
      </trkpt>
      <trkpt lat="42.76664" lon="1.4738">
        <ele>820.62</ele>
        <time>2020-10-03T07:21:20Z</time>
      </trkpt>
      <trkpt lat="42.76661" lon="1.47387">
        <ele>819.18</ele>
        <time>2020-10-03T07:21:35Z</time>
      </trkpt>
      <trkpt lat="42.76654" lon="1.47393">
        <ele>818.7</ele>
        <time>2020-10-03T07:21:48Z</time>
      </trkpt>
      <trkpt lat="42.7665" lon="1.47393">
        <ele>820.14</ele>
        <time>2020-10-03T07:21:54Z</time>
      </trkpt>
      <trkpt lat="42.76642" lon="1.47393">
        <ele>823.51</ele>
        <time>2020-10-03T07:22:07Z</time>
      </trkpt>
      <trkpt lat="42.76636" lon="1.47386">
        <ele>825.91</ele>
        <time>2020-10-03T07:22:18Z</time>
      </trkpt>
      <trkpt lat="42.76633" lon="1.4738">
        <ele>829.27</ele>
        <time>2020-10-03T07:22:32Z</time>
      </trkpt>
      <trkpt lat="42.76633" lon="1.47372">
        <ele>831.2</ele>
        <time>2020-10-03T07:22:44Z</time>
      </trkpt>
      <trkpt lat="42.76634" lon="1.47358">
        <ele>833.6</ele>
        <time>2020-10-03T07:22:57Z</time>
      </trkpt>
      <trkpt lat="42.76633" lon="1.47345">
        <ele>836.96</ele>
        <time>2020-10-03T07:23:12Z</time>
      </trkpt>
      <trkpt lat="42.76631" lon="1.47335">
        <ele>837.93</ele>
        <time>2020-10-03T07:23:23Z</time>
      </trkpt>
      <trkpt lat="42.7663" lon="1.47319">
        <ele>839.85</ele>
        <time>2020-10-03T07:23:38Z</time>
      </trkpt>
      <trkpt lat="42.76631" lon="1.47317">
        <ele>840.81</ele>
        <time>2020-10-03T07:23:41Z</time>
      </trkpt>
      <trkpt lat="42.76636" lon="1.47313">
        <ele>841.77</ele>
        <time>2020-10-03T07:23:48Z</time>
      </trkpt>
      <trkpt lat="42.76647" lon="1.47311">
        <ele>842.73</ele>
        <time>2020-10-03T07:24:02Z</time>
      </trkpt>
      <trkpt lat="42.7665" lon="1.47309">
        <ele>842.73</ele>
        <time>2020-10-03T07:24:04Z</time>
      </trkpt>
      <trkpt lat="42.76653" lon="1.47304">
        <ele>842.73</ele>
        <time>2020-10-03T07:24:07Z</time>
      </trkpt>
      <trkpt lat="42.76657" lon="1.47295">
        <ele>843.21</ele>
        <time>2020-10-03T07:24:14Z</time>
      </trkpt>
      <trkpt lat="42.76665" lon="1.47283">
        <ele>843.69</ele>
        <time>2020-10-03T07:24:26Z</time>
      </trkpt>
      <trkpt lat="42.76665" lon="1.47272">
        <ele>845.14</ele>
        <time>2020-10-03T07:24:44Z</time>
      </trkpt>
      <trkpt lat="42.76663" lon="1.47257">
        <ele>848.02</ele>
        <time>2020-10-03T07:25:00Z</time>
      </trkpt>
      <trkpt lat="42.7666" lon="1.47248">
        <ele>850.9</ele>
        <time>2020-10-03T07:25:16Z</time>
      </trkpt>
      <trkpt lat="42.76654" lon="1.47242">
        <ele>853.79</ele>
        <time>2020-10-03T07:25:30Z</time>
      </trkpt>
      <trkpt lat="42.76651" lon="1.47238">
        <ele>856.19</ele>
        <time>2020-10-03T07:25:43Z</time>
      </trkpt>
      <trkpt lat="42.76646" lon="1.4723">
        <ele>859.08</ele>
        <time>2020-10-03T07:25:58Z</time>
      </trkpt>
      <trkpt lat="42.76641" lon="1.47227">
        <ele>861.96</ele>
        <time>2020-10-03T07:26:11Z</time>
      </trkpt>
      <trkpt lat="42.76639" lon="1.47218">
        <ele>864.36</ele>
        <time>2020-10-03T07:26:24Z</time>
      </trkpt>
      <trkpt lat="42.76632" lon="1.47208">
        <ele>867.73</ele>
        <time>2020-10-03T07:26:38Z</time>
      </trkpt>
      <trkpt lat="42.76625" lon="1.47195">
        <ele>870.61</ele>
        <time>2020-10-03T07:26:53Z</time>
      </trkpt>
      <trkpt lat="42.76622" lon="1.47186">
        <ele>873.01</ele>
        <time>2020-10-03T07:27:07Z</time>
      </trkpt>
      <trkpt lat="42.76617" lon="1.4718">
        <ele>875.9</ele>
        <time>2020-10-03T07:27:19Z</time>
      </trkpt>
      <trkpt lat="42.76612" lon="1.47175">
        <ele>878.78</ele>
        <time>2020-10-03T07:27:34Z</time>
      </trkpt>
      <trkpt lat="42.76613" lon="1.47166">
        <ele>881.19</ele>
        <time>2020-10-03T07:27:50Z</time>
      </trkpt>
      <trkpt lat="42.76606" lon="1.47163">
        <ele>884.55</ele>
        <time>2020-10-03T07:28:05Z</time>
      </trkpt>
      <trkpt lat="42.76603" lon="1.47156">
        <ele>887.91</ele>
        <time>2020-10-03T07:28:22Z</time>
      </trkpt>
      <trkpt lat="42.76601" lon="1.4715">
        <ele>889.36</ele>
        <time>2020-10-03T07:28:36Z</time>
      </trkpt>
      <trkpt lat="42.7659" lon="1.47155">
        <ele>891.76</ele>
        <time>2020-10-03T07:28:50Z</time>
      </trkpt>
      <trkpt lat="42.76587" lon="1.47165">
        <ele>893.2</ele>
        <time>2020-10-03T07:29:03Z</time>
      </trkpt>
      <trkpt lat="42.76581" lon="1.47185">
        <ele>895.12</ele>
        <time>2020-10-03T07:29:19Z</time>
      </trkpt>
      <trkpt lat="42.76579" lon="1.47189">
        <ele>895.12</ele>
        <time>2020-10-03T07:29:22Z</time>
      </trkpt>
      <trkpt lat="42.76567" lon="1.47198">
        <ele>897.53</ele>
        <time>2020-10-03T07:29:36Z</time>
      </trkpt>
      <trkpt lat="42.76559" lon="1.47203">
        <ele>899.93</ele>
        <time>2020-10-03T07:29:50Z</time>
      </trkpt>
      <trkpt lat="42.76547" lon="1.47203">
        <ele>903.3</ele>
        <time>2020-10-03T07:30:07Z</time>
      </trkpt>
      <trkpt lat="42.76545" lon="1.47206">
        <ele>906.66</ele>
        <time>2020-10-03T07:30:22Z</time>
      </trkpt>
      <trkpt lat="42.7654" lon="1.47207">
        <ele>908.58</ele>
        <time>2020-10-03T07:30:36Z</time>
      </trkpt>
      <trkpt lat="42.76539" lon="1.47204">
        <ele>910.99</ele>
        <time>2020-10-03T07:30:50Z</time>
      </trkpt>
      <trkpt lat="42.76538" lon="1.47204">
        <ele>913.39</ele>
        <time>2020-10-03T07:31:04Z</time>
      </trkpt>
      <trkpt lat="42.76539" lon="1.47195">
        <ele>916.27</ele>
        <time>2020-10-03T07:31:22Z</time>
      </trkpt>
      <trkpt lat="42.76543" lon="1.47175">
        <ele>919.16</ele>
        <time>2020-10-03T07:31:39Z</time>
      </trkpt>
      <trkpt lat="42.76546" lon="1.47163">
        <ele>922.04</ele>
        <time>2020-10-03T07:31:52Z</time>
      </trkpt>
      <trkpt lat="42.76545" lon="1.47154">
        <ele>924.93</ele>
        <time>2020-10-03T07:32:05Z</time>
      </trkpt>
      <trkpt lat="42.76547" lon="1.4715">
        <ele>926.37</ele>
        <time>2020-10-03T07:32:10Z</time>
      </trkpt>
      <trkpt lat="42.76548" lon="1.47137">
        <ele>928.29</ele>
        <time>2020-10-03T07:32:23Z</time>
      </trkpt>
      <trkpt lat="42.76548" lon="1.4713">
        <ele>930.21</ele>
        <time>2020-10-03T07:32:40Z</time>
      </trkpt>
      <trkpt lat="42.76551" lon="1.47123">
        <ele>930.21</ele>
        <time>2020-10-03T07:32:57Z</time>
      </trkpt>
      <trkpt lat="42.76557" lon="1.47122">
        <ele>928.77</ele>
        <time>2020-10-03T07:33:24Z</time>
      </trkpt>
      <trkpt lat="42.76556" lon="1.47122">
        <ele>929.25</ele>
        <time>2020-10-03T07:33:55Z</time>
      </trkpt>
      <trkpt lat="42.76556" lon="1.47125">
        <ele>929.73</ele>
        <time>2020-10-03T07:34:24Z</time>
      </trkpt>
      <trkpt lat="42.76555" lon="1.47125">
        <ele>929.73</ele>
        <time>2020-10-03T07:34:41Z</time>
      </trkpt>
      <trkpt lat="42.76557" lon="1.47123">
        <ele>930.21</ele>
        <time>2020-10-03T07:35:08Z</time>
      </trkpt>
      <trkpt lat="42.76552" lon="1.47125">
        <ele>930.21</ele>
        <time>2020-10-03T07:35:29Z</time>
      </trkpt>
      <trkpt lat="42.76549" lon="1.47118">
        <ele>932.62</ele>
        <time>2020-10-03T07:35:43Z</time>
      </trkpt>
      <trkpt lat="42.7655" lon="1.47112">
        <ele>935.02</ele>
        <time>2020-10-03T07:35:56Z</time>
      </trkpt>
      <trkpt lat="42.76552" lon="1.47103">
        <ele>937.9</ele>
        <time>2020-10-03T07:36:12Z</time>
      </trkpt>
      <trkpt lat="42.76555" lon="1.47089">
        <ele>939.83</ele>
        <time>2020-10-03T07:36:28Z</time>
      </trkpt>
      <trkpt lat="42.76555" lon="1.47082">
        <ele>942.71</ele>
        <time>2020-10-03T07:36:43Z</time>
      </trkpt>
      <trkpt lat="42.76557" lon="1.47078">
        <ele>945.11</ele>
        <time>2020-10-03T07:36:59Z</time>
      </trkpt>
      <trkpt lat="42.76562" lon="1.47066">
        <ele>948</ele>
        <time>2020-10-03T07:37:15Z</time>
      </trkpt>
      <trkpt lat="42.76568" lon="1.47052">
        <ele>950.4</ele>
        <time>2020-10-03T07:37:32Z</time>
      </trkpt>
      <trkpt lat="42.76576" lon="1.47043">
        <ele>953.28</ele>
        <time>2020-10-03T07:37:47Z</time>
      </trkpt>
      <trkpt lat="42.76582" lon="1.47029">
        <ele>956.17</ele>
        <time>2020-10-03T07:38:01Z</time>
      </trkpt>
      <trkpt lat="42.76586" lon="1.4701">
        <ele>958.57</ele>
        <time>2020-10-03T07:38:17Z</time>
      </trkpt>
      <trkpt lat="42.7659" lon="1.47003">
        <ele>960.49</ele>
        <time>2020-10-03T07:38:31Z</time>
      </trkpt>
      <trkpt lat="42.76591" lon="1.46993">
        <ele>963.38</ele>
        <time>2020-10-03T07:38:46Z</time>
      </trkpt>
      <trkpt lat="42.76592" lon="1.46988">
        <ele>965.78</ele>
        <time>2020-10-03T07:39:01Z</time>
      </trkpt>
      <trkpt lat="42.76591" lon="1.4698">
        <ele>969.15</ele>
        <time>2020-10-03T07:39:18Z</time>
      </trkpt>
      <trkpt lat="42.76594" lon="1.46982">
        <ele>971.07</ele>
        <time>2020-10-03T07:39:33Z</time>
      </trkpt>
      <trkpt lat="42.76597" lon="1.46972">
        <ele>971.55</ele>
        <time>2020-10-03T07:39:51Z</time>
      </trkpt>
      <trkpt lat="42.76595" lon="1.46962">
        <ele>972.99</ele>
        <time>2020-10-03T07:40:00Z</time>
      </trkpt>
      <trkpt lat="42.766" lon="1.46962">
        <ele>976.36</ele>
        <time>2020-10-03T07:40:15Z</time>
      </trkpt>
      <trkpt lat="42.76606" lon="1.46946">
        <ele>979.24</ele>
        <time>2020-10-03T07:40:31Z</time>
      </trkpt>
      <trkpt lat="42.76609" lon="1.46933">
        <ele>981.16</ele>
        <time>2020-10-03T07:40:45Z</time>
      </trkpt>
      <trkpt lat="42.76612" lon="1.46917">
        <ele>983.57</ele>
        <time>2020-10-03T07:41:01Z</time>
      </trkpt>
      <trkpt lat="42.76612" lon="1.46902">
        <ele>985.97</ele>
        <time>2020-10-03T07:41:21Z</time>
      </trkpt>
      <trkpt lat="42.76615" lon="1.46893">
        <ele>988.37</ele>
        <time>2020-10-03T07:41:40Z</time>
      </trkpt>
      <trkpt lat="42.76619" lon="1.46886">
        <ele>990.78</ele>
        <time>2020-10-03T07:41:55Z</time>
      </trkpt>
      <trkpt lat="42.76623" lon="1.4688">
        <ele>993.18</ele>
        <time>2020-10-03T07:42:11Z</time>
      </trkpt>
      <trkpt lat="42.76626" lon="1.46871">
        <ele>995.1</ele>
        <time>2020-10-03T07:42:25Z</time>
      </trkpt>
      <trkpt lat="42.76629" lon="1.46859">
        <ele>997.51</ele>
        <time>2020-10-03T07:42:40Z</time>
      </trkpt>
      <trkpt lat="42.76632" lon="1.46845">
        <ele>998.95</ele>
        <time>2020-10-03T07:42:54Z</time>
      </trkpt>
      <trkpt lat="42.76632" lon="1.46833">
        <ele>1000.87</ele>
        <time>2020-10-03T07:43:08Z</time>
      </trkpt>
      <trkpt lat="42.76638" lon="1.46821">
        <ele>1004.23</ele>
        <time>2020-10-03T07:43:28Z</time>
      </trkpt>
      <trkpt lat="42.76639" lon="1.46807">
        <ele>1006.64</ele>
        <time>2020-10-03T07:43:46Z</time>
      </trkpt>
      <trkpt lat="42.76639" lon="1.46792">
        <ele>1007.6</ele>
        <time>2020-10-03T07:44:03Z</time>
      </trkpt>
      <trkpt lat="42.76642" lon="1.46783">
        <ele>1010.96</ele>
        <time>2020-10-03T07:44:19Z</time>
      </trkpt>
      <trkpt lat="42.7664" lon="1.46777">
        <ele>1012.41</ele>
        <time>2020-10-03T07:44:34Z</time>
      </trkpt>
      <trkpt lat="42.76641" lon="1.46768">
        <ele>1014.81</ele>
        <time>2020-10-03T07:44:50Z</time>
      </trkpt>
      <trkpt lat="42.76643" lon="1.46759">
        <ele>1017.21</ele>
        <time>2020-10-03T07:45:04Z</time>
      </trkpt>
      <trkpt lat="42.76645" lon="1.46744">
        <ele>1018.65</ele>
        <time>2020-10-03T07:45:18Z</time>
      </trkpt>
      <trkpt lat="42.76644" lon="1.46732">
        <ele>1022.02</ele>
        <time>2020-10-03T07:45:32Z</time>
      </trkpt>
      <trkpt lat="42.76642" lon="1.46721">
        <ele>1024.42</ele>
        <time>2020-10-03T07:45:49Z</time>
      </trkpt>
      <trkpt lat="42.76642" lon="1.46714">
        <ele>1026.83</ele>
        <time>2020-10-03T07:46:06Z</time>
      </trkpt>
      <trkpt lat="42.76642" lon="1.46701">
        <ele>1029.23</ele>
        <time>2020-10-03T07:46:22Z</time>
      </trkpt>
      <trkpt lat="42.76642" lon="1.46693">
        <ele>1031.63</ele>
        <time>2020-10-03T07:46:38Z</time>
      </trkpt>
      <trkpt lat="42.76641" lon="1.46686">
        <ele>1034.52</ele>
        <time>2020-10-03T07:46:57Z</time>
      </trkpt>
      <trkpt lat="42.7664" lon="1.46672">
        <ele>1036.44</ele>
        <time>2020-10-03T07:47:12Z</time>
      </trkpt>
      <trkpt lat="42.76642" lon="1.46661">
        <ele>1039.8</ele>
        <time>2020-10-03T07:47:27Z</time>
      </trkpt>
      <trkpt lat="42.7664" lon="1.46653">
        <ele>1042.21</ele>
        <time>2020-10-03T07:47:43Z</time>
      </trkpt>
      <trkpt lat="42.76643" lon="1.46643">
        <ele>1044.61</ele>
        <time>2020-10-03T07:47:58Z</time>
      </trkpt>
      <trkpt lat="42.76644" lon="1.46632">
        <ele>1047.49</ele>
        <time>2020-10-03T07:48:12Z</time>
      </trkpt>
      <trkpt lat="42.76643" lon="1.46625">
        <ele>1049.42</ele>
        <time>2020-10-03T07:48:27Z</time>
      </trkpt>
      <trkpt lat="42.76637" lon="1.46623">
        <ele>1051.34</ele>
        <time>2020-10-03T07:48:41Z</time>
      </trkpt>
      <trkpt lat="42.76627" lon="1.46623">
        <ele>1053.74</ele>
        <time>2020-10-03T07:48:55Z</time>
      </trkpt>
      <trkpt lat="42.76621" lon="1.46626">
        <ele>1056.15</ele>
        <time>2020-10-03T07:49:09Z</time>
      </trkpt>
      <trkpt lat="42.76617" lon="1.4663">
        <ele>1056.63</ele>
        <time>2020-10-03T07:49:25Z</time>
      </trkpt>
      <trkpt lat="42.76614" lon="1.46638">
        <ele>1058.55</ele>
        <time>2020-10-03T07:49:40Z</time>
      </trkpt>
      <trkpt lat="42.76614" lon="1.46646">
        <ele>1060.47</ele>
        <time>2020-10-03T07:49:58Z</time>
      </trkpt>
      <trkpt lat="42.76611" lon="1.46657">
        <ele>1061.43</ele>
        <time>2020-10-03T07:50:14Z</time>
      </trkpt>
      <trkpt lat="42.76605" lon="1.46659">
        <ele>1064.32</ele>
        <time>2020-10-03T07:50:30Z</time>
      </trkpt>
      <trkpt lat="42.76613" lon="1.46667">
        <ele>1065.76</ele>
        <time>2020-10-03T07:50:43Z</time>
      </trkpt>
      <trkpt lat="42.76604" lon="1.46679">
        <ele>1067.68</ele>
        <time>2020-10-03T07:50:59Z</time>
      </trkpt>
      <trkpt lat="42.76598" lon="1.46687">
        <ele>1070.08</ele>
        <time>2020-10-03T07:51:15Z</time>
      </trkpt>
      <trkpt lat="42.76591" lon="1.46692">
        <ele>1072.01</ele>
        <time>2020-10-03T07:51:30Z</time>
      </trkpt>
      <trkpt lat="42.76589" lon="1.46704">
        <ele>1074.41</ele>
        <time>2020-10-03T07:51:46Z</time>
      </trkpt>
      <trkpt lat="42.76589" lon="1.46707">
        <ele>1076.81</ele>
        <time>2020-10-03T07:51:54Z</time>
      </trkpt>
      <trkpt lat="42.76579" lon="1.46714">
        <ele>1078.74</ele>
        <time>2020-10-03T07:52:14Z</time>
      </trkpt>
      <trkpt lat="42.76572" lon="1.46719">
        <ele>1080.18</ele>
        <time>2020-10-03T07:52:23Z</time>
      </trkpt>
      <trkpt lat="42.76565" lon="1.46729">
        <ele>1082.1</ele>
        <time>2020-10-03T07:52:39Z</time>
      </trkpt>
      <trkpt lat="42.76561" lon="1.46741">
        <ele>1085.47</ele>
        <time>2020-10-03T07:52:54Z</time>
      </trkpt>
      <trkpt lat="42.76566" lon="1.4673">
        <ele>1085.95</ele>
        <time>2020-10-03T07:53:07Z</time>
      </trkpt>
      <trkpt lat="42.76568" lon="1.46714">
        <ele>1087.39</ele>
        <time>2020-10-03T07:53:20Z</time>
      </trkpt>
      <trkpt lat="42.76573" lon="1.46698">
        <ele>1088.83</ele>
        <time>2020-10-03T07:53:35Z</time>
      </trkpt>
      <trkpt lat="42.76574" lon="1.46687">
        <ele>1090.75</ele>
        <time>2020-10-03T07:53:48Z</time>
      </trkpt>
      <trkpt lat="42.76573" lon="1.46672">
        <ele>1092.2</ele>
        <time>2020-10-03T07:54:04Z</time>
      </trkpt>
      <trkpt lat="42.76576" lon="1.4666">
        <ele>1093.64</ele>
        <time>2020-10-03T07:54:24Z</time>
      </trkpt>
      <trkpt lat="42.76578" lon="1.46654">
        <ele>1093.64</ele>
        <time>2020-10-03T07:54:52Z</time>
      </trkpt>
      <trkpt lat="42.76579" lon="1.46644">
        <ele>1095.08</ele>
        <time>2020-10-03T07:55:06Z</time>
      </trkpt>
      <trkpt lat="42.76578" lon="1.46636">
        <ele>1096.04</ele>
        <time>2020-10-03T07:55:18Z</time>
      </trkpt>
      <trkpt lat="42.76579" lon="1.46626">
        <ele>1098.44</ele>
        <time>2020-10-03T07:55:32Z</time>
      </trkpt>
      <trkpt lat="42.76581" lon="1.4661">
        <ele>1100.85</ele>
        <time>2020-10-03T07:55:49Z</time>
      </trkpt>
      <trkpt lat="42.76582" lon="1.46601">
        <ele>1102.77</ele>
        <time>2020-10-03T07:56:04Z</time>
      </trkpt>
      <trkpt lat="42.76583" lon="1.46594">
        <ele>1105.17</ele>
        <time>2020-10-03T07:56:19Z</time>
      </trkpt>
      <trkpt lat="42.76582" lon="1.46582">
        <ele>1106.61</ele>
        <time>2020-10-03T07:56:31Z</time>
      </trkpt>
      <trkpt lat="42.76582" lon="1.46572">
        <ele>1109.02</ele>
        <time>2020-10-03T07:56:46Z</time>
      </trkpt>
      <trkpt lat="42.76581" lon="1.46565">
        <ele>1111.42</ele>
        <time>2020-10-03T07:57:03Z</time>
      </trkpt>
      <trkpt lat="42.76582" lon="1.46558">
        <ele>1113.34</ele>
        <time>2020-10-03T07:57:19Z</time>
      </trkpt>
      <trkpt lat="42.76584" lon="1.46543">
        <ele>1115.75</ele>
        <time>2020-10-03T07:57:33Z</time>
      </trkpt>
      <trkpt lat="42.76586" lon="1.46531">
        <ele>1117.67</ele>
        <time>2020-10-03T07:57:46Z</time>
      </trkpt>
      <trkpt lat="42.7659" lon="1.46519">
        <ele>1120.55</ele>
        <time>2020-10-03T07:58:03Z</time>
      </trkpt>
      <trkpt lat="42.76588" lon="1.46504">
        <ele>1122.96</ele>
        <time>2020-10-03T07:58:23Z</time>
      </trkpt>
      <trkpt lat="42.76586" lon="1.4649">
        <ele>1124.4</ele>
        <time>2020-10-03T07:58:37Z</time>
      </trkpt>
      <trkpt lat="42.76583" lon="1.46484">
        <ele>1127.28</ele>
        <time>2020-10-03T07:58:53Z</time>
      </trkpt>
      <trkpt lat="42.76583" lon="1.46476">
        <ele>1129.21</ele>
        <time>2020-10-03T07:59:08Z</time>
      </trkpt>
      <trkpt lat="42.76584" lon="1.46463">
        <ele>1129.69</ele>
        <time>2020-10-03T07:59:25Z</time>
      </trkpt>
      <trkpt lat="42.76581" lon="1.46453">
        <ele>1131.61</ele>
        <time>2020-10-03T07:59:40Z</time>
      </trkpt>
      <trkpt lat="42.76581" lon="1.46443">
        <ele>1134.01</ele>
        <time>2020-10-03T07:59:57Z</time>
      </trkpt>
      <trkpt lat="42.76583" lon="1.46444">
        <ele>1134.01</ele>
        <time>2020-10-03T08:00:20Z</time>
      </trkpt>
      <trkpt lat="42.76578" lon="1.46446">
        <ele>1134.97</ele>
        <time>2020-10-03T08:00:43Z</time>
      </trkpt>
      <trkpt lat="42.76576" lon="1.46445">
        <ele>1134.97</ele>
        <time>2020-10-03T08:01:15Z</time>
      </trkpt>
      <trkpt lat="42.76571" lon="1.46447">
        <ele>1136.42</ele>
        <time>2020-10-03T08:01:32Z</time>
      </trkpt>
      <trkpt lat="42.76575" lon="1.4645">
        <ele>1137.38</ele>
        <time>2020-10-03T08:02:05Z</time>
      </trkpt>
      <trkpt lat="42.76575" lon="1.46452">
        <ele>1137.86</ele>
        <time>2020-10-03T08:02:30Z</time>
      </trkpt>
      <trkpt lat="42.7657" lon="1.4646">
        <ele>1138.34</ele>
        <time>2020-10-03T08:02:51Z</time>
      </trkpt>
      <trkpt lat="42.76562" lon="1.46463">
        <ele>1141.22</ele>
        <time>2020-10-03T08:03:06Z</time>
      </trkpt>
      <trkpt lat="42.76557" lon="1.46475">
        <ele>1144.11</ele>
        <time>2020-10-03T08:03:18Z</time>
      </trkpt>
      <trkpt lat="42.76548" lon="1.46491">
        <ele>1145.55</ele>
        <time>2020-10-03T08:03:34Z</time>
      </trkpt>
      <trkpt lat="42.76543" lon="1.46504">
        <ele>1148.91</ele>
        <time>2020-10-03T08:03:49Z</time>
      </trkpt>
      <trkpt lat="42.76537" lon="1.46513">
        <ele>1151.32</ele>
        <time>2020-10-03T08:04:04Z</time>
      </trkpt>
      <trkpt lat="42.76535" lon="1.46518">
        <ele>1152.76</ele>
        <time>2020-10-03T08:04:17Z</time>
      </trkpt>
      <trkpt lat="42.76528" lon="1.46528">
        <ele>1155.16</ele>
        <time>2020-10-03T08:04:32Z</time>
      </trkpt>
      <trkpt lat="42.76521" lon="1.46536">
        <ele>1157.56</ele>
        <time>2020-10-03T08:04:47Z</time>
      </trkpt>
      <trkpt lat="42.76514" lon="1.46547">
        <ele>1159.01</ele>
        <time>2020-10-03T08:05:01Z</time>
      </trkpt>
      <trkpt lat="42.76508" lon="1.46555">
        <ele>1161.41</ele>
        <time>2020-10-03T08:05:16Z</time>
      </trkpt>
      <trkpt lat="42.76504" lon="1.46568">
        <ele>1163.81</ele>
        <time>2020-10-03T08:05:32Z</time>
      </trkpt>
      <trkpt lat="42.76498" lon="1.46581">
        <ele>1165.74</ele>
        <time>2020-10-03T08:05:51Z</time>
      </trkpt>
      <trkpt lat="42.76494" lon="1.46592">
        <ele>1167.66</ele>
        <time>2020-10-03T08:06:06Z</time>
      </trkpt>
      <trkpt lat="42.76495" lon="1.46602">
        <ele>1169.58</ele>
        <time>2020-10-03T08:06:20Z</time>
      </trkpt>
      <trkpt lat="42.76489" lon="1.46611">
        <ele>1171.02</ele>
        <time>2020-10-03T08:06:33Z</time>
      </trkpt>
      <trkpt lat="42.76483" lon="1.46622">
        <ele>1173.91</ele>
        <time>2020-10-03T08:06:50Z</time>
      </trkpt>
      <trkpt lat="42.76478" lon="1.4663">
        <ele>1176.31</ele>
        <time>2020-10-03T08:07:06Z</time>
      </trkpt>
      <trkpt lat="42.76472" lon="1.46641">
        <ele>1179.19</ele>
        <time>2020-10-03T08:07:23Z</time>
      </trkpt>
      <trkpt lat="42.76472" lon="1.46648">
        <ele>1181.6</ele>
        <time>2020-10-03T08:07:39Z</time>
      </trkpt>
      <trkpt lat="42.76464" lon="1.46654">
        <ele>1184.48</ele>
        <time>2020-10-03T08:07:58Z</time>
      </trkpt>
      <trkpt lat="42.76465" lon="1.46648">
        <ele>1187.37</ele>
        <time>2020-10-03T08:08:14Z</time>
      </trkpt>
      <trkpt lat="42.76465" lon="1.46639">
        <ele>1189.77</ele>
        <time>2020-10-03T08:08:31Z</time>
      </trkpt>
      <trkpt lat="42.76467" lon="1.46628">
        <ele>1192.65</ele>
        <time>2020-10-03T08:08:47Z</time>
      </trkpt>
      <trkpt lat="42.76465" lon="1.46616">
        <ele>1195.06</ele>
        <time>2020-10-03T08:09:03Z</time>
      </trkpt>
      <trkpt lat="42.76464" lon="1.46604">
        <ele>1197.46</ele>
        <time>2020-10-03T08:09:21Z</time>
      </trkpt>
      <trkpt lat="42.76463" lon="1.46592">
        <ele>1200.82</ele>
        <time>2020-10-03T08:09:38Z</time>
      </trkpt>
      <trkpt lat="42.76463" lon="1.46588">
        <ele>1202.27</ele>
        <time>2020-10-03T08:09:41Z</time>
      </trkpt>
      <trkpt lat="42.76465" lon="1.46577">
        <ele>1203.71</ele>
        <time>2020-10-03T08:09:54Z</time>
      </trkpt>
      <trkpt lat="42.76461" lon="1.46564">
        <ele>1206.59</ele>
        <time>2020-10-03T08:10:11Z</time>
      </trkpt>
      <trkpt lat="42.76459" lon="1.4655">
        <ele>1209.48</ele>
        <time>2020-10-03T08:10:27Z</time>
      </trkpt>
      <trkpt lat="42.76459" lon="1.46543">
        <ele>1210.92</ele>
        <time>2020-10-03T08:10:39Z</time>
      </trkpt>
      <trkpt lat="42.76455" lon="1.46531">
        <ele>1213.8</ele>
        <time>2020-10-03T08:10:54Z</time>
      </trkpt>
      <trkpt lat="42.76454" lon="1.4652">
        <ele>1216.69</ele>
        <time>2020-10-03T08:11:13Z</time>
      </trkpt>
      <trkpt lat="42.76452" lon="1.46505">
        <ele>1219.57</ele>
        <time>2020-10-03T08:11:30Z</time>
      </trkpt>
      <trkpt lat="42.76451" lon="1.46491">
        <ele>1221.97</ele>
        <time>2020-10-03T08:11:45Z</time>
      </trkpt>
      <trkpt lat="42.76449" lon="1.46484">
        <ele>1223.9</ele>
        <time>2020-10-03T08:11:58Z</time>
      </trkpt>
      <trkpt lat="42.76447" lon="1.46467">
        <ele>1226.3</ele>
        <time>2020-10-03T08:12:15Z</time>
      </trkpt>
      <trkpt lat="42.76446" lon="1.46458">
        <ele>1229.18</ele>
        <time>2020-10-03T08:12:28Z</time>
      </trkpt>
      <trkpt lat="42.76446" lon="1.46448">
        <ele>1231.59</ele>
        <time>2020-10-03T08:12:43Z</time>
      </trkpt>
      <trkpt lat="42.76444" lon="1.46434">
        <ele>1233.99</ele>
        <time>2020-10-03T08:12:58Z</time>
      </trkpt>
      <trkpt lat="42.76442" lon="1.46427">
        <ele>1236.87</ele>
        <time>2020-10-03T08:13:13Z</time>
      </trkpt>
      <trkpt lat="42.76438" lon="1.46419">
        <ele>1239.76</ele>
        <time>2020-10-03T08:13:27Z</time>
      </trkpt>
      <trkpt lat="42.76436" lon="1.46408">
        <ele>1242.64</ele>
        <time>2020-10-03T08:13:42Z</time>
      </trkpt>
      <trkpt lat="42.76434" lon="1.46398">
        <ele>1244.56</ele>
        <time>2020-10-03T08:13:58Z</time>
      </trkpt>
      <trkpt lat="42.76434" lon="1.46387">
        <ele>1247.93</ele>
        <time>2020-10-03T08:14:13Z</time>
      </trkpt>
      <trkpt lat="42.76431" lon="1.46378">
        <ele>1249.85</ele>
        <time>2020-10-03T08:14:30Z</time>
      </trkpt>
      <trkpt lat="42.76432" lon="1.46364">
        <ele>1252.25</ele>
        <time>2020-10-03T08:14:45Z</time>
      </trkpt>
      <trkpt lat="42.76429" lon="1.46352">
        <ele>1254.66</ele>
        <time>2020-10-03T08:15:00Z</time>
      </trkpt>
      <trkpt lat="42.76425" lon="1.4634">
        <ele>1257.54</ele>
        <time>2020-10-03T08:15:19Z</time>
      </trkpt>
      <trkpt lat="42.76415" lon="1.46347">
        <ele>1259.94</ele>
        <time>2020-10-03T08:15:35Z</time>
      </trkpt>
      <trkpt lat="42.76406" lon="1.46351">
        <ele>1262.35</ele>
        <time>2020-10-03T08:15:49Z</time>
      </trkpt>
      <trkpt lat="42.76408" lon="1.46363">
        <ele>1264.27</ele>
        <time>2020-10-03T08:16:02Z</time>
      </trkpt>
      <trkpt lat="42.76409" lon="1.46362">
        <ele>1265.23</ele>
        <time>2020-10-03T08:16:14Z</time>
      </trkpt>
      <trkpt lat="42.76408" lon="1.46356">
        <ele>1265.23</ele>
        <time>2020-10-03T08:16:28Z</time>
      </trkpt>
      <trkpt lat="42.76411" lon="1.46352">
        <ele>1265.23</ele>
        <time>2020-10-03T08:16:43Z</time>
      </trkpt>
      <trkpt lat="42.76409" lon="1.46355">
        <ele>1264.75</ele>
        <time>2020-10-03T08:16:51Z</time>
      </trkpt>
      <trkpt lat="42.76407" lon="1.46356">
        <ele>1262.35</ele>
        <time>2020-10-03T08:16:53Z</time>
      </trkpt>
      <trkpt lat="42.76388" lon="1.46345">
        <ele>1264.75</ele>
        <time>2020-10-03T08:17:16Z</time>
      </trkpt>
      <trkpt lat="42.76375" lon="1.4634">
        <ele>1264.75</ele>
        <time>2020-10-03T08:17:40Z</time>
      </trkpt>
      <trkpt lat="42.76385" lon="1.46344">
        <ele>1265.23</ele>
        <time>2020-10-03T08:18:04Z</time>
      </trkpt>
      <trkpt lat="42.76393" lon="1.46342">
        <ele>1265.23</ele>
        <time>2020-10-03T08:18:29Z</time>
      </trkpt>
      <trkpt lat="42.76393" lon="1.46356">
        <ele>1265.71</ele>
        <time>2020-10-03T08:18:52Z</time>
      </trkpt>
      <trkpt lat="42.76393" lon="1.46363">
        <ele>1264.27</ele>
        <time>2020-10-03T08:19:01Z</time>
      </trkpt>
      <trkpt lat="42.76403" lon="1.4636">
        <ele>1266.67</ele>
        <time>2020-10-03T08:19:04Z</time>
      </trkpt>
      <trkpt lat="42.76422" lon="1.46346">
        <ele>1265.71</ele>
        <time>2020-10-03T08:19:15Z</time>
      </trkpt>
      <trkpt lat="42.76412" lon="1.46352">
        <ele>1264.75</ele>
        <time>2020-10-03T08:19:43Z</time>
      </trkpt>
      <trkpt lat="42.7641" lon="1.46352">
        <ele>1265.23</ele>
        <time>2020-10-03T08:20:15Z</time>
      </trkpt>
      <trkpt lat="42.76416" lon="1.46349">
        <ele>1265.23</ele>
        <time>2020-10-03T08:20:41Z</time>
      </trkpt>
      <trkpt lat="42.76407" lon="1.46339">
        <ele>1264.75</ele>
        <time>2020-10-03T08:21:08Z</time>
      </trkpt>
      <trkpt lat="42.76416" lon="1.46348">
        <ele>1264.75</ele>
        <time>2020-10-03T08:21:42Z</time>
      </trkpt>
      <trkpt lat="42.76415" lon="1.46346">
        <ele>1265.71</ele>
        <time>2020-10-03T08:22:00Z</time>
      </trkpt>
      <trkpt lat="42.76406" lon="1.46348">
        <ele>1266.19</ele>
        <time>2020-10-03T08:22:24Z</time>
      </trkpt>
      <trkpt lat="42.76402" lon="1.46359">
        <ele>1266.19</ele>
        <time>2020-10-03T08:22:33Z</time>
      </trkpt>
      <trkpt lat="42.764" lon="1.46375">
        <ele>1266.19</ele>
        <time>2020-10-03T08:22:45Z</time>
      </trkpt>
      <trkpt lat="42.76401" lon="1.46384">
        <ele>1268.6</ele>
        <time>2020-10-03T08:23:01Z</time>
      </trkpt>
      <trkpt lat="42.76393" lon="1.46396">
        <ele>1270.52</ele>
        <time>2020-10-03T08:23:18Z</time>
      </trkpt>
      <trkpt lat="42.76389" lon="1.46409">
        <ele>1272.44</ele>
        <time>2020-10-03T08:23:33Z</time>
      </trkpt>
      <trkpt lat="42.76395" lon="1.46422">
        <ele>1274.36</ele>
        <time>2020-10-03T08:23:45Z</time>
      </trkpt>
      <trkpt lat="42.76386" lon="1.4643">
        <ele>1276.29</ele>
        <time>2020-10-03T08:24:00Z</time>
      </trkpt>
      <trkpt lat="42.76378" lon="1.46438">
        <ele>1278.69</ele>
        <time>2020-10-03T08:24:12Z</time>
      </trkpt>
      <trkpt lat="42.76374" lon="1.46448">
        <ele>1281.57</ele>
        <time>2020-10-03T08:24:28Z</time>
      </trkpt>
      <trkpt lat="42.7637" lon="1.46463">
        <ele>1283.5</ele>
        <time>2020-10-03T08:24:41Z</time>
      </trkpt>
      <trkpt lat="42.76368" lon="1.46475">
        <ele>1284.94</ele>
        <time>2020-10-03T08:24:53Z</time>
      </trkpt>
      <trkpt lat="42.76361" lon="1.46487">
        <ele>1287.34</ele>
        <time>2020-10-03T08:25:08Z</time>
      </trkpt>
      <trkpt lat="42.76354" lon="1.46499">
        <ele>1290.71</ele>
        <time>2020-10-03T08:25:25Z</time>
      </trkpt>
      <trkpt lat="42.76351" lon="1.46507">
        <ele>1293.59</ele>
        <time>2020-10-03T08:25:39Z</time>
      </trkpt>
      <trkpt lat="42.76352" lon="1.46501">
        <ele>1295.99</ele>
        <time>2020-10-03T08:25:52Z</time>
      </trkpt>
      <trkpt lat="42.76352" lon="1.46491">
        <ele>1297.92</ele>
        <time>2020-10-03T08:26:07Z</time>
      </trkpt>
      <trkpt lat="42.76352" lon="1.46475">
        <ele>1300.8</ele>
        <time>2020-10-03T08:26:22Z</time>
      </trkpt>
      <trkpt lat="42.76352" lon="1.46464">
        <ele>1301.76</ele>
        <time>2020-10-03T08:26:35Z</time>
      </trkpt>
      <trkpt lat="42.76351" lon="1.46447">
        <ele>1304.65</ele>
        <time>2020-10-03T08:26:51Z</time>
      </trkpt>
      <trkpt lat="42.7635" lon="1.46438">
        <ele>1307.05</ele>
        <time>2020-10-03T08:27:04Z</time>
      </trkpt>
      <trkpt lat="42.76348" lon="1.46426">
        <ele>1309.45</ele>
        <time>2020-10-03T08:27:20Z</time>
      </trkpt>
      <trkpt lat="42.76346" lon="1.46413">
        <ele>1312.34</ele>
        <time>2020-10-03T08:27:37Z</time>
      </trkpt>
      <trkpt lat="42.76345" lon="1.46404">
        <ele>1314.74</ele>
        <time>2020-10-03T08:27:50Z</time>
      </trkpt>
      <trkpt lat="42.76343" lon="1.46394">
        <ele>1318.1</ele>
        <time>2020-10-03T08:28:02Z</time>
      </trkpt>
      <trkpt lat="42.76342" lon="1.46393">
        <ele>1318.1</ele>
        <time>2020-10-03T08:28:03Z</time>
      </trkpt>
      <trkpt lat="42.76342" lon="1.46378">
        <ele>1319.07</ele>
        <time>2020-10-03T08:28:17Z</time>
      </trkpt>
      <trkpt lat="42.76339" lon="1.46366">
        <ele>1320.99</ele>
        <time>2020-10-03T08:28:32Z</time>
      </trkpt>
      <trkpt lat="42.76333" lon="1.46358">
        <ele>1323.39</ele>
        <time>2020-10-03T08:28:47Z</time>
      </trkpt>
      <trkpt lat="42.76331" lon="1.46348">
        <ele>1326.28</ele>
        <time>2020-10-03T08:29:01Z</time>
      </trkpt>
      <trkpt lat="42.7633" lon="1.46333">
        <ele>1327.72</ele>
        <time>2020-10-03T08:29:14Z</time>
      </trkpt>
      <trkpt lat="42.76326" lon="1.46322">
        <ele>1330.12</ele>
        <time>2020-10-03T08:29:30Z</time>
      </trkpt>
      <trkpt lat="42.76324" lon="1.46314">
        <ele>1331.56</ele>
        <time>2020-10-03T08:29:45Z</time>
      </trkpt>
      <trkpt lat="42.7632" lon="1.46305">
        <ele>1334.45</ele>
        <time>2020-10-03T08:30:01Z</time>
      </trkpt>
      <trkpt lat="42.76317" lon="1.46295">
        <ele>1336.85</ele>
        <time>2020-10-03T08:30:17Z</time>
      </trkpt>
      <trkpt lat="42.76317" lon="1.46281">
        <ele>1339.73</ele>
        <time>2020-10-03T08:30:32Z</time>
      </trkpt>
      <trkpt lat="42.76315" lon="1.4627">
        <ele>1341.66</ele>
        <time>2020-10-03T08:30:45Z</time>
      </trkpt>
      <trkpt lat="42.76313" lon="1.46257">
        <ele>1344.06</ele>
        <time>2020-10-03T08:31:00Z</time>
      </trkpt>
      <trkpt lat="42.76311" lon="1.46242">
        <ele>1346.46</ele>
        <time>2020-10-03T08:31:16Z</time>
      </trkpt>
      <trkpt lat="42.76309" lon="1.46227">
        <ele>1347.43</ele>
        <time>2020-10-03T08:31:33Z</time>
      </trkpt>
      <trkpt lat="42.76309" lon="1.46214">
        <ele>1349.35</ele>
        <time>2020-10-03T08:31:48Z</time>
      </trkpt>
      <trkpt lat="42.76305" lon="1.46213">
        <ele>1352.23</ele>
        <time>2020-10-03T08:32:03Z</time>
      </trkpt>
      <trkpt lat="42.76305" lon="1.46204">
        <ele>1354.63</ele>
        <time>2020-10-03T08:32:19Z</time>
      </trkpt>
      <trkpt lat="42.76304" lon="1.46198">
        <ele>1356.56</ele>
        <time>2020-10-03T08:32:33Z</time>
      </trkpt>
      <trkpt lat="42.76303" lon="1.46178">
        <ele>1359.44</ele>
        <time>2020-10-03T08:32:51Z</time>
      </trkpt>
      <trkpt lat="42.76305" lon="1.46169">
        <ele>1361.84</ele>
        <time>2020-10-03T08:33:07Z</time>
      </trkpt>
      <trkpt lat="42.76303" lon="1.46163">
        <ele>1364.73</ele>
        <time>2020-10-03T08:33:19Z</time>
      </trkpt>
      <trkpt lat="42.76303" lon="1.46157">
        <ele>1365.69</ele>
        <time>2020-10-03T08:33:34Z</time>
      </trkpt>
      <trkpt lat="42.76302" lon="1.46156">
        <ele>1364.25</ele>
        <time>2020-10-03T08:33:49Z</time>
      </trkpt>
      <trkpt lat="42.76299" lon="1.46158">
        <ele>1364.25</ele>
        <time>2020-10-03T08:34:22Z</time>
      </trkpt>
      <trkpt lat="42.76296" lon="1.46162">
        <ele>1364.25</ele>
        <time>2020-10-03T08:35:01Z</time>
      </trkpt>
      <trkpt lat="42.76296" lon="1.46159">
        <ele>1360.88</ele>
        <time>2020-10-03T08:35:10Z</time>
      </trkpt>
      <trkpt lat="42.76297" lon="1.46158">
        <ele>1363.29</ele>
        <time>2020-10-03T08:35:11Z</time>
      </trkpt>
      <trkpt lat="42.76299" lon="1.46153">
        <ele>1364.73</ele>
        <time>2020-10-03T08:35:22Z</time>
      </trkpt>
      <trkpt lat="42.76299" lon="1.46151">
        <ele>1362.81</ele>
        <time>2020-10-03T08:35:29Z</time>
      </trkpt>
      <trkpt lat="42.763" lon="1.46151">
        <ele>1365.69</ele>
        <time>2020-10-03T08:35:31Z</time>
      </trkpt>
      <trkpt lat="42.76301" lon="1.4615">
        <ele>1364.25</ele>
        <time>2020-10-03T08:35:33Z</time>
      </trkpt>
      <trkpt lat="42.76301" lon="1.4615">
        <ele>1364.73</ele>
        <time>2020-10-03T08:35:38Z</time>
      </trkpt>
      <trkpt lat="42.763" lon="1.4615">
        <ele>1364.73</ele>
        <time>2020-10-03T08:35:44Z</time>
      </trkpt>
      <trkpt lat="42.76298" lon="1.46149">
        <ele>1363.29</ele>
        <time>2020-10-03T08:35:48Z</time>
      </trkpt>
      <trkpt lat="42.76297" lon="1.46149">
        <ele>1365.21</ele>
        <time>2020-10-03T08:35:50Z</time>
      </trkpt>
      <trkpt lat="42.76295" lon="1.4615">
        <ele>1364.25</ele>
        <time>2020-10-03T08:35:52Z</time>
      </trkpt>
      <trkpt lat="42.76295" lon="1.46152">
        <ele>1365.69</ele>
        <time>2020-10-03T08:36:00Z</time>
      </trkpt>
      <trkpt lat="42.76295" lon="1.46152">
        <ele>1362.33</ele>
        <time>2020-10-03T08:36:03Z</time>
      </trkpt>
      <trkpt lat="42.76295" lon="1.46153">
        <ele>1365.21</ele>
        <time>2020-10-03T08:36:05Z</time>
      </trkpt>
      <trkpt lat="42.76295" lon="1.46156">
        <ele>1364.73</ele>
        <time>2020-10-03T08:36:16Z</time>
      </trkpt>
      <trkpt lat="42.76297" lon="1.46153">
        <ele>1366.17</ele>
        <time>2020-10-03T08:36:29Z</time>
      </trkpt>
      <trkpt lat="42.76302" lon="1.46147">
        <ele>1367.61</ele>
        <time>2020-10-03T08:36:44Z</time>
      </trkpt>
      <trkpt lat="42.76304" lon="1.46145">
        <ele>1370.02</ele>
        <time>2020-10-03T08:36:59Z</time>
      </trkpt>
      <trkpt lat="42.76297" lon="1.46144">
        <ele>1372.42</ele>
        <time>2020-10-03T08:37:16Z</time>
      </trkpt>
      <trkpt lat="42.76288" lon="1.46152">
        <ele>1375.3</ele>
        <time>2020-10-03T08:37:33Z</time>
      </trkpt>
      <trkpt lat="42.76285" lon="1.46159">
        <ele>1377.23</ele>
        <time>2020-10-03T08:37:51Z</time>
      </trkpt>
      <trkpt lat="42.76278" lon="1.46158">
        <ele>1380.59</ele>
        <time>2020-10-03T08:38:07Z</time>
      </trkpt>
      <trkpt lat="42.76276" lon="1.46163">
        <ele>1382.51</ele>
        <time>2020-10-03T08:38:23Z</time>
      </trkpt>
      <trkpt lat="42.76273" lon="1.46169">
        <ele>1384.44</ele>
        <time>2020-10-03T08:38:36Z</time>
      </trkpt>
      <trkpt lat="42.76262" lon="1.4618">
        <ele>1387.32</ele>
        <time>2020-10-03T08:38:52Z</time>
      </trkpt>
      <trkpt lat="42.76255" lon="1.46185">
        <ele>1388.28</ele>
        <time>2020-10-03T08:39:04Z</time>
      </trkpt>
      <trkpt lat="42.76251" lon="1.46189">
        <ele>1390.2</ele>
        <time>2020-10-03T08:39:28Z</time>
      </trkpt>
      <trkpt lat="42.76247" lon="1.46198">
        <ele>1392.61</ele>
        <time>2020-10-03T08:39:43Z</time>
      </trkpt>
      <trkpt lat="42.76241" lon="1.46209">
        <ele>1395.49</ele>
        <time>2020-10-03T08:40:01Z</time>
      </trkpt>
      <trkpt lat="42.7624" lon="1.46227">
        <ele>1397.89</ele>
        <time>2020-10-03T08:40:18Z</time>
      </trkpt>
      <trkpt lat="42.76236" lon="1.46233">
        <ele>1399.82</ele>
        <time>2020-10-03T08:40:36Z</time>
      </trkpt>
      <trkpt lat="42.76232" lon="1.46242">
        <ele>1402.7</ele>
        <time>2020-10-03T08:40:50Z</time>
      </trkpt>
      <trkpt lat="42.76229" lon="1.46254">
        <ele>1405.58</ele>
        <time>2020-10-03T08:41:08Z</time>
      </trkpt>
      <trkpt lat="42.76226" lon="1.46266">
        <ele>1408.47</ele>
        <time>2020-10-03T08:41:25Z</time>
      </trkpt>
      <trkpt lat="42.76222" lon="1.46274">
        <ele>1409.91</ele>
        <time>2020-10-03T08:41:38Z</time>
      </trkpt>
      <trkpt lat="42.76215" lon="1.46283">
        <ele>1411.83</ele>
        <time>2020-10-03T08:41:54Z</time>
      </trkpt>
      <trkpt lat="42.7621" lon="1.46296">
        <ele>1413.76</ele>
        <time>2020-10-03T08:42:11Z</time>
      </trkpt>
      <trkpt lat="42.76207" lon="1.46304">
        <ele>1415.68</ele>
        <time>2020-10-03T08:42:27Z</time>
      </trkpt>
      <trkpt lat="42.76206" lon="1.46305">
        <ele>1415.68</ele>
        <time>2020-10-03T08:42:51Z</time>
      </trkpt>
      <trkpt lat="42.76208" lon="1.46304">
        <ele>1415.68</ele>
        <time>2020-10-03T08:43:17Z</time>
      </trkpt>
      <trkpt lat="42.76211" lon="1.46306">
        <ele>1415.68</ele>
        <time>2020-10-03T08:43:39Z</time>
      </trkpt>
      <trkpt lat="42.76206" lon="1.46312">
        <ele>1415.68</ele>
        <time>2020-10-03T08:44:08Z</time>
      </trkpt>
      <trkpt lat="42.76208" lon="1.46298">
        <ele>1415.68</ele>
        <time>2020-10-03T08:44:35Z</time>
      </trkpt>
      <trkpt lat="42.76206" lon="1.46298">
        <ele>1414.72</ele>
        <time>2020-10-03T08:45:12Z</time>
      </trkpt>
      <trkpt lat="42.76205" lon="1.46306">
        <ele>1416.16</ele>
        <time>2020-10-03T08:45:17Z</time>
      </trkpt>
      <trkpt lat="42.762" lon="1.46315">
        <ele>1418.56</ele>
        <time>2020-10-03T08:45:33Z</time>
      </trkpt>
      <trkpt lat="42.76199" lon="1.46328">
        <ele>1420.97</ele>
        <time>2020-10-03T08:45:49Z</time>
      </trkpt>
      <trkpt lat="42.76193" lon="1.46339">
        <ele>1424.33</ele>
        <time>2020-10-03T08:46:05Z</time>
      </trkpt>
      <trkpt lat="42.76188" lon="1.46348">
        <ele>1426.73</ele>
        <time>2020-10-03T08:46:21Z</time>
      </trkpt>
      <trkpt lat="42.76183" lon="1.46358">
        <ele>1428.66</ele>
        <time>2020-10-03T08:46:37Z</time>
      </trkpt>
      <trkpt lat="42.76174" lon="1.46367">
        <ele>1431.54</ele>
        <time>2020-10-03T08:46:54Z</time>
      </trkpt>
      <trkpt lat="42.7617" lon="1.46378">
        <ele>1433.46</ele>
        <time>2020-10-03T08:47:09Z</time>
      </trkpt>
      <trkpt lat="42.76171" lon="1.46381">
        <ele>1436.83</ele>
        <time>2020-10-03T08:47:26Z</time>
      </trkpt>
      <trkpt lat="42.76174" lon="1.46374">
        <ele>1438.27</ele>
        <time>2020-10-03T08:47:43Z</time>
      </trkpt>
      <trkpt lat="42.76165" lon="1.46372">
        <ele>1441.15</ele>
        <time>2020-10-03T08:48:02Z</time>
      </trkpt>
      <trkpt lat="42.76156" lon="1.46376">
        <ele>1442.6</ele>
        <time>2020-10-03T08:48:20Z</time>
      </trkpt>
      <trkpt lat="42.7615" lon="1.46379">
        <ele>1445</ele>
        <time>2020-10-03T08:48:36Z</time>
      </trkpt>
      <trkpt lat="42.76148" lon="1.46384">
        <ele>1446.44</ele>
        <time>2020-10-03T08:48:50Z</time>
      </trkpt>
      <trkpt lat="42.76148" lon="1.46388">
        <ele>1446.92</ele>
        <time>2020-10-03T08:49:16Z</time>
      </trkpt>
      <trkpt lat="42.76141" lon="1.46389">
        <ele>1448.36</ele>
        <time>2020-10-03T08:49:31Z</time>
      </trkpt>
      <trkpt lat="42.76136" lon="1.46386">
        <ele>1450.77</ele>
        <time>2020-10-03T08:49:45Z</time>
      </trkpt>
      <trkpt lat="42.76125" lon="1.46381">
        <ele>1453.17</ele>
        <time>2020-10-03T08:50:03Z</time>
      </trkpt>
      <trkpt lat="42.76117" lon="1.46375">
        <ele>1456.53</ele>
        <time>2020-10-03T08:50:17Z</time>
      </trkpt>
      <trkpt lat="42.76112" lon="1.46374">
        <ele>1457.98</ele>
        <time>2020-10-03T08:50:35Z</time>
      </trkpt>
      <trkpt lat="42.76108" lon="1.46376">
        <ele>1459.42</ele>
        <time>2020-10-03T08:50:47Z</time>
      </trkpt>
      <trkpt lat="42.76099" lon="1.46377">
        <ele>1461.82</ele>
        <time>2020-10-03T08:50:59Z</time>
      </trkpt>
      <trkpt lat="42.76098" lon="1.46377">
        <ele>1462.78</ele>
        <time>2020-10-03T08:51:15Z</time>
      </trkpt>
      <trkpt lat="42.76096" lon="1.46378">
        <ele>1462.3</ele>
        <time>2020-10-03T08:51:44Z</time>
      </trkpt>
      <trkpt lat="42.76096" lon="1.4638">
        <ele>1462.3</ele>
        <time>2020-10-03T08:52:07Z</time>
      </trkpt>
      <trkpt lat="42.761" lon="1.46376">
        <ele>1462.3</ele>
        <time>2020-10-03T08:52:30Z</time>
      </trkpt>
      <trkpt lat="42.76102" lon="1.46373">
        <ele>1463.26</ele>
        <time>2020-10-03T08:52:50Z</time>
      </trkpt>
      <trkpt lat="42.76103" lon="1.46369">
        <ele>1465.67</ele>
        <time>2020-10-03T08:52:59Z</time>
      </trkpt>
      <trkpt lat="42.76105" lon="1.46361">
        <ele>1467.59</ele>
        <time>2020-10-03T08:53:15Z</time>
      </trkpt>
      <trkpt lat="42.76109" lon="1.46354">
        <ele>1469.99</ele>
        <time>2020-10-03T08:53:30Z</time>
      </trkpt>
      <trkpt lat="42.76112" lon="1.46351">
        <ele>1472.4</ele>
        <time>2020-10-03T08:53:45Z</time>
      </trkpt>
      <trkpt lat="42.76116" lon="1.46341">
        <ele>1474.32</ele>
        <time>2020-10-03T08:53:59Z</time>
      </trkpt>
      <trkpt lat="42.76121" lon="1.4633">
        <ele>1476.72</ele>
        <time>2020-10-03T08:54:15Z</time>
      </trkpt>
      <trkpt lat="42.76125" lon="1.46319">
        <ele>1479.13</ele>
        <time>2020-10-03T08:54:33Z</time>
      </trkpt>
      <trkpt lat="42.7613" lon="1.46308">
        <ele>1479.13</ele>
        <time>2020-10-03T08:54:51Z</time>
      </trkpt>
      <trkpt lat="42.76129" lon="1.46304">
        <ele>1482.97</ele>
        <time>2020-10-03T08:55:00Z</time>
      </trkpt>
      <trkpt lat="42.76129" lon="1.46303">
        <ele>1482.97</ele>
        <time>2020-10-03T08:55:01Z</time>
      </trkpt>
      <trkpt lat="42.7613" lon="1.46293">
        <ele>1484.41</ele>
        <time>2020-10-03T08:55:20Z</time>
      </trkpt>
      <trkpt lat="42.76128" lon="1.46281">
        <ele>1487.78</ele>
        <time>2020-10-03T08:55:40Z</time>
      </trkpt>
      <trkpt lat="42.76129" lon="1.46275">
        <ele>1489.7</ele>
        <time>2020-10-03T08:55:55Z</time>
      </trkpt>
      <trkpt lat="42.7613" lon="1.4626">
        <ele>1492.1</ele>
        <time>2020-10-03T08:56:11Z</time>
      </trkpt>
      <trkpt lat="42.7613" lon="1.46249">
        <ele>1496.43</ele>
        <time>2020-10-03T08:56:28Z</time>
      </trkpt>
      <trkpt lat="42.7613" lon="1.46249">
        <ele>1496.43</ele>
        <time>2020-10-03T08:56:29Z</time>
      </trkpt>
      <trkpt lat="42.7613" lon="1.46236">
        <ele>1496.91</ele>
        <time>2020-10-03T08:56:42Z</time>
      </trkpt>
      <trkpt lat="42.76125" lon="1.46226">
        <ele>1499.79</ele>
        <time>2020-10-03T08:56:57Z</time>
      </trkpt>
      <trkpt lat="42.76121" lon="1.46213">
        <ele>1501.72</ele>
        <time>2020-10-03T08:57:10Z</time>
      </trkpt>
      <trkpt lat="42.76117" lon="1.46195">
        <ele>1503.16</ele>
        <time>2020-10-03T08:57:28Z</time>
      </trkpt>
      <trkpt lat="42.76116" lon="1.46181">
        <ele>1505.08</ele>
        <time>2020-10-03T08:57:43Z</time>
      </trkpt>
      <trkpt lat="42.76117" lon="1.46166">
        <ele>1507.48</ele>
        <time>2020-10-03T08:58:00Z</time>
      </trkpt>
      <trkpt lat="42.76116" lon="1.46148">
        <ele>1510.37</ele>
        <time>2020-10-03T08:58:17Z</time>
      </trkpt>
      <trkpt lat="42.76108" lon="1.46137">
        <ele>1513.73</ele>
        <time>2020-10-03T08:58:33Z</time>
      </trkpt>
      <trkpt lat="42.76103" lon="1.4613">
        <ele>1516.62</ele>
        <time>2020-10-03T08:58:51Z</time>
      </trkpt>
      <trkpt lat="42.76097" lon="1.46124">
        <ele>1519.02</ele>
        <time>2020-10-03T08:59:08Z</time>
      </trkpt>
      <trkpt lat="42.76092" lon="1.46131">
        <ele>1521.9</ele>
        <time>2020-10-03T08:59:26Z</time>
      </trkpt>
      <trkpt lat="42.76089" lon="1.46147">
        <ele>1525.27</ele>
        <time>2020-10-03T08:59:42Z</time>
      </trkpt>
      <trkpt lat="42.76086" lon="1.4616">
        <ele>1527.67</ele>
        <time>2020-10-03T08:59:59Z</time>
      </trkpt>
      <trkpt lat="42.76081" lon="1.46168">
        <ele>1530.56</ele>
        <time>2020-10-03T09:00:14Z</time>
      </trkpt>
      <trkpt lat="42.76079" lon="1.46181">
        <ele>1532.48</ele>
        <time>2020-10-03T09:00:32Z</time>
      </trkpt>
      <trkpt lat="42.76073" lon="1.4619">
        <ele>1535.84</ele>
        <time>2020-10-03T09:00:49Z</time>
      </trkpt>
      <trkpt lat="42.76074" lon="1.46193">
        <ele>1534.4</ele>
        <time>2020-10-03T09:01:04Z</time>
      </trkpt>
      <trkpt lat="42.76077" lon="1.46192">
        <ele>1534.4</ele>
        <time>2020-10-03T09:01:34Z</time>
      </trkpt>
      <trkpt lat="42.76066" lon="1.46198">
        <ele>1534.88</ele>
        <time>2020-10-03T09:02:09Z</time>
      </trkpt>
      <trkpt lat="42.7607" lon="1.46198">
        <ele>1534.88</ele>
        <time>2020-10-03T09:02:44Z</time>
      </trkpt>
      <trkpt lat="42.7607" lon="1.46195">
        <ele>1534.4</ele>
        <time>2020-10-03T09:03:11Z</time>
      </trkpt>
      <trkpt lat="42.7607" lon="1.46195">
        <ele>1530.08</ele>
        <time>2020-10-03T09:03:24Z</time>
      </trkpt>
      <trkpt lat="42.7607" lon="1.46195">
        <ele>1521.9</ele>
        <time>2020-10-03T09:03:25Z</time>
      </trkpt>
      <trkpt lat="42.7607" lon="1.46195">
        <ele>1537.29</ele>
        <time>2020-10-03T09:03:26Z</time>
      </trkpt>
      <trkpt lat="42.7607" lon="1.46195">
        <ele>1545.46</ele>
        <time>2020-10-03T09:03:27Z</time>
      </trkpt>
      <trkpt lat="42.76069" lon="1.46195">
        <ele>1537.29</ele>
        <time>2020-10-03T09:03:28Z</time>
      </trkpt>
      <trkpt lat="42.76063" lon="1.46189">
        <ele>1534.4</ele>
        <time>2020-10-03T09:04:06Z</time>
      </trkpt>
      <trkpt lat="42.76066" lon="1.46194">
        <ele>1534.4</ele>
        <time>2020-10-03T09:04:19Z</time>
      </trkpt>
      <trkpt lat="42.76069" lon="1.46197">
        <ele>1533.44</ele>
        <time>2020-10-03T09:04:43Z</time>
      </trkpt>
      <trkpt lat="42.7607" lon="1.46197">
        <ele>1536.8</ele>
        <time>2020-10-03T09:04:48Z</time>
      </trkpt>
      <trkpt lat="42.76072" lon="1.46195">
        <ele>1534.4</ele>
        <time>2020-10-03T09:05:07Z</time>
      </trkpt>
      <trkpt lat="42.76073" lon="1.46191">
        <ele>1533.92</ele>
        <time>2020-10-03T09:05:40Z</time>
      </trkpt>
      <trkpt lat="42.76069" lon="1.4619">
        <ele>1533.92</ele>
        <time>2020-10-03T09:06:22Z</time>
      </trkpt>
      <trkpt lat="42.7607" lon="1.46187">
        <ele>1533.92</ele>
        <time>2020-10-03T09:07:05Z</time>
      </trkpt>
      <trkpt lat="42.76076" lon="1.46187">
        <ele>1533.92</ele>
        <time>2020-10-03T09:07:45Z</time>
      </trkpt>
      <trkpt lat="42.7608" lon="1.46192">
        <ele>1534.4</ele>
        <time>2020-10-03T09:08:24Z</time>
      </trkpt>
      <trkpt lat="42.76071" lon="1.46192">
        <ele>1535.36</ele>
        <time>2020-10-03T09:08:48Z</time>
      </trkpt>
      <trkpt lat="42.76073" lon="1.46193">
        <ele>1535.36</ele>
        <time>2020-10-03T09:09:08Z</time>
      </trkpt>
      <trkpt lat="42.7607" lon="1.46192">
        <ele>1535.84</ele>
        <time>2020-10-03T09:09:38Z</time>
      </trkpt>
      <trkpt lat="42.76067" lon="1.46191">
        <ele>1533.92</ele>
        <time>2020-10-03T09:09:40Z</time>
      </trkpt>
      <trkpt lat="42.7606" lon="1.46188">
        <ele>1534.88</ele>
        <time>2020-10-03T09:09:56Z</time>
      </trkpt>
      <trkpt lat="42.76063" lon="1.4619">
        <ele>1534.88</ele>
        <time>2020-10-03T09:10:30Z</time>
      </trkpt>
      <trkpt lat="42.76061" lon="1.4619">
        <ele>1530.08</ele>
        <time>2020-10-03T09:10:46Z</time>
      </trkpt>
      <trkpt lat="42.76061" lon="1.4619">
        <ele>1533.92</ele>
        <time>2020-10-03T09:10:49Z</time>
      </trkpt>
      <trkpt lat="42.76061" lon="1.46188">
        <ele>1538.73</ele>
        <time>2020-10-03T09:11:08Z</time>
      </trkpt>
      <trkpt lat="42.76061" lon="1.46188">
        <ele>1533.44</ele>
        <time>2020-10-03T09:11:09Z</time>
      </trkpt>
      <trkpt lat="42.76061" lon="1.46189">
        <ele>1535.84</ele>
        <time>2020-10-03T09:11:18Z</time>
      </trkpt>
      <trkpt lat="42.7606" lon="1.46189">
        <ele>1533.92</ele>
        <time>2020-10-03T09:11:21Z</time>
      </trkpt>
      <trkpt lat="42.76062" lon="1.46197">
        <ele>1534.4</ele>
        <time>2020-10-03T09:11:53Z</time>
      </trkpt>
      <trkpt lat="42.76062" lon="1.46198">
        <ele>1531.52</ele>
        <time>2020-10-03T09:11:56Z</time>
      </trkpt>
      <trkpt lat="42.76062" lon="1.46198">
        <ele>1534.88</ele>
        <time>2020-10-03T09:11:57Z</time>
      </trkpt>
      <trkpt lat="42.76062" lon="1.46199">
        <ele>1534.88</ele>
        <time>2020-10-03T09:11:58Z</time>
      </trkpt>
      <trkpt lat="42.76064" lon="1.46199">
        <ele>1535.36</ele>
        <time>2020-10-03T09:12:11Z</time>
      </trkpt>
      <trkpt lat="42.76067" lon="1.46203">
        <ele>1533.92</ele>
        <time>2020-10-03T09:12:40Z</time>
      </trkpt>
      <trkpt lat="42.76063" lon="1.46194">
        <ele>1533.92</ele>
        <time>2020-10-03T09:13:12Z</time>
      </trkpt>
      <trkpt lat="42.76063" lon="1.46193">
        <ele>1533.92</ele>
        <time>2020-10-03T09:13:36Z</time>
      </trkpt>
      <trkpt lat="42.76063" lon="1.46198">
        <ele>1535.36</ele>
        <time>2020-10-03T09:13:54Z</time>
      </trkpt>
      <trkpt lat="42.76065" lon="1.46206">
        <ele>1536.8</ele>
        <time>2020-10-03T09:14:18Z</time>
      </trkpt>
      <trkpt lat="42.76062" lon="1.46214">
        <ele>1540.17</ele>
        <time>2020-10-03T09:14:31Z</time>
      </trkpt>
      <trkpt lat="42.76058" lon="1.46213">
        <ele>1543.53</ele>
        <time>2020-10-03T09:14:46Z</time>
      </trkpt>
      <trkpt lat="42.76059" lon="1.46204">
        <ele>1545.46</ele>
        <time>2020-10-03T09:15:02Z</time>
      </trkpt>
      <trkpt lat="42.76058" lon="1.46192">
        <ele>1548.34</ele>
        <time>2020-10-03T09:15:15Z</time>
      </trkpt>
      <trkpt lat="42.76057" lon="1.46184">
        <ele>1549.3</ele>
        <time>2020-10-03T09:15:27Z</time>
      </trkpt>
      <trkpt lat="42.76056" lon="1.46179">
        <ele>1549.78</ele>
        <time>2020-10-03T09:15:32Z</time>
      </trkpt>
      <trkpt lat="42.76054" lon="1.46166">
        <ele>1552.19</ele>
        <time>2020-10-03T09:15:46Z</time>
      </trkpt>
      <trkpt lat="42.76049" lon="1.46158">
        <ele>1553.15</ele>
        <time>2020-10-03T09:16:01Z</time>
      </trkpt>
      <trkpt lat="42.76051" lon="1.46151">
        <ele>1554.59</ele>
        <time>2020-10-03T09:16:18Z</time>
      </trkpt>
      <trkpt lat="42.76052" lon="1.46139">
        <ele>1556.99</ele>
        <time>2020-10-03T09:16:32Z</time>
      </trkpt>
      <trkpt lat="42.76052" lon="1.46133">
        <ele>1559.4</ele>
        <time>2020-10-03T09:16:42Z</time>
      </trkpt>
      <trkpt lat="42.76049" lon="1.46127">
        <ele>1561.8</ele>
        <time>2020-10-03T09:16:58Z</time>
      </trkpt>
      <trkpt lat="42.76044" lon="1.46123">
        <ele>1561.8</ele>
        <time>2020-10-03T09:17:24Z</time>
      </trkpt>
      <trkpt lat="42.76048" lon="1.46116">
        <ele>1562.76</ele>
        <time>2020-10-03T09:17:45Z</time>
      </trkpt>
      <trkpt lat="42.76049" lon="1.46115">
        <ele>1564.2</ele>
        <time>2020-10-03T09:17:58Z</time>
      </trkpt>
      <trkpt lat="42.76038" lon="1.4612">
        <ele>1566.61</ele>
        <time>2020-10-03T09:18:14Z</time>
      </trkpt>
      <trkpt lat="42.76027" lon="1.46126">
        <ele>1569.97</ele>
        <time>2020-10-03T09:18:31Z</time>
      </trkpt>
      <trkpt lat="42.76023" lon="1.46131">
        <ele>1572.37</ele>
        <time>2020-10-03T09:18:45Z</time>
      </trkpt>
      <trkpt lat="42.76016" lon="1.46139">
        <ele>1573.82</ele>
        <time>2020-10-03T09:19:02Z</time>
      </trkpt>
      <trkpt lat="42.76007" lon="1.4615">
        <ele>1576.22</ele>
        <time>2020-10-03T09:19:20Z</time>
      </trkpt>
      <trkpt lat="42.76008" lon="1.46153">
        <ele>1579.1</ele>
        <time>2020-10-03T09:19:35Z</time>
      </trkpt>
      <trkpt lat="42.76006" lon="1.46144">
        <ele>1581.99</ele>
        <time>2020-10-03T09:19:52Z</time>
      </trkpt>
      <trkpt lat="42.75998" lon="1.46146">
        <ele>1583.91</ele>
        <time>2020-10-03T09:20:09Z</time>
      </trkpt>
      <trkpt lat="42.75988" lon="1.46148">
        <ele>1586.31</ele>
        <time>2020-10-03T09:20:25Z</time>
      </trkpt>
      <trkpt lat="42.75974" lon="1.46147">
        <ele>1587.75</ele>
        <time>2020-10-03T09:20:44Z</time>
      </trkpt>
      <trkpt lat="42.75962" lon="1.4614">
        <ele>1588.24</ele>
        <time>2020-10-03T09:21:01Z</time>
      </trkpt>
      <trkpt lat="42.75958" lon="1.46133">
        <ele>1589.68</ele>
        <time>2020-10-03T09:21:17Z</time>
      </trkpt>
      <trkpt lat="42.7595" lon="1.46132">
        <ele>1587.75</ele>
        <time>2020-10-03T09:21:34Z</time>
      </trkpt>
      <trkpt lat="42.75941" lon="1.46125">
        <ele>1587.75</ele>
        <time>2020-10-03T09:21:50Z</time>
      </trkpt>
      <trkpt lat="42.7594" lon="1.46124">
        <ele>1589.2</ele>
        <time>2020-10-03T09:21:52Z</time>
      </trkpt>
      <trkpt lat="42.75933" lon="1.46118">
        <ele>1591.6</ele>
        <time>2020-10-03T09:22:09Z</time>
      </trkpt>
      <trkpt lat="42.75925" lon="1.46111">
        <ele>1593.04</ele>
        <time>2020-10-03T09:22:26Z</time>
      </trkpt>
      <trkpt lat="42.75921" lon="1.46105">
        <ele>1594.96</ele>
        <time>2020-10-03T09:22:42Z</time>
      </trkpt>
      <trkpt lat="42.75913" lon="1.46098">
        <ele>1597.37</ele>
        <time>2020-10-03T09:22:57Z</time>
      </trkpt>
      <trkpt lat="42.75909" lon="1.46088">
        <ele>1599.29</ele>
        <time>2020-10-03T09:23:12Z</time>
      </trkpt>
      <trkpt lat="42.75905" lon="1.46078">
        <ele>1602.17</ele>
        <time>2020-10-03T09:23:29Z</time>
      </trkpt>
      <trkpt lat="42.75901" lon="1.46068">
        <ele>1603.62</ele>
        <time>2020-10-03T09:23:45Z</time>
      </trkpt>
      <trkpt lat="42.75899" lon="1.46059">
        <ele>1604.58</ele>
        <time>2020-10-03T09:23:56Z</time>
      </trkpt>
      <trkpt lat="42.75896" lon="1.46047">
        <ele>1606.98</ele>
        <time>2020-10-03T09:24:10Z</time>
      </trkpt>
      <trkpt lat="42.75895" lon="1.46038">
        <ele>1608.9</ele>
        <time>2020-10-03T09:24:26Z</time>
      </trkpt>
      <trkpt lat="42.7589" lon="1.4603">
        <ele>1609.38</ele>
        <time>2020-10-03T09:24:39Z</time>
      </trkpt>
      <trkpt lat="42.75882" lon="1.46018">
        <ele>1607.94</ele>
        <time>2020-10-03T09:24:53Z</time>
      </trkpt>
      <trkpt lat="42.75881" lon="1.46013">
        <ele>1609.38</ele>
        <time>2020-10-03T09:25:02Z</time>
      </trkpt>
      <trkpt lat="42.75875" lon="1.46006">
        <ele>1610.83</ele>
        <time>2020-10-03T09:25:16Z</time>
      </trkpt>
      <trkpt lat="42.7587" lon="1.45994">
        <ele>1613.23</ele>
        <time>2020-10-03T09:25:31Z</time>
      </trkpt>
      <trkpt lat="42.75864" lon="1.45989">
        <ele>1614.67</ele>
        <time>2020-10-03T09:25:46Z</time>
      </trkpt>
      <trkpt lat="42.7586" lon="1.45984">
        <ele>1617.07</ele>
        <time>2020-10-03T09:26:03Z</time>
      </trkpt>
      <trkpt lat="42.75852" lon="1.45977">
        <ele>1618.52</ele>
        <time>2020-10-03T09:26:19Z</time>
      </trkpt>
      <trkpt lat="42.75847" lon="1.45969">
        <ele>1620.44</ele>
        <time>2020-10-03T09:26:37Z</time>
      </trkpt>
      <trkpt lat="42.75839" lon="1.45963">
        <ele>1622.36</ele>
        <time>2020-10-03T09:26:51Z</time>
      </trkpt>
      <trkpt lat="42.75833" lon="1.45957">
        <ele>1622.84</ele>
        <time>2020-10-03T09:27:03Z</time>
      </trkpt>
      <trkpt lat="42.75829" lon="1.45948">
        <ele>1625.25</ele>
        <time>2020-10-03T09:27:19Z</time>
      </trkpt>
      <trkpt lat="42.75826" lon="1.45945">
        <ele>1627.17</ele>
        <time>2020-10-03T09:27:32Z</time>
      </trkpt>
      <trkpt lat="42.75824" lon="1.45939">
        <ele>1629.57</ele>
        <time>2020-10-03T09:27:48Z</time>
      </trkpt>
      <trkpt lat="42.75822" lon="1.45932">
        <ele>1632.46</ele>
        <time>2020-10-03T09:28:03Z</time>
      </trkpt>
      <trkpt lat="42.75826" lon="1.45934">
        <ele>1634.86</ele>
        <time>2020-10-03T09:28:20Z</time>
      </trkpt>
      <trkpt lat="42.75828" lon="1.45933">
        <ele>1635.82</ele>
        <time>2020-10-03T09:28:32Z</time>
      </trkpt>
      <trkpt lat="42.75831" lon="1.45934">
        <ele>1637.26</ele>
        <time>2020-10-03T09:28:42Z</time>
      </trkpt>
      <trkpt lat="42.75834" lon="1.45925">
        <ele>1639.67</ele>
        <time>2020-10-03T09:28:56Z</time>
      </trkpt>
      <trkpt lat="42.75831" lon="1.45922">
        <ele>1641.59</ele>
        <time>2020-10-03T09:29:13Z</time>
      </trkpt>
      <trkpt lat="42.75832" lon="1.45918">
        <ele>1643.99</ele>
        <time>2020-10-03T09:29:29Z</time>
      </trkpt>
      <trkpt lat="42.75832" lon="1.45916">
        <ele>1644.95</ele>
        <time>2020-10-03T09:29:46Z</time>
      </trkpt>
      <trkpt lat="42.75833" lon="1.4591">
        <ele>1647.84</ele>
        <time>2020-10-03T09:30:00Z</time>
      </trkpt>
      <trkpt lat="42.75835" lon="1.45902">
        <ele>1650.24</ele>
        <time>2020-10-03T09:30:14Z</time>
      </trkpt>
      <trkpt lat="42.75836" lon="1.45899">
        <ele>1651.68</ele>
        <time>2020-10-03T09:30:30Z</time>
      </trkpt>
      <trkpt lat="42.75835" lon="1.45892">
        <ele>1653.12</ele>
        <time>2020-10-03T09:30:50Z</time>
      </trkpt>
      <trkpt lat="42.75833" lon="1.45884">
        <ele>1655.05</ele>
        <time>2020-10-03T09:31:06Z</time>
      </trkpt>
      <trkpt lat="42.7583" lon="1.45885">
        <ele>1655.05</ele>
        <time>2020-10-03T09:31:26Z</time>
      </trkpt>
      <trkpt lat="42.75833" lon="1.45884">
        <ele>1655.05</ele>
        <time>2020-10-03T09:31:49Z</time>
      </trkpt>
      <trkpt lat="42.75829" lon="1.45883">
        <ele>1656.01</ele>
        <time>2020-10-03T09:32:09Z</time>
      </trkpt>
      <trkpt lat="42.75829" lon="1.45883">
        <ele>1654.57</ele>
        <time>2020-10-03T09:32:18Z</time>
      </trkpt>
      <trkpt lat="42.75829" lon="1.45882">
        <ele>1656.01</ele>
        <time>2020-10-03T09:32:20Z</time>
      </trkpt>
      <trkpt lat="42.75829" lon="1.45882">
        <ele>1655.05</ele>
        <time>2020-10-03T09:32:22Z</time>
      </trkpt>
      <trkpt lat="42.7583" lon="1.45878">
        <ele>1655.53</ele>
        <time>2020-10-03T09:32:37Z</time>
      </trkpt>
      <trkpt lat="42.7583" lon="1.45873">
        <ele>1658.89</ele>
        <time>2020-10-03T09:32:50Z</time>
      </trkpt>
      <trkpt lat="42.75832" lon="1.45867">
        <ele>1661.3</ele>
        <time>2020-10-03T09:33:06Z</time>
      </trkpt>
      <trkpt lat="42.75834" lon="1.45862">
        <ele>1663.7</ele>
        <time>2020-10-03T09:33:21Z</time>
      </trkpt>
      <trkpt lat="42.75836" lon="1.4586">
        <ele>1664.18</ele>
        <time>2020-10-03T09:33:44Z</time>
      </trkpt>
      <trkpt lat="42.75838" lon="1.45854">
        <ele>1666.1</ele>
        <time>2020-10-03T09:34:00Z</time>
      </trkpt>
      <trkpt lat="42.75838" lon="1.45844">
        <ele>1668.99</ele>
        <time>2020-10-03T09:34:18Z</time>
      </trkpt>
      <trkpt lat="42.75837" lon="1.45835">
        <ele>1672.35</ele>
        <time>2020-10-03T09:34:35Z</time>
      </trkpt>
      <trkpt lat="42.75837" lon="1.45829">
        <ele>1673.79</ele>
        <time>2020-10-03T09:34:52Z</time>
      </trkpt>
      <trkpt lat="42.75836" lon="1.45822">
        <ele>1675.72</ele>
        <time>2020-10-03T09:35:08Z</time>
      </trkpt>
      <trkpt lat="42.75835" lon="1.45816">
        <ele>1677.64</ele>
        <time>2020-10-03T09:35:24Z</time>
      </trkpt>
      <trkpt lat="42.75835" lon="1.45811">
        <ele>1679.08</ele>
        <time>2020-10-03T09:35:37Z</time>
      </trkpt>
      <trkpt lat="42.75832" lon="1.45807">
        <ele>1680.52</ele>
        <time>2020-10-03T09:35:54Z</time>
      </trkpt>
      <trkpt lat="42.75833" lon="1.45796">
        <ele>1681.96</ele>
        <time>2020-10-03T09:36:10Z</time>
      </trkpt>
      <trkpt lat="42.75833" lon="1.45798">
        <ele>1682.44</ele>
        <time>2020-10-03T09:36:27Z</time>
      </trkpt>
      <trkpt lat="42.75833" lon="1.45798">
        <ele>1681.48</ele>
        <time>2020-10-03T09:36:33Z</time>
      </trkpt>
      <trkpt lat="42.75833" lon="1.45795">
        <ele>1681.48</ele>
        <time>2020-10-03T09:36:58Z</time>
      </trkpt>
      <trkpt lat="42.75834" lon="1.45794">
        <ele>1681.48</ele>
        <time>2020-10-03T09:37:34Z</time>
      </trkpt>
      <trkpt lat="42.75836" lon="1.45792">
        <ele>1681.48</ele>
        <time>2020-10-03T09:38:05Z</time>
      </trkpt>
      <trkpt lat="42.75835" lon="1.45793">
        <ele>1681</ele>
        <time>2020-10-03T09:38:38Z</time>
      </trkpt>
      <trkpt lat="42.75835" lon="1.45793">
        <ele>1681</ele>
        <time>2020-10-03T09:39:06Z</time>
      </trkpt>
      <trkpt lat="42.75834" lon="1.45792">
        <ele>1681</ele>
        <time>2020-10-03T09:39:33Z</time>
      </trkpt>
      <trkpt lat="42.75833" lon="1.45794">
        <ele>1682.44</ele>
        <time>2020-10-03T09:39:38Z</time>
      </trkpt>
      <trkpt lat="42.75832" lon="1.45794">
        <ele>1682.44</ele>
        <time>2020-10-03T09:39:55Z</time>
      </trkpt>
      <trkpt lat="42.75832" lon="1.45795">
        <ele>1681</ele>
        <time>2020-10-03T09:40:10Z</time>
      </trkpt>
      <trkpt lat="42.7583" lon="1.45796">
        <ele>1681</ele>
        <time>2020-10-03T09:40:43Z</time>
      </trkpt>
      <trkpt lat="42.7583" lon="1.45796">
        <ele>1680.04</ele>
        <time>2020-10-03T09:40:57Z</time>
      </trkpt>
      <trkpt lat="42.7583" lon="1.45797">
        <ele>1682.93</ele>
        <time>2020-10-03T09:40:58Z</time>
      </trkpt>
      <trkpt lat="42.75832" lon="1.45792">
        <ele>1682.44</ele>
        <time>2020-10-03T09:41:15Z</time>
      </trkpt>
      <trkpt lat="42.75829" lon="1.4579">
        <ele>1683.41</ele>
        <time>2020-10-03T09:41:22Z</time>
      </trkpt>
      <trkpt lat="42.75824" lon="1.45786">
        <ele>1685.33</ele>
        <time>2020-10-03T09:41:30Z</time>
      </trkpt>
      <trkpt lat="42.75826" lon="1.45777">
        <ele>1686.29</ele>
        <time>2020-10-03T09:41:44Z</time>
      </trkpt>
      <trkpt lat="42.75827" lon="1.4577">
        <ele>1686.77</ele>
        <time>2020-10-03T09:42:02Z</time>
      </trkpt>
      <trkpt lat="42.75824" lon="1.45765">
        <ele>1688.21</ele>
        <time>2020-10-03T09:42:13Z</time>
      </trkpt>
      <trkpt lat="42.75823" lon="1.45757">
        <ele>1689.17</ele>
        <time>2020-10-03T09:42:29Z</time>
      </trkpt>
      <trkpt lat="42.75824" lon="1.45749">
        <ele>1691.1</ele>
        <time>2020-10-03T09:42:45Z</time>
      </trkpt>
      <trkpt lat="42.75826" lon="1.45741">
        <ele>1693.5</ele>
        <time>2020-10-03T09:43:01Z</time>
      </trkpt>
      <trkpt lat="42.75826" lon="1.45732">
        <ele>1695.9</ele>
        <time>2020-10-03T09:43:17Z</time>
      </trkpt>
      <trkpt lat="42.75828" lon="1.45731">
        <ele>1697.34</ele>
        <time>2020-10-03T09:43:32Z</time>
      </trkpt>
      <trkpt lat="42.75832" lon="1.45727">
        <ele>1699.27</ele>
        <time>2020-10-03T09:43:46Z</time>
      </trkpt>
      <trkpt lat="42.75834" lon="1.45721">
        <ele>1701.19</ele>
        <time>2020-10-03T09:44:02Z</time>
      </trkpt>
      <trkpt lat="42.75834" lon="1.45719">
        <ele>1703.11</ele>
        <time>2020-10-03T09:44:17Z</time>
      </trkpt>
      <trkpt lat="42.75835" lon="1.45713">
        <ele>1705.04</ele>
        <time>2020-10-03T09:44:33Z</time>
      </trkpt>
      <trkpt lat="42.75837" lon="1.4571">
        <ele>1706.48</ele>
        <time>2020-10-03T09:44:51Z</time>
      </trkpt>
      <trkpt lat="42.75838" lon="1.45708">
        <ele>1708.4</ele>
        <time>2020-10-03T09:45:07Z</time>
      </trkpt>
      <trkpt lat="42.75836" lon="1.45702">
        <ele>1709.84</ele>
        <time>2020-10-03T09:45:22Z</time>
      </trkpt>
      <trkpt lat="42.75832" lon="1.45699">
        <ele>1711.28</ele>
        <time>2020-10-03T09:45:40Z</time>
      </trkpt>
      <trkpt lat="42.75831" lon="1.45699">
        <ele>1711.76</ele>
        <time>2020-10-03T09:45:57Z</time>
      </trkpt>
      <trkpt lat="42.7583" lon="1.45698">
        <ele>1711.76</ele>
        <time>2020-10-03T09:46:23Z</time>
      </trkpt>
      <trkpt lat="42.75829" lon="1.45694">
        <ele>1713.69</ele>
        <time>2020-10-03T09:46:42Z</time>
      </trkpt>
      <trkpt lat="42.75826" lon="1.45692">
        <ele>1713.69</ele>
        <time>2020-10-03T09:47:01Z</time>
      </trkpt>
      <trkpt lat="42.75827" lon="1.4569">
        <ele>1713.69</ele>
        <time>2020-10-03T09:47:27Z</time>
      </trkpt>
      <trkpt lat="42.75828" lon="1.45693">
        <ele>1713.69</ele>
        <time>2020-10-03T09:47:52Z</time>
      </trkpt>
      <trkpt lat="42.75827" lon="1.45697">
        <ele>1713.69</ele>
        <time>2020-10-03T09:48:19Z</time>
      </trkpt>
      <trkpt lat="42.75826" lon="1.4569">
        <ele>1714.65</ele>
        <time>2020-10-03T09:48:34Z</time>
      </trkpt>
      <trkpt lat="42.75825" lon="1.45684">
        <ele>1715.13</ele>
        <time>2020-10-03T09:48:50Z</time>
      </trkpt>
      <trkpt lat="42.75825" lon="1.45681">
        <ele>1717.05</ele>
        <time>2020-10-03T09:49:02Z</time>
      </trkpt>
      <trkpt lat="42.7582" lon="1.45672">
        <ele>1718.49</ele>
        <time>2020-10-03T09:49:18Z</time>
      </trkpt>
      <trkpt lat="42.75818" lon="1.45665">
        <ele>1719.46</ele>
        <time>2020-10-03T09:49:33Z</time>
      </trkpt>
      <trkpt lat="42.75819" lon="1.45656">
        <ele>1721.86</ele>
        <time>2020-10-03T09:49:49Z</time>
      </trkpt>
      <trkpt lat="42.75819" lon="1.45652">
        <ele>1723.78</ele>
        <time>2020-10-03T09:50:04Z</time>
      </trkpt>
      <trkpt lat="42.75823" lon="1.45644">
        <ele>1725.7</ele>
        <time>2020-10-03T09:50:21Z</time>
      </trkpt>
      <trkpt lat="42.75824" lon="1.45637">
        <ele>1727.63</ele>
        <time>2020-10-03T09:50:36Z</time>
      </trkpt>
      <trkpt lat="42.75828" lon="1.45628">
        <ele>1729.55</ele>
        <time>2020-10-03T09:50:56Z</time>
      </trkpt>
      <trkpt lat="42.75828" lon="1.45631">
        <ele>1730.03</ele>
        <time>2020-10-03T09:51:21Z</time>
      </trkpt>
      <trkpt lat="42.75828" lon="1.45627">
        <ele>1730.03</ele>
        <time>2020-10-03T09:51:57Z</time>
      </trkpt>
      <trkpt lat="42.75831" lon="1.45629">
        <ele>1730.03</ele>
        <time>2020-10-03T09:52:30Z</time>
      </trkpt>
      <trkpt lat="42.75828" lon="1.45629">
        <ele>1730.51</ele>
        <time>2020-10-03T09:52:54Z</time>
      </trkpt>
      <trkpt lat="42.75828" lon="1.4563">
        <ele>1730.51</ele>
        <time>2020-10-03T09:53:15Z</time>
      </trkpt>
      <trkpt lat="42.75825" lon="1.45629">
        <ele>1730.51</ele>
        <time>2020-10-03T09:53:43Z</time>
      </trkpt>
      <trkpt lat="42.75827" lon="1.45629">
        <ele>1730.51</ele>
        <time>2020-10-03T09:54:09Z</time>
      </trkpt>
      <trkpt lat="42.75829" lon="1.4563">
        <ele>1730.03</ele>
        <time>2020-10-03T09:54:34Z</time>
      </trkpt>
      <trkpt lat="42.75826" lon="1.4563">
        <ele>1730.03</ele>
        <time>2020-10-03T09:55:07Z</time>
      </trkpt>
      <trkpt lat="42.75829" lon="1.45625">
        <ele>1730.03</ele>
        <time>2020-10-03T09:55:34Z</time>
      </trkpt>
      <trkpt lat="42.7583" lon="1.45627">
        <ele>1730.51</ele>
        <time>2020-10-03T09:55:55Z</time>
      </trkpt>
      <trkpt lat="42.75835" lon="1.45628">
        <ele>1730.51</ele>
        <time>2020-10-03T09:56:11Z</time>
      </trkpt>
      <trkpt lat="42.75843" lon="1.45631">
        <ele>1731.47</ele>
        <time>2020-10-03T09:56:26Z</time>
      </trkpt>
      <trkpt lat="42.75846" lon="1.45635">
        <ele>1732.91</ele>
        <time>2020-10-03T09:56:41Z</time>
      </trkpt>
      <trkpt lat="42.75854" lon="1.45635">
        <ele>1733.39</ele>
        <time>2020-10-03T09:56:55Z</time>
      </trkpt>
      <trkpt lat="42.75862" lon="1.45636">
        <ele>1734.36</ele>
        <time>2020-10-03T09:57:13Z</time>
      </trkpt>
      <trkpt lat="42.75871" lon="1.45634">
        <ele>1736.28</ele>
        <time>2020-10-03T09:57:30Z</time>
      </trkpt>
      <trkpt lat="42.75878" lon="1.45631">
        <ele>1738.2</ele>
        <time>2020-10-03T09:57:50Z</time>
      </trkpt>
      <trkpt lat="42.75882" lon="1.45628">
        <ele>1740.12</ele>
        <time>2020-10-03T09:58:03Z</time>
      </trkpt>
      <trkpt lat="42.75884" lon="1.45628">
        <ele>1741.57</ele>
        <time>2020-10-03T09:58:20Z</time>
      </trkpt>
      <trkpt lat="42.7589" lon="1.45628">
        <ele>1743.49</ele>
        <time>2020-10-03T09:58:38Z</time>
      </trkpt>
      <trkpt lat="42.75892" lon="1.45628">
        <ele>1744.93</ele>
        <time>2020-10-03T09:58:53Z</time>
      </trkpt>
      <trkpt lat="42.75895" lon="1.45627">
        <ele>1744.93</ele>
        <time>2020-10-03T09:59:27Z</time>
      </trkpt>
      <trkpt lat="42.75898" lon="1.45622">
        <ele>1747.33</ele>
        <time>2020-10-03T09:59:44Z</time>
      </trkpt>
      <trkpt lat="42.75899" lon="1.4562">
        <ele>1748.78</ele>
        <time>2020-10-03T09:59:50Z</time>
      </trkpt>
      <trkpt lat="42.75901" lon="1.4562">
        <ele>1749.74</ele>
        <time>2020-10-03T10:00:06Z</time>
      </trkpt>
      <trkpt lat="42.75905" lon="1.45622">
        <ele>1752.14</ele>
        <time>2020-10-03T10:00:24Z</time>
      </trkpt>
      <trkpt lat="42.75907" lon="1.45622">
        <ele>1753.58</ele>
        <time>2020-10-03T10:00:40Z</time>
      </trkpt>
      <trkpt lat="42.75909" lon="1.45623">
        <ele>1755.02</ele>
        <time>2020-10-03T10:00:53Z</time>
      </trkpt>
      <trkpt lat="42.75912" lon="1.4562">
        <ele>1757.91</ele>
        <time>2020-10-03T10:01:08Z</time>
      </trkpt>
      <trkpt lat="42.75914" lon="1.45621">
        <ele>1759.83</ele>
        <time>2020-10-03T10:01:23Z</time>
      </trkpt>
      <trkpt lat="42.75916" lon="1.45627">
        <ele>1759.83</ele>
        <time>2020-10-03T10:01:35Z</time>
      </trkpt>
      <trkpt lat="42.7592" lon="1.4563">
        <ele>1761.75</ele>
        <time>2020-10-03T10:01:51Z</time>
      </trkpt>
      <trkpt lat="42.7592" lon="1.45631">
        <ele>1750.7</ele>
        <time>2020-10-03T10:01:56Z</time>
      </trkpt>
      <trkpt lat="42.7592" lon="1.45631">
        <ele>1763.2</ele>
        <time>2020-10-03T10:01:57Z</time>
      </trkpt>
      <trkpt lat="42.7592" lon="1.45631">
        <ele>1766.56</ele>
        <time>2020-10-03T10:01:58Z</time>
      </trkpt>
      <trkpt lat="42.75921" lon="1.45631">
        <ele>1766.56</ele>
        <time>2020-10-03T10:01:59Z</time>
      </trkpt>
      <trkpt lat="42.75921" lon="1.45631">
        <ele>1762.71</ele>
        <time>2020-10-03T10:02:00Z</time>
      </trkpt>
      <trkpt lat="42.75923" lon="1.45633">
        <ele>1762.71</ele>
        <time>2020-10-03T10:02:13Z</time>
      </trkpt>
      <trkpt lat="42.75927" lon="1.45629">
        <ele>1765.6</ele>
        <time>2020-10-03T10:02:31Z</time>
      </trkpt>
      <trkpt lat="42.75929" lon="1.45621">
        <ele>1767.52</ele>
        <time>2020-10-03T10:02:47Z</time>
      </trkpt>
      <trkpt lat="42.75929" lon="1.45613">
        <ele>1769.92</ele>
        <time>2020-10-03T10:03:05Z</time>
      </trkpt>
      <trkpt lat="42.75932" lon="1.45604">
        <ele>1772.33</ele>
        <time>2020-10-03T10:03:22Z</time>
      </trkpt>
      <trkpt lat="42.75932" lon="1.45597">
        <ele>1774.73</ele>
        <time>2020-10-03T10:03:40Z</time>
      </trkpt>
      <trkpt lat="42.75934" lon="1.45589">
        <ele>1776.17</ele>
        <time>2020-10-03T10:03:56Z</time>
      </trkpt>
      <trkpt lat="42.75932" lon="1.45586">
        <ele>1777.61</ele>
        <time>2020-10-03T10:04:16Z</time>
      </trkpt>
      <trkpt lat="42.75928" lon="1.45582">
        <ele>1780.02</ele>
        <time>2020-10-03T10:04:32Z</time>
      </trkpt>
      <trkpt lat="42.75928" lon="1.45582">
        <ele>1780.02</ele>
        <time>2020-10-03T10:04:33Z</time>
      </trkpt>
      <trkpt lat="42.75925" lon="1.45579">
        <ele>1780.5</ele>
        <time>2020-10-03T10:04:47Z</time>
      </trkpt>
      <trkpt lat="42.75926" lon="1.45574">
        <ele>1782.42</ele>
        <time>2020-10-03T10:05:02Z</time>
      </trkpt>
      <trkpt lat="42.75932" lon="1.4557">
        <ele>1782.9</ele>
        <time>2020-10-03T10:05:15Z</time>
      </trkpt>
      <trkpt lat="42.75936" lon="1.45567">
        <ele>1781.94</ele>
        <time>2020-10-03T10:05:27Z</time>
      </trkpt>
      <trkpt lat="42.75937" lon="1.4556">
        <ele>1783.38</ele>
        <time>2020-10-03T10:05:41Z</time>
      </trkpt>
      <trkpt lat="42.75933" lon="1.45555">
        <ele>1785.79</ele>
        <time>2020-10-03T10:05:56Z</time>
      </trkpt>
      <trkpt lat="42.75936" lon="1.45552">
        <ele>1786.27</ele>
        <time>2020-10-03T10:06:10Z</time>
      </trkpt>
      <trkpt lat="42.75937" lon="1.45547">
        <ele>1787.23</ele>
        <time>2020-10-03T10:06:27Z</time>
      </trkpt>
      <trkpt lat="42.75938" lon="1.45544">
        <ele>1787.71</ele>
        <time>2020-10-03T10:06:45Z</time>
      </trkpt>
      <trkpt lat="42.7594" lon="1.45535">
        <ele>1789.15</ele>
        <time>2020-10-03T10:07:02Z</time>
      </trkpt>
      <trkpt lat="42.75939" lon="1.45529">
        <ele>1790.59</ele>
        <time>2020-10-03T10:07:15Z</time>
      </trkpt>
      <trkpt lat="42.75939" lon="1.45523">
        <ele>1792.03</ele>
        <time>2020-10-03T10:07:29Z</time>
      </trkpt>
      <trkpt lat="42.75939" lon="1.45517">
        <ele>1794.44</ele>
        <time>2020-10-03T10:07:46Z</time>
      </trkpt>
      <trkpt lat="42.75946" lon="1.45513">
        <ele>1794.44</ele>
        <time>2020-10-03T10:08:03Z</time>
      </trkpt>
      <trkpt lat="42.75951" lon="1.45507">
        <ele>1794.44</ele>
        <time>2020-10-03T10:08:19Z</time>
      </trkpt>
      <trkpt lat="42.7595" lon="1.45501">
        <ele>1796.36</ele>
        <time>2020-10-03T10:08:35Z</time>
      </trkpt>
      <trkpt lat="42.75949" lon="1.45498">
        <ele>1797.32</ele>
        <time>2020-10-03T10:08:49Z</time>
      </trkpt>
      <trkpt lat="42.75949" lon="1.45495">
        <ele>1798.76</ele>
        <time>2020-10-03T10:09:04Z</time>
      </trkpt>
      <trkpt lat="42.75949" lon="1.45491">
        <ele>1800.21</ele>
        <time>2020-10-03T10:09:19Z</time>
      </trkpt>
      <trkpt lat="42.75947" lon="1.45487">
        <ele>1801.17</ele>
        <time>2020-10-03T10:09:34Z</time>
      </trkpt>
      <trkpt lat="42.75946" lon="1.45482">
        <ele>1803.57</ele>
        <time>2020-10-03T10:09:49Z</time>
      </trkpt>
      <trkpt lat="42.75939" lon="1.45482">
        <ele>1805.97</ele>
        <time>2020-10-03T10:10:06Z</time>
      </trkpt>
      <trkpt lat="42.75939" lon="1.45483">
        <ele>1804.53</ele>
        <time>2020-10-03T10:10:17Z</time>
      </trkpt>
      <trkpt lat="42.75935" lon="1.4548">
        <ele>1806.94</ele>
        <time>2020-10-03T10:10:33Z</time>
      </trkpt>
      <trkpt lat="42.75936" lon="1.45475">
        <ele>1808.38</ele>
        <time>2020-10-03T10:10:50Z</time>
      </trkpt>
      <trkpt lat="42.75935" lon="1.45471">
        <ele>1809.82</ele>
        <time>2020-10-03T10:11:07Z</time>
      </trkpt>
      <trkpt lat="42.75936" lon="1.45468">
        <ele>1811.74</ele>
        <time>2020-10-03T10:11:22Z</time>
      </trkpt>
      <trkpt lat="42.75936" lon="1.45466">
        <ele>1812.22</ele>
        <time>2020-10-03T10:11:37Z</time>
      </trkpt>
      <trkpt lat="42.75935" lon="1.45465">
        <ele>1809.34</ele>
        <time>2020-10-03T10:11:46Z</time>
      </trkpt>
      <trkpt lat="42.75935" lon="1.45465">
        <ele>1815.11</ele>
        <time>2020-10-03T10:11:47Z</time>
      </trkpt>
      <trkpt lat="42.75935" lon="1.45464">
        <ele>1812.7</ele>
        <time>2020-10-03T10:11:50Z</time>
      </trkpt>
      <trkpt lat="42.75936" lon="1.45462">
        <ele>1814.15</ele>
        <time>2020-10-03T10:11:56Z</time>
      </trkpt>
      <trkpt lat="42.75936" lon="1.45459">
        <ele>1815.59</ele>
        <time>2020-10-03T10:12:12Z</time>
      </trkpt>
      <trkpt lat="42.75929" lon="1.45459">
        <ele>1817.51</ele>
        <time>2020-10-03T10:12:28Z</time>
      </trkpt>
      <trkpt lat="42.75928" lon="1.4546">
        <ele>1817.99</ele>
        <time>2020-10-03T10:12:44Z</time>
      </trkpt>
      <trkpt lat="42.7593" lon="1.45458">
        <ele>1818.95</ele>
        <time>2020-10-03T10:13:15Z</time>
      </trkpt>
      <trkpt lat="42.75932" lon="1.45451">
        <ele>1821.35</ele>
        <time>2020-10-03T10:13:30Z</time>
      </trkpt>
      <trkpt lat="42.75935" lon="1.45443">
        <ele>1821.84</ele>
        <time>2020-10-03T10:13:46Z</time>
      </trkpt>
      <trkpt lat="42.75936" lon="1.45441">
        <ele>1820.87</ele>
        <time>2020-10-03T10:14:01Z</time>
      </trkpt>
      <trkpt lat="42.75936" lon="1.4544">
        <ele>1825.2</ele>
        <time>2020-10-03T10:14:02Z</time>
      </trkpt>
      <trkpt lat="42.75932" lon="1.45439">
        <ele>1824.72</ele>
        <time>2020-10-03T10:14:16Z</time>
      </trkpt>
      <trkpt lat="42.75934" lon="1.45436">
        <ele>1825.2</ele>
        <time>2020-10-03T10:14:29Z</time>
      </trkpt>
      <trkpt lat="42.75934" lon="1.45431">
        <ele>1825.68</ele>
        <time>2020-10-03T10:14:43Z</time>
      </trkpt>
      <trkpt lat="42.75933" lon="1.4543">
        <ele>1825.2</ele>
        <time>2020-10-03T10:14:48Z</time>
      </trkpt>
      <trkpt lat="42.75934" lon="1.45429">
        <ele>1826.64</ele>
        <time>2020-10-03T10:14:57Z</time>
      </trkpt>
      <trkpt lat="42.75934" lon="1.45426">
        <ele>1826.64</ele>
        <time>2020-10-03T10:15:15Z</time>
      </trkpt>
      <trkpt lat="42.75934" lon="1.45426">
        <ele>1825.2</ele>
        <time>2020-10-03T10:15:18Z</time>
      </trkpt>
      <trkpt lat="42.75934" lon="1.45426">
        <ele>1826.16</ele>
        <time>2020-10-03T10:15:21Z</time>
      </trkpt>
      <trkpt lat="42.75934" lon="1.45427">
        <ele>1824.72</ele>
        <time>2020-10-03T10:15:24Z</time>
      </trkpt>
      <trkpt lat="42.75934" lon="1.45427">
        <ele>1826.16</ele>
        <time>2020-10-03T10:15:27Z</time>
      </trkpt>
      <trkpt lat="42.75934" lon="1.45427">
        <ele>1824.72</ele>
        <time>2020-10-03T10:15:35Z</time>
      </trkpt>
      <trkpt lat="42.75934" lon="1.45428">
        <ele>1827.12</ele>
        <time>2020-10-03T10:15:38Z</time>
      </trkpt>
      <trkpt lat="42.75932" lon="1.45425">
        <ele>1825.68</ele>
        <time>2020-10-03T10:15:54Z</time>
      </trkpt>
      <trkpt lat="42.75932" lon="1.4543">
        <ele>1825.68</ele>
        <time>2020-10-03T10:16:10Z</time>
      </trkpt>
      <trkpt lat="42.75929" lon="1.45429">
        <ele>1825.68</ele>
        <time>2020-10-03T10:16:25Z</time>
      </trkpt>
      <trkpt lat="42.7593" lon="1.45429">
        <ele>1825.2</ele>
        <time>2020-10-03T10:16:45Z</time>
      </trkpt>
      <trkpt lat="42.75929" lon="1.45431">
        <ele>1824.72</ele>
        <time>2020-10-03T10:17:08Z</time>
      </trkpt>
      <trkpt lat="42.75928" lon="1.45434">
        <ele>1824.24</ele>
        <time>2020-10-03T10:17:48Z</time>
      </trkpt>
      <trkpt lat="42.75928" lon="1.45434">
        <ele>1824.24</ele>
        <time>2020-10-03T10:18:24Z</time>
      </trkpt>
      <trkpt lat="42.75928" lon="1.45432">
        <ele>1824.24</ele>
        <time>2020-10-03T10:18:58Z</time>
      </trkpt>
      <trkpt lat="42.75929" lon="1.45431">
        <ele>1824.72</ele>
        <time>2020-10-03T10:19:29Z</time>
      </trkpt>
      <trkpt lat="42.7593" lon="1.4543">
        <ele>1823.28</ele>
        <time>2020-10-03T10:19:31Z</time>
      </trkpt>
      <trkpt lat="42.7593" lon="1.4543">
        <ele>1824.24</ele>
        <time>2020-10-03T10:19:34Z</time>
      </trkpt>
      <trkpt lat="42.7593" lon="1.45428">
        <ele>1824.24</ele>
        <time>2020-10-03T10:20:11Z</time>
      </trkpt>
      <trkpt lat="42.75931" lon="1.45428">
        <ele>1824.24</ele>
        <time>2020-10-03T10:20:44Z</time>
      </trkpt>
      <trkpt lat="42.75931" lon="1.45433">
        <ele>1824.24</ele>
        <time>2020-10-03T10:21:16Z</time>
      </trkpt>
      <trkpt lat="42.75931" lon="1.45435">
        <ele>1821.84</ele>
        <time>2020-10-03T10:21:41Z</time>
      </trkpt>
      <trkpt lat="42.75934" lon="1.4543">
        <ele>1827.12</ele>
        <time>2020-10-03T10:21:56Z</time>
      </trkpt>
      <trkpt lat="42.75933" lon="1.45431">
        <ele>1825.68</ele>
        <time>2020-10-03T10:21:57Z</time>
      </trkpt>
      <trkpt lat="42.75932" lon="1.45432">
        <ele>1824.24</ele>
        <time>2020-10-03T10:21:59Z</time>
      </trkpt>
      <trkpt lat="42.75932" lon="1.4543">
        <ele>1823.28</ele>
        <time>2020-10-03T10:22:32Z</time>
      </trkpt>
      <trkpt lat="42.75932" lon="1.4543">
        <ele>1824.72</ele>
        <time>2020-10-03T10:22:50Z</time>
      </trkpt>
      <trkpt lat="42.75931" lon="1.4543">
        <ele>1823.76</ele>
        <time>2020-10-03T10:22:52Z</time>
      </trkpt>
      <trkpt lat="42.7593" lon="1.45431">
        <ele>1823.28</ele>
        <time>2020-10-03T10:23:03Z</time>
      </trkpt>
      <trkpt lat="42.75929" lon="1.4543">
        <ele>1823.28</ele>
        <time>2020-10-03T10:23:28Z</time>
      </trkpt>
      <trkpt lat="42.7593" lon="1.45431">
        <ele>1823.28</ele>
        <time>2020-10-03T10:23:52Z</time>
      </trkpt>
      <trkpt lat="42.75931" lon="1.45431">
        <ele>1823.28</ele>
        <time>2020-10-03T10:24:19Z</time>
      </trkpt>
      <trkpt lat="42.75931" lon="1.45431">
        <ele>1823.28</ele>
        <time>2020-10-03T10:24:45Z</time>
      </trkpt>
      <trkpt lat="42.75931" lon="1.45431">
        <ele>1824.72</ele>
        <time>2020-10-03T10:25:04Z</time>
      </trkpt>
      <trkpt lat="42.75932" lon="1.4543">
        <ele>1824.24</ele>
        <time>2020-10-03T10:25:37Z</time>
      </trkpt>
      <trkpt lat="42.75932" lon="1.45428">
        <ele>1824.72</ele>
        <time>2020-10-03T10:26:17Z</time>
      </trkpt>
      <trkpt lat="42.75932" lon="1.45428">
        <ele>1824.24</ele>
        <time>2020-10-03T10:26:58Z</time>
      </trkpt>
      <trkpt lat="42.75931" lon="1.45428">
        <ele>1823.28</ele>
        <time>2020-10-03T10:27:37Z</time>
      </trkpt>
      <trkpt lat="42.75932" lon="1.45428">
        <ele>1823.28</ele>
        <time>2020-10-03T10:28:06Z</time>
      </trkpt>
      <trkpt lat="42.75932" lon="1.45428">
        <ele>1823.28</ele>
        <time>2020-10-03T10:28:44Z</time>
      </trkpt>
      <trkpt lat="42.75932" lon="1.45429">
        <ele>1823.28</ele>
        <time>2020-10-03T10:29:15Z</time>
      </trkpt>
      <trkpt lat="42.75932" lon="1.45428">
        <ele>1822.8</ele>
        <time>2020-10-03T10:29:50Z</time>
      </trkpt>
      <trkpt lat="42.75931" lon="1.45429">
        <ele>1822.8</ele>
        <time>2020-10-03T10:30:21Z</time>
      </trkpt>
      <trkpt lat="42.75932" lon="1.45429">
        <ele>1822.8</ele>
        <time>2020-10-03T10:30:56Z</time>
      </trkpt>
      <trkpt lat="42.75931" lon="1.45429">
        <ele>1822.8</ele>
        <time>2020-10-03T10:31:34Z</time>
      </trkpt>
      <trkpt lat="42.7593" lon="1.4543">
        <ele>1822.32</ele>
        <time>2020-10-03T10:32:05Z</time>
      </trkpt>
      <trkpt lat="42.75931" lon="1.45429">
        <ele>1822.32</ele>
        <time>2020-10-03T10:32:34Z</time>
      </trkpt>
      <trkpt lat="42.7593" lon="1.4543">
        <ele>1822.32</ele>
        <time>2020-10-03T10:33:07Z</time>
      </trkpt>
      <trkpt lat="42.7593" lon="1.4543">
        <ele>1821.84</ele>
        <time>2020-10-03T10:33:43Z</time>
      </trkpt>
      <trkpt lat="42.75929" lon="1.4543">
        <ele>1821.84</ele>
        <time>2020-10-03T10:34:15Z</time>
      </trkpt>
      <trkpt lat="42.75929" lon="1.45431">
        <ele>1821.84</ele>
        <time>2020-10-03T10:34:50Z</time>
      </trkpt>
      <trkpt lat="42.75929" lon="1.4543">
        <ele>1821.84</ele>
        <time>2020-10-03T10:35:18Z</time>
      </trkpt>
      <trkpt lat="42.7593" lon="1.4543">
        <ele>1821.84</ele>
        <time>2020-10-03T10:35:55Z</time>
      </trkpt>
      <trkpt lat="42.7593" lon="1.4543">
        <ele>1822.32</ele>
        <time>2020-10-03T10:36:25Z</time>
      </trkpt>
      <trkpt lat="42.7593" lon="1.4543">
        <ele>1822.32</ele>
        <time>2020-10-03T10:36:58Z</time>
      </trkpt>
      <trkpt lat="42.7593" lon="1.45429">
        <ele>1821.84</ele>
        <time>2020-10-03T10:37:21Z</time>
      </trkpt>
      <trkpt lat="42.7593" lon="1.45428">
        <ele>1821.84</ele>
        <time>2020-10-03T10:37:49Z</time>
      </trkpt>
      <trkpt lat="42.75929" lon="1.45426">
        <ele>1821.84</ele>
        <time>2020-10-03T10:38:16Z</time>
      </trkpt>
      <trkpt lat="42.7593" lon="1.45427">
        <ele>1821.84</ele>
        <time>2020-10-03T10:38:59Z</time>
      </trkpt>
      <trkpt lat="42.75929" lon="1.45426">
        <ele>1822.32</ele>
        <time>2020-10-03T10:39:28Z</time>
      </trkpt>
      <trkpt lat="42.75929" lon="1.45427">
        <ele>1822.32</ele>
        <time>2020-10-03T10:39:59Z</time>
      </trkpt>
      <trkpt lat="42.75929" lon="1.45428">
        <ele>1822.32</ele>
        <time>2020-10-03T10:40:37Z</time>
      </trkpt>
      <trkpt lat="42.75928" lon="1.45429">
        <ele>1822.32</ele>
        <time>2020-10-03T10:41:12Z</time>
      </trkpt>
      <trkpt lat="42.75928" lon="1.45427">
        <ele>1822.32</ele>
        <time>2020-10-03T10:41:50Z</time>
      </trkpt>
      <trkpt lat="42.75928" lon="1.45429">
        <ele>1822.32</ele>
        <time>2020-10-03T10:42:18Z</time>
      </trkpt>
      <trkpt lat="42.75928" lon="1.45428">
        <ele>1822.32</ele>
        <time>2020-10-03T10:42:54Z</time>
      </trkpt>
      <trkpt lat="42.75928" lon="1.45429">
        <ele>1821.84</ele>
        <time>2020-10-03T10:43:22Z</time>
      </trkpt>
      <trkpt lat="42.75929" lon="1.45428">
        <ele>1822.32</ele>
        <time>2020-10-03T10:44:03Z</time>
      </trkpt>
      <trkpt lat="42.7593" lon="1.4543">
        <ele>1821.84</ele>
        <time>2020-10-03T10:44:31Z</time>
      </trkpt>
      <trkpt lat="42.7593" lon="1.4543">
        <ele>1821.84</ele>
        <time>2020-10-03T10:45:07Z</time>
      </trkpt>
      <trkpt lat="42.75929" lon="1.4543">
        <ele>1821.35</ele>
        <time>2020-10-03T10:45:42Z</time>
      </trkpt>
      <trkpt lat="42.75929" lon="1.45429">
        <ele>1821.35</ele>
        <time>2020-10-03T10:46:15Z</time>
      </trkpt>
      <trkpt lat="42.75929" lon="1.4543">
        <ele>1821.35</ele>
        <time>2020-10-03T10:46:51Z</time>
      </trkpt>
      <trkpt lat="42.75929" lon="1.45428">
        <ele>1821.35</ele>
        <time>2020-10-03T10:47:18Z</time>
      </trkpt>
      <trkpt lat="42.75929" lon="1.45427">
        <ele>1821.35</ele>
        <time>2020-10-03T10:47:52Z</time>
      </trkpt>
      <trkpt lat="42.7593" lon="1.45429">
        <ele>1820.87</ele>
        <time>2020-10-03T10:48:22Z</time>
      </trkpt>
      <trkpt lat="42.75931" lon="1.45429">
        <ele>1820.87</ele>
        <time>2020-10-03T10:48:57Z</time>
      </trkpt>
      <trkpt lat="42.7593" lon="1.45429">
        <ele>1820.87</ele>
        <time>2020-10-03T10:49:21Z</time>
      </trkpt>
      <trkpt lat="42.75929" lon="1.45428">
        <ele>1822.32</ele>
        <time>2020-10-03T10:49:51Z</time>
      </trkpt>
      <trkpt lat="42.7593" lon="1.45428">
        <ele>1822.32</ele>
        <time>2020-10-03T10:49:52Z</time>
      </trkpt>
      <trkpt lat="42.75929" lon="1.45429">
        <ele>1820.87</ele>
        <time>2020-10-03T10:50:05Z</time>
      </trkpt>
      <trkpt lat="42.75929" lon="1.45429">
        <ele>1823.28</ele>
        <time>2020-10-03T10:50:07Z</time>
      </trkpt>
      <trkpt lat="42.75931" lon="1.45429">
        <ele>1821.84</ele>
        <time>2020-10-03T10:50:26Z</time>
      </trkpt>
      <trkpt lat="42.7593" lon="1.45431">
        <ele>1821.84</ele>
        <time>2020-10-03T10:50:46Z</time>
      </trkpt>
      <trkpt lat="42.75932" lon="1.45431">
        <ele>1821.84</ele>
        <time>2020-10-03T10:51:02Z</time>
      </trkpt>
      <trkpt lat="42.75934" lon="1.45423">
        <ele>1821.35</ele>
        <time>2020-10-03T10:51:16Z</time>
      </trkpt>
      <trkpt lat="42.75934" lon="1.45419">
        <ele>1819.91</ele>
        <time>2020-10-03T10:51:36Z</time>
      </trkpt>
      <trkpt lat="42.75931" lon="1.45416">
        <ele>1819.91</ele>
        <time>2020-10-03T10:51:50Z</time>
      </trkpt>
      <trkpt lat="42.75931" lon="1.45409">
        <ele>1820.87</ele>
        <time>2020-10-03T10:51:58Z</time>
      </trkpt>
      <trkpt lat="42.75932" lon="1.45401">
        <ele>1822.32</ele>
        <time>2020-10-03T10:52:15Z</time>
      </trkpt>
      <trkpt lat="42.75932" lon="1.45399">
        <ele>1823.28</ele>
        <time>2020-10-03T10:52:33Z</time>
      </trkpt>
      <trkpt lat="42.75933" lon="1.45396">
        <ele>1823.76</ele>
        <time>2020-10-03T10:52:48Z</time>
      </trkpt>
      <trkpt lat="42.75931" lon="1.45391">
        <ele>1824.72</ele>
        <time>2020-10-03T10:53:05Z</time>
      </trkpt>
      <trkpt lat="42.75929" lon="1.45386">
        <ele>1826.16</ele>
        <time>2020-10-03T10:53:21Z</time>
      </trkpt>
      <trkpt lat="42.75931" lon="1.4538">
        <ele>1826.64</ele>
        <time>2020-10-03T10:53:36Z</time>
      </trkpt>
      <trkpt lat="42.75929" lon="1.45372">
        <ele>1827.6</ele>
        <time>2020-10-03T10:53:52Z</time>
      </trkpt>
      <trkpt lat="42.75928" lon="1.45369">
        <ele>1829.05</ele>
        <time>2020-10-03T10:54:06Z</time>
      </trkpt>
      <trkpt lat="42.75927" lon="1.45369">
        <ele>1829.53</ele>
        <time>2020-10-03T10:54:19Z</time>
      </trkpt>
      <trkpt lat="42.75926" lon="1.4536">
        <ele>1829.53</ele>
        <time>2020-10-03T10:54:35Z</time>
      </trkpt>
      <trkpt lat="42.75925" lon="1.45352">
        <ele>1831.45</ele>
        <time>2020-10-03T10:54:53Z</time>
      </trkpt>
      <trkpt lat="42.75926" lon="1.45345">
        <ele>1831.93</ele>
        <time>2020-10-03T10:55:11Z</time>
      </trkpt>
      <trkpt lat="42.75926" lon="1.45339">
        <ele>1831.93</ele>
        <time>2020-10-03T10:55:25Z</time>
      </trkpt>
      <trkpt lat="42.75923" lon="1.45337">
        <ele>1832.41</ele>
        <time>2020-10-03T10:55:38Z</time>
      </trkpt>
      <trkpt lat="42.7592" lon="1.45335">
        <ele>1833.85</ele>
        <time>2020-10-03T10:55:47Z</time>
      </trkpt>
      <trkpt lat="42.75922" lon="1.45333">
        <ele>1834.33</ele>
        <time>2020-10-03T10:56:02Z</time>
      </trkpt>
      <trkpt lat="42.75921" lon="1.45328">
        <ele>1835.29</ele>
        <time>2020-10-03T10:56:12Z</time>
      </trkpt>
      <trkpt lat="42.75917" lon="1.45323">
        <ele>1837.22</ele>
        <time>2020-10-03T10:56:28Z</time>
      </trkpt>
      <trkpt lat="42.75914" lon="1.45317">
        <ele>1838.66</ele>
        <time>2020-10-03T10:56:45Z</time>
      </trkpt>
      <trkpt lat="42.75911" lon="1.45313">
        <ele>1841.06</ele>
        <time>2020-10-03T10:57:03Z</time>
      </trkpt>
      <trkpt lat="42.75916" lon="1.45305">
        <ele>1842.98</ele>
        <time>2020-10-03T10:57:18Z</time>
      </trkpt>
      <trkpt lat="42.7591" lon="1.45302">
        <ele>1844.43</ele>
        <time>2020-10-03T10:57:35Z</time>
      </trkpt>
      <trkpt lat="42.75912" lon="1.45298">
        <ele>1846.35</ele>
        <time>2020-10-03T10:57:50Z</time>
      </trkpt>
      <trkpt lat="42.75911" lon="1.45298">
        <ele>1842.5</ele>
        <time>2020-10-03T10:57:56Z</time>
      </trkpt>
      <trkpt lat="42.75911" lon="1.45298">
        <ele>1849.23</ele>
        <time>2020-10-03T10:57:58Z</time>
      </trkpt>
      <trkpt lat="42.75911" lon="1.45298">
        <ele>1846.35</ele>
        <time>2020-10-03T10:57:59Z</time>
      </trkpt>
      <trkpt lat="42.75911" lon="1.45298">
        <ele>1847.79</ele>
        <time>2020-10-03T10:58:03Z</time>
      </trkpt>
      <trkpt lat="42.7591" lon="1.45295">
        <ele>1847.79</ele>
        <time>2020-10-03T10:58:19Z</time>
      </trkpt>
      <trkpt lat="42.7591" lon="1.45293">
        <ele>1846.35</ele>
        <time>2020-10-03T10:58:35Z</time>
      </trkpt>
      <trkpt lat="42.7591" lon="1.45293">
        <ele>1846.35</ele>
        <time>2020-10-03T10:58:56Z</time>
      </trkpt>
      <trkpt lat="42.7591" lon="1.45293">
        <ele>1846.83</ele>
        <time>2020-10-03T10:59:04Z</time>
      </trkpt>
      <trkpt lat="42.75909" lon="1.45293">
        <ele>1847.31</ele>
        <time>2020-10-03T10:59:48Z</time>
      </trkpt>
      <trkpt lat="42.75909" lon="1.45292">
        <ele>1846.83</ele>
        <time>2020-10-03T11:00:41Z</time>
      </trkpt>
      <trkpt lat="42.75909" lon="1.45291">
        <ele>1847.79</ele>
        <time>2020-10-03T11:00:45Z</time>
      </trkpt>
      <trkpt lat="42.7591" lon="1.45292">
        <ele>1848.27</ele>
        <time>2020-10-03T11:01:27Z</time>
      </trkpt>
      <trkpt lat="42.7591" lon="1.45291">
        <ele>1846.83</ele>
        <time>2020-10-03T11:01:32Z</time>
      </trkpt>
      <trkpt lat="42.7591" lon="1.45291">
        <ele>1852.6</ele>
        <time>2020-10-03T11:01:33Z</time>
      </trkpt>
      <trkpt lat="42.7591" lon="1.45292">
        <ele>1849.71</ele>
        <time>2020-10-03T11:01:34Z</time>
      </trkpt>
      <trkpt lat="42.7591" lon="1.45292">
        <ele>1847.79</ele>
        <time>2020-10-03T11:01:37Z</time>
      </trkpt>
      <trkpt lat="42.75911" lon="1.45292">
        <ele>1849.23</ele>
        <time>2020-10-03T11:01:54Z</time>
      </trkpt>
      <trkpt lat="42.75911" lon="1.45292">
        <ele>1849.23</ele>
        <time>2020-10-03T11:02:18Z</time>
      </trkpt>
      <trkpt lat="42.7591" lon="1.45293">
        <ele>1849.71</ele>
        <time>2020-10-03T11:02:42Z</time>
      </trkpt>
      <trkpt lat="42.7591" lon="1.45292">
        <ele>1848.27</ele>
        <time>2020-10-03T11:02:54Z</time>
      </trkpt>
      <trkpt lat="42.75907" lon="1.45292">
        <ele>1849.71</ele>
        <time>2020-10-03T11:03:08Z</time>
      </trkpt>
      <trkpt lat="42.75903" lon="1.4529">
        <ele>1851.64</ele>
        <time>2020-10-03T11:03:20Z</time>
      </trkpt>
      <trkpt lat="42.759" lon="1.45287">
        <ele>1854.04</ele>
        <time>2020-10-03T11:03:32Z</time>
      </trkpt>
      <trkpt lat="42.759" lon="1.45281">
        <ele>1855.48</ele>
        <time>2020-10-03T11:03:45Z</time>
      </trkpt>
      <trkpt lat="42.75899" lon="1.45275">
        <ele>1857.89</ele>
        <time>2020-10-03T11:03:59Z</time>
      </trkpt>
      <trkpt lat="42.759" lon="1.45267">
        <ele>1860.29</ele>
        <time>2020-10-03T11:04:14Z</time>
      </trkpt>
      <trkpt lat="42.75898" lon="1.45263">
        <ele>1861.25</ele>
        <time>2020-10-03T11:04:35Z</time>
      </trkpt>
      <trkpt lat="42.75896" lon="1.45261">
        <ele>1862.21</ele>
        <time>2020-10-03T11:04:58Z</time>
      </trkpt>
      <trkpt lat="42.75892" lon="1.45255">
        <ele>1864.13</ele>
        <time>2020-10-03T11:05:14Z</time>
      </trkpt>
      <trkpt lat="42.75893" lon="1.45246">
        <ele>1866.06</ele>
        <time>2020-10-03T11:05:31Z</time>
      </trkpt>
      <trkpt lat="42.75894" lon="1.45239">
        <ele>1866.54</ele>
        <time>2020-10-03T11:05:44Z</time>
      </trkpt>
      <trkpt lat="42.75892" lon="1.45238">
        <ele>1867.5</ele>
        <time>2020-10-03T11:06:14Z</time>
      </trkpt>
      <trkpt lat="42.75889" lon="1.45233">
        <ele>1868.94</ele>
        <time>2020-10-03T11:06:29Z</time>
      </trkpt>
      <trkpt lat="42.75889" lon="1.45233">
        <ele>1870.38</ele>
        <time>2020-10-03T11:06:41Z</time>
      </trkpt>
      <trkpt lat="42.75886" lon="1.45228">
        <ele>1871.34</ele>
        <time>2020-10-03T11:06:55Z</time>
      </trkpt>
      <trkpt lat="42.75889" lon="1.45224">
        <ele>1873.27</ele>
        <time>2020-10-03T11:07:11Z</time>
      </trkpt>
      <trkpt lat="42.75889" lon="1.45223">
        <ele>1874.71</ele>
        <time>2020-10-03T11:07:27Z</time>
      </trkpt>
      <trkpt lat="42.75889" lon="1.45223">
        <ele>1875.19</ele>
        <time>2020-10-03T11:07:48Z</time>
      </trkpt>
      <trkpt lat="42.75893" lon="1.45218">
        <ele>1876.63</ele>
        <time>2020-10-03T11:08:05Z</time>
      </trkpt>
      <trkpt lat="42.75889" lon="1.4521">
        <ele>1877.59</ele>
        <time>2020-10-03T11:08:21Z</time>
      </trkpt>
      <trkpt lat="42.75892" lon="1.45204">
        <ele>1878.55</ele>
        <time>2020-10-03T11:08:43Z</time>
      </trkpt>
      <trkpt lat="42.7589" lon="1.45197">
        <ele>1880.48</ele>
        <time>2020-10-03T11:08:58Z</time>
      </trkpt>
      <trkpt lat="42.75891" lon="1.45191">
        <ele>1882.88</ele>
        <time>2020-10-03T11:09:16Z</time>
      </trkpt>
      <trkpt lat="42.75896" lon="1.45183">
        <ele>1883.36</ele>
        <time>2020-10-03T11:09:31Z</time>
      </trkpt>
      <trkpt lat="42.75896" lon="1.45177">
        <ele>1884.32</ele>
        <time>2020-10-03T11:09:44Z</time>
      </trkpt>
      <trkpt lat="42.75896" lon="1.45175">
        <ele>1884.8</ele>
        <time>2020-10-03T11:09:57Z</time>
      </trkpt>
      <trkpt lat="42.75893" lon="1.45176">
        <ele>1886.24</ele>
        <time>2020-10-03T11:10:14Z</time>
      </trkpt>
      <trkpt lat="42.75889" lon="1.45176">
        <ele>1887.69</ele>
        <time>2020-10-03T11:10:27Z</time>
      </trkpt>
      <trkpt lat="42.75887" lon="1.45176">
        <ele>1889.13</ele>
        <time>2020-10-03T11:10:46Z</time>
      </trkpt>
      <trkpt lat="42.75887" lon="1.45174">
        <ele>1890.57</ele>
        <time>2020-10-03T11:10:59Z</time>
      </trkpt>
      <trkpt lat="42.75887" lon="1.45173">
        <ele>1889.13</ele>
        <time>2020-10-03T11:11:01Z</time>
      </trkpt>
      <trkpt lat="42.75888" lon="1.45172">
        <ele>1891.05</ele>
        <time>2020-10-03T11:11:19Z</time>
      </trkpt>
      <trkpt lat="42.75889" lon="1.45166">
        <ele>1893.45</ele>
        <time>2020-10-03T11:11:31Z</time>
      </trkpt>
      <trkpt lat="42.75888" lon="1.45163">
        <ele>1894.9</ele>
        <time>2020-10-03T11:11:46Z</time>
      </trkpt>
      <trkpt lat="42.75894" lon="1.45157">
        <ele>1895.38</ele>
        <time>2020-10-03T11:12:02Z</time>
      </trkpt>
      <trkpt lat="42.75897" lon="1.45148">
        <ele>1896.82</ele>
        <time>2020-10-03T11:12:19Z</time>
      </trkpt>
      <trkpt lat="42.75899" lon="1.45139">
        <ele>1897.3</ele>
        <time>2020-10-03T11:12:35Z</time>
      </trkpt>
      <trkpt lat="42.75899" lon="1.4514">
        <ele>1895.86</ele>
        <time>2020-10-03T11:12:37Z</time>
      </trkpt>
      <trkpt lat="42.75899" lon="1.45139">
        <ele>1898.26</ele>
        <time>2020-10-03T11:12:42Z</time>
      </trkpt>
      <trkpt lat="42.759" lon="1.45139">
        <ele>1897.3</ele>
        <time>2020-10-03T11:12:45Z</time>
      </trkpt>
      <trkpt lat="42.75901" lon="1.45129">
        <ele>1899.22</ele>
        <time>2020-10-03T11:13:04Z</time>
      </trkpt>
      <trkpt lat="42.75903" lon="1.45118">
        <ele>1901.14</ele>
        <time>2020-10-03T11:13:22Z</time>
      </trkpt>
      <trkpt lat="42.75903" lon="1.4511">
        <ele>1903.07</ele>
        <time>2020-10-03T11:13:38Z</time>
      </trkpt>
      <trkpt lat="42.75905" lon="1.45105">
        <ele>1904.99</ele>
        <time>2020-10-03T11:13:53Z</time>
      </trkpt>
      <trkpt lat="42.75906" lon="1.45097">
        <ele>1905.95</ele>
        <time>2020-10-03T11:14:09Z</time>
      </trkpt>
      <trkpt lat="42.75909" lon="1.45085">
        <ele>1908.83</ele>
        <time>2020-10-03T11:14:31Z</time>
      </trkpt>
      <trkpt lat="42.75908" lon="1.45077">
        <ele>1910.76</ele>
        <time>2020-10-03T11:14:49Z</time>
      </trkpt>
      <trkpt lat="42.75908" lon="1.45066">
        <ele>1912.2</ele>
        <time>2020-10-03T11:15:05Z</time>
      </trkpt>
      <trkpt lat="42.7591" lon="1.45052">
        <ele>1913.16</ele>
        <time>2020-10-03T11:15:21Z</time>
      </trkpt>
      <trkpt lat="42.75913" lon="1.45037">
        <ele>1914.6</ele>
        <time>2020-10-03T11:15:40Z</time>
      </trkpt>
      <trkpt lat="42.75915" lon="1.45027">
        <ele>1915.08</ele>
        <time>2020-10-03T11:15:55Z</time>
      </trkpt>
      <trkpt lat="42.75918" lon="1.45012">
        <ele>1916.04</ele>
        <time>2020-10-03T11:16:13Z</time>
      </trkpt>
      <trkpt lat="42.75924" lon="1.45">
        <ele>1917.01</ele>
        <time>2020-10-03T11:16:29Z</time>
      </trkpt>
      <trkpt lat="42.75925" lon="1.44987">
        <ele>1918.93</ele>
        <time>2020-10-03T11:16:46Z</time>
      </trkpt>
      <trkpt lat="42.75929" lon="1.44971">
        <ele>1919.89</ele>
        <time>2020-10-03T11:17:03Z</time>
      </trkpt>
      <trkpt lat="42.75932" lon="1.44961">
        <ele>1920.37</ele>
        <time>2020-10-03T11:17:18Z</time>
      </trkpt>
      <trkpt lat="42.75937" lon="1.44949">
        <ele>1920.37</ele>
        <time>2020-10-03T11:17:33Z</time>
      </trkpt>
      <trkpt lat="42.75941" lon="1.44939">
        <ele>1920.37</ele>
        <time>2020-10-03T11:17:49Z</time>
      </trkpt>
      <trkpt lat="42.75941" lon="1.44939">
        <ele>1920.37</ele>
        <time>2020-10-03T11:18:08Z</time>
      </trkpt>
      <trkpt lat="42.75944" lon="1.44932">
        <ele>1920.37</ele>
        <time>2020-10-03T11:18:22Z</time>
      </trkpt>
      <trkpt lat="42.75948" lon="1.4492">
        <ele>1921.33</ele>
        <time>2020-10-03T11:18:34Z</time>
      </trkpt>
      <trkpt lat="42.75955" lon="1.44904">
        <ele>1921.81</ele>
        <time>2020-10-03T11:18:48Z</time>
      </trkpt>
      <trkpt lat="42.75955" lon="1.44902">
        <ele>1921.81</ele>
        <time>2020-10-03T11:18:50Z</time>
      </trkpt>
      <trkpt lat="42.75957" lon="1.44896">
        <ele>1920.37</ele>
        <time>2020-10-03T11:18:54Z</time>
      </trkpt>
      <trkpt lat="42.7596" lon="1.44877">
        <ele>1918.45</ele>
        <time>2020-10-03T11:19:11Z</time>
      </trkpt>
      <trkpt lat="42.75966" lon="1.44861">
        <ele>1918.93</ele>
        <time>2020-10-03T11:19:27Z</time>
      </trkpt>
      <trkpt lat="42.75963" lon="1.44845">
        <ele>1917.97</ele>
        <time>2020-10-03T11:19:42Z</time>
      </trkpt>
      <trkpt lat="42.75962" lon="1.44826">
        <ele>1915.56</ele>
        <time>2020-10-03T11:19:58Z</time>
      </trkpt>
      <trkpt lat="42.75962" lon="1.44806">
        <ele>1914.12</ele>
        <time>2020-10-03T11:20:15Z</time>
      </trkpt>
      <trkpt lat="42.75962" lon="1.44801">
        <ele>1914.12</ele>
        <time>2020-10-03T11:20:20Z</time>
      </trkpt>
      <trkpt lat="42.75961" lon="1.44783">
        <ele>1912.68</ele>
        <time>2020-10-03T11:20:35Z</time>
      </trkpt>
      <trkpt lat="42.75959" lon="1.44771">
        <ele>1911.24</ele>
        <time>2020-10-03T11:20:46Z</time>
      </trkpt>
      <trkpt lat="42.75957" lon="1.44754">
        <ele>1909.32</ele>
        <time>2020-10-03T11:21:01Z</time>
      </trkpt>
      <trkpt lat="42.75956" lon="1.44741">
        <ele>1907.87</ele>
        <time>2020-10-03T11:21:14Z</time>
      </trkpt>
      <trkpt lat="42.75956" lon="1.44737">
        <ele>1907.87</ele>
        <time>2020-10-03T11:21:17Z</time>
      </trkpt>
      <trkpt lat="42.75957" lon="1.44719">
        <ele>1906.43</ele>
        <time>2020-10-03T11:21:32Z</time>
      </trkpt>
      <trkpt lat="42.75957" lon="1.44701">
        <ele>1904.51</ele>
        <time>2020-10-03T11:21:48Z</time>
      </trkpt>
      <trkpt lat="42.75959" lon="1.44686">
        <ele>1903.07</ele>
        <time>2020-10-03T11:22:01Z</time>
      </trkpt>
      <trkpt lat="42.75963" lon="1.44669">
        <ele>1901.63</ele>
        <time>2020-10-03T11:22:16Z</time>
      </trkpt>
      <trkpt lat="42.75965" lon="1.44651">
        <ele>1900.66</ele>
        <time>2020-10-03T11:22:32Z</time>
      </trkpt>
      <trkpt lat="42.75971" lon="1.44632">
        <ele>1898.74</ele>
        <time>2020-10-03T11:22:50Z</time>
      </trkpt>
      <trkpt lat="42.75976" lon="1.44612">
        <ele>1897.78</ele>
        <time>2020-10-03T11:23:06Z</time>
      </trkpt>
      <trkpt lat="42.75979" lon="1.44596">
        <ele>1895.38</ele>
        <time>2020-10-03T11:23:21Z</time>
      </trkpt>
      <trkpt lat="42.75982" lon="1.44579">
        <ele>1893.93</ele>
        <time>2020-10-03T11:23:37Z</time>
      </trkpt>
      <trkpt lat="42.75986" lon="1.4457">
        <ele>1892.49</ele>
        <time>2020-10-03T11:23:44Z</time>
      </trkpt>
      <trkpt lat="42.75992" lon="1.44553">
        <ele>1890.09</ele>
        <time>2020-10-03T11:23:59Z</time>
      </trkpt>
      <trkpt lat="42.75997" lon="1.44539">
        <ele>1888.65</ele>
        <time>2020-10-03T11:24:14Z</time>
      </trkpt>
      <trkpt lat="42.75998" lon="1.44525">
        <ele>1886.24</ele>
        <time>2020-10-03T11:24:30Z</time>
      </trkpt>
      <trkpt lat="42.76002" lon="1.44512">
        <ele>1883.84</ele>
        <time>2020-10-03T11:24:43Z</time>
      </trkpt>
      <trkpt lat="42.76003" lon="1.44508">
        <ele>1882.88</ele>
        <time>2020-10-03T11:25:02Z</time>
      </trkpt>
      <trkpt lat="42.76003" lon="1.44508">
        <ele>1882.88</ele>
        <time>2020-10-03T11:25:24Z</time>
      </trkpt>
      <trkpt lat="42.76003" lon="1.44502">
        <ele>1881.92</ele>
        <time>2020-10-03T11:25:57Z</time>
      </trkpt>
      <trkpt lat="42.76009" lon="1.44485">
        <ele>1879.51</ele>
        <time>2020-10-03T11:26:11Z</time>
      </trkpt>
      <trkpt lat="42.76013" lon="1.44469">
        <ele>1876.63</ele>
        <time>2020-10-03T11:26:27Z</time>
      </trkpt>
      <trkpt lat="42.76017" lon="1.44452">
        <ele>1874.23</ele>
        <time>2020-10-03T11:26:42Z</time>
      </trkpt>
      <trkpt lat="42.7602" lon="1.44444">
        <ele>1872.79</ele>
        <time>2020-10-03T11:26:51Z</time>
      </trkpt>
      <trkpt lat="42.7602" lon="1.44439">
        <ele>1871.34</ele>
        <time>2020-10-03T11:26:55Z</time>
      </trkpt>
      <trkpt lat="42.76023" lon="1.44427">
        <ele>1868.94</ele>
        <time>2020-10-03T11:27:09Z</time>
      </trkpt>
      <trkpt lat="42.76025" lon="1.44415">
        <ele>1866.06</ele>
        <time>2020-10-03T11:27:23Z</time>
      </trkpt>
      <trkpt lat="42.76024" lon="1.44401">
        <ele>1863.65</ele>
        <time>2020-10-03T11:27:39Z</time>
      </trkpt>
      <trkpt lat="42.76024" lon="1.44397">
        <ele>1860.29</ele>
        <time>2020-10-03T11:27:51Z</time>
      </trkpt>
      <trkpt lat="42.76024" lon="1.44393">
        <ele>1861.73</ele>
        <time>2020-10-03T11:28:12Z</time>
      </trkpt>
      <trkpt lat="42.76024" lon="1.44392">
        <ele>1861.73</ele>
        <time>2020-10-03T11:28:13Z</time>
      </trkpt>
      <trkpt lat="42.76025" lon="1.44387">
        <ele>1860.29</ele>
        <time>2020-10-03T11:28:17Z</time>
      </trkpt>
      <trkpt lat="42.76025" lon="1.44373">
        <ele>1856.44</ele>
        <time>2020-10-03T11:28:29Z</time>
      </trkpt>
      <trkpt lat="42.76027" lon="1.44359">
        <ele>1853.56</ele>
        <time>2020-10-03T11:28:42Z</time>
      </trkpt>
      <trkpt lat="42.76021" lon="1.44348">
        <ele>1850.19</ele>
        <time>2020-10-03T11:28:56Z</time>
      </trkpt>
      <trkpt lat="42.76028" lon="1.44334">
        <ele>1847.79</ele>
        <time>2020-10-03T11:29:09Z</time>
      </trkpt>
      <trkpt lat="42.76029" lon="1.44328">
        <ele>1846.83</ele>
        <time>2020-10-03T11:29:15Z</time>
      </trkpt>
      <trkpt lat="42.76035" lon="1.44316">
        <ele>1843.47</ele>
        <time>2020-10-03T11:29:28Z</time>
      </trkpt>
      <trkpt lat="42.76035" lon="1.44309">
        <ele>1842.02</ele>
        <time>2020-10-03T11:29:37Z</time>
      </trkpt>
      <trkpt lat="42.76037" lon="1.44294">
        <ele>1838.66</ele>
        <time>2020-10-03T11:29:52Z</time>
      </trkpt>
      <trkpt lat="42.7604" lon="1.44284">
        <ele>1837.22</ele>
        <time>2020-10-03T11:30:06Z</time>
      </trkpt>
      <trkpt lat="42.76039" lon="1.44283">
        <ele>1837.22</ele>
        <time>2020-10-03T11:30:33Z</time>
      </trkpt>
      <trkpt lat="42.76039" lon="1.44277">
        <ele>1835.29</ele>
        <time>2020-10-03T11:30:51Z</time>
      </trkpt>
      <trkpt lat="42.7604" lon="1.44267">
        <ele>1832.41</ele>
        <time>2020-10-03T11:31:08Z</time>
      </trkpt>
      <trkpt lat="42.76041" lon="1.44261">
        <ele>1830.97</ele>
        <time>2020-10-03T11:31:17Z</time>
      </trkpt>
      <trkpt lat="42.76043" lon="1.44247">
        <ele>1828.08</ele>
        <time>2020-10-03T11:31:32Z</time>
      </trkpt>
      <trkpt lat="42.76043" lon="1.44239">
        <ele>1826.16</ele>
        <time>2020-10-03T11:31:44Z</time>
      </trkpt>
      <trkpt lat="42.76044" lon="1.44231">
        <ele>1824.24</ele>
        <time>2020-10-03T11:31:57Z</time>
      </trkpt>
      <trkpt lat="42.76044" lon="1.44227">
        <ele>1823.76</ele>
        <time>2020-10-03T11:32:01Z</time>
      </trkpt>
      <trkpt lat="42.76043" lon="1.44221">
        <ele>1822.32</ele>
        <time>2020-10-03T11:32:06Z</time>
      </trkpt>
      <trkpt lat="42.7604" lon="1.4421">
        <ele>1817.99</ele>
        <time>2020-10-03T11:32:20Z</time>
      </trkpt>
      <trkpt lat="42.7604" lon="1.44209">
        <ele>1817.99</ele>
        <time>2020-10-03T11:32:21Z</time>
      </trkpt>
      <trkpt lat="42.76038" lon="1.44197">
        <ele>1815.11</ele>
        <time>2020-10-03T11:32:35Z</time>
      </trkpt>
      <trkpt lat="42.76035" lon="1.4419">
        <ele>1813.18</ele>
        <time>2020-10-03T11:32:47Z</time>
      </trkpt>
      <trkpt lat="42.76032" lon="1.44191">
        <ele>1810.78</ele>
        <time>2020-10-03T11:33:00Z</time>
      </trkpt>
      <trkpt lat="42.76032" lon="1.4419">
        <ele>1811.26</ele>
        <time>2020-10-03T11:33:06Z</time>
      </trkpt>
      <trkpt lat="42.76028" lon="1.44189">
        <ele>1810.3</ele>
        <time>2020-10-03T11:33:11Z</time>
      </trkpt>
      <trkpt lat="42.76019" lon="1.44189">
        <ele>1807.42</ele>
        <time>2020-10-03T11:33:23Z</time>
      </trkpt>
      <trkpt lat="42.76011" lon="1.44185">
        <ele>1804.05</ele>
        <time>2020-10-03T11:33:37Z</time>
      </trkpt>
      <trkpt lat="42.76005" lon="1.44182">
        <ele>1801.17</ele>
        <time>2020-10-03T11:33:50Z</time>
      </trkpt>
      <trkpt lat="42.75996" lon="1.44182">
        <ele>1799.24</ele>
        <time>2020-10-03T11:34:02Z</time>
      </trkpt>
      <trkpt lat="42.75995" lon="1.44181">
        <ele>1798.28</ele>
        <time>2020-10-03T11:34:05Z</time>
      </trkpt>
      <trkpt lat="42.75989" lon="1.4418">
        <ele>1796.36</ele>
        <time>2020-10-03T11:34:18Z</time>
      </trkpt>
      <trkpt lat="42.75982" lon="1.44181">
        <ele>1793</ele>
        <time>2020-10-03T11:34:32Z</time>
      </trkpt>
      <trkpt lat="42.75977" lon="1.44177">
        <ele>1789.15</ele>
        <time>2020-10-03T11:34:42Z</time>
      </trkpt>
      <trkpt lat="42.75976" lon="1.44177">
        <ele>1790.59</ele>
        <time>2020-10-03T11:34:44Z</time>
      </trkpt>
      <trkpt lat="42.75974" lon="1.44174">
        <ele>1788.67</ele>
        <time>2020-10-03T11:34:47Z</time>
      </trkpt>
      <trkpt lat="42.75973" lon="1.44173">
        <ele>1788.67</ele>
        <time>2020-10-03T11:34:48Z</time>
      </trkpt>
      <trkpt lat="42.75966" lon="1.44169">
        <ele>1787.23</ele>
        <time>2020-10-03T11:34:59Z</time>
      </trkpt>
      <trkpt lat="42.75962" lon="1.44167">
        <ele>1785.79</ele>
        <time>2020-10-03T11:35:04Z</time>
      </trkpt>
      <trkpt lat="42.75952" lon="1.44165">
        <ele>1784.34</ele>
        <time>2020-10-03T11:35:16Z</time>
      </trkpt>
      <trkpt lat="42.75945" lon="1.44161">
        <ele>1781.94</ele>
        <time>2020-10-03T11:35:29Z</time>
      </trkpt>
      <trkpt lat="42.75932" lon="1.44161">
        <ele>1779.06</ele>
        <time>2020-10-03T11:35:48Z</time>
      </trkpt>
      <trkpt lat="42.75924" lon="1.44163">
        <ele>1776.65</ele>
        <time>2020-10-03T11:36:02Z</time>
      </trkpt>
      <trkpt lat="42.75922" lon="1.44155">
        <ele>1774.25</ele>
        <time>2020-10-03T11:36:14Z</time>
      </trkpt>
      <trkpt lat="42.7592" lon="1.44143">
        <ele>1771.37</ele>
        <time>2020-10-03T11:36:28Z</time>
      </trkpt>
      <trkpt lat="42.75913" lon="1.44142">
        <ele>1767.52</ele>
        <time>2020-10-03T11:36:38Z</time>
      </trkpt>
      <trkpt lat="42.75913" lon="1.44142">
        <ele>1767.52</ele>
        <time>2020-10-03T11:36:39Z</time>
      </trkpt>
      <trkpt lat="42.75913" lon="1.44141">
        <ele>1768.48</ele>
        <time>2020-10-03T11:36:57Z</time>
      </trkpt>
      <trkpt lat="42.75913" lon="1.4414">
        <ele>1767.04</ele>
        <time>2020-10-03T11:37:05Z</time>
      </trkpt>
      <trkpt lat="42.75905" lon="1.44133">
        <ele>1763.2</ele>
        <time>2020-10-03T11:37:20Z</time>
      </trkpt>
      <trkpt lat="42.75899" lon="1.44129">
        <ele>1760.31</ele>
        <time>2020-10-03T11:37:35Z</time>
      </trkpt>
      <trkpt lat="42.75897" lon="1.44124">
        <ele>1758.87</ele>
        <time>2020-10-03T11:37:46Z</time>
      </trkpt>
      <trkpt lat="42.75896" lon="1.44119">
        <ele>1755.5</ele>
        <time>2020-10-03T11:37:54Z</time>
      </trkpt>
      <trkpt lat="42.75894" lon="1.44116">
        <ele>1755.99</ele>
        <time>2020-10-03T11:37:58Z</time>
      </trkpt>
      <trkpt lat="42.75895" lon="1.44111">
        <ele>1755.02</ele>
        <time>2020-10-03T11:38:05Z</time>
      </trkpt>
      <trkpt lat="42.75892" lon="1.4411">
        <ele>1753.1</ele>
        <time>2020-10-03T11:38:14Z</time>
      </trkpt>
      <trkpt lat="42.75889" lon="1.44105">
        <ele>1750.7</ele>
        <time>2020-10-03T11:38:25Z</time>
      </trkpt>
      <trkpt lat="42.75884" lon="1.44096">
        <ele>1747.81</ele>
        <time>2020-10-03T11:38:43Z</time>
      </trkpt>
      <trkpt lat="42.75883" lon="1.44091">
        <ele>1745.41</ele>
        <time>2020-10-03T11:38:57Z</time>
      </trkpt>
      <trkpt lat="42.75882" lon="1.4409">
        <ele>1744.93</ele>
        <time>2020-10-03T11:39:18Z</time>
      </trkpt>
      <trkpt lat="42.75883" lon="1.4409">
        <ele>1744.93</ele>
        <time>2020-10-03T11:39:29Z</time>
      </trkpt>
      <trkpt lat="42.75883" lon="1.4409">
        <ele>1744.93</ele>
        <time>2020-10-03T11:40:08Z</time>
      </trkpt>
      <trkpt lat="42.75883" lon="1.4409">
        <ele>1744.93</ele>
        <time>2020-10-03T11:40:42Z</time>
      </trkpt>
      <trkpt lat="42.75881" lon="1.4409">
        <ele>1745.41</ele>
        <time>2020-10-03T11:40:56Z</time>
      </trkpt>
      <trkpt lat="42.75882" lon="1.4409">
        <ele>1745.89</ele>
        <time>2020-10-03T11:41:08Z</time>
      </trkpt>
      <trkpt lat="42.75882" lon="1.44089">
        <ele>1745.89</ele>
        <time>2020-10-03T11:41:40Z</time>
      </trkpt>
      <trkpt lat="42.75882" lon="1.44089">
        <ele>1745.89</ele>
        <time>2020-10-03T11:42:05Z</time>
      </trkpt>
      <trkpt lat="42.75879" lon="1.44086">
        <ele>1744.45</ele>
        <time>2020-10-03T11:42:19Z</time>
      </trkpt>
      <trkpt lat="42.75875" lon="1.44087">
        <ele>1743.01</ele>
        <time>2020-10-03T11:42:33Z</time>
      </trkpt>
      <trkpt lat="42.75877" lon="1.44078">
        <ele>1740.6</ele>
        <time>2020-10-03T11:42:47Z</time>
      </trkpt>
      <trkpt lat="42.75881" lon="1.44069">
        <ele>1737.72</ele>
        <time>2020-10-03T11:43:01Z</time>
      </trkpt>
      <trkpt lat="42.75882" lon="1.44066">
        <ele>1737.72</ele>
        <time>2020-10-03T11:43:05Z</time>
      </trkpt>
      <trkpt lat="42.75882" lon="1.44064">
        <ele>1737.24</ele>
        <time>2020-10-03T11:43:07Z</time>
      </trkpt>
      <trkpt lat="42.75879" lon="1.44056">
        <ele>1734.84</ele>
        <time>2020-10-03T11:43:20Z</time>
      </trkpt>
      <trkpt lat="42.75878" lon="1.44048">
        <ele>1731.95</ele>
        <time>2020-10-03T11:43:33Z</time>
      </trkpt>
      <trkpt lat="42.75876" lon="1.44042">
        <ele>1729.07</ele>
        <time>2020-10-03T11:43:46Z</time>
      </trkpt>
      <trkpt lat="42.75875" lon="1.44038">
        <ele>1728.59</ele>
        <time>2020-10-03T11:43:50Z</time>
      </trkpt>
      <trkpt lat="42.75875" lon="1.44028">
        <ele>1725.7</ele>
        <time>2020-10-03T11:44:03Z</time>
      </trkpt>
      <trkpt lat="42.75877" lon="1.44023">
        <ele>1724.74</ele>
        <time>2020-10-03T11:44:15Z</time>
      </trkpt>
      <trkpt lat="42.75879" lon="1.44016">
        <ele>1723.3</ele>
        <time>2020-10-03T11:44:27Z</time>
      </trkpt>
      <trkpt lat="42.75879" lon="1.44017">
        <ele>1723.78</ele>
        <time>2020-10-03T11:44:33Z</time>
      </trkpt>
      <trkpt lat="42.75879" lon="1.44015">
        <ele>1722.34</ele>
        <time>2020-10-03T11:44:36Z</time>
      </trkpt>
      <trkpt lat="42.7588" lon="1.44013">
        <ele>1721.38</ele>
        <time>2020-10-03T11:44:55Z</time>
      </trkpt>
      <trkpt lat="42.75882" lon="1.44013">
        <ele>1722.34</ele>
        <time>2020-10-03T11:44:59Z</time>
      </trkpt>
      <trkpt lat="42.75882" lon="1.4401">
        <ele>1720.9</ele>
        <time>2020-10-03T11:45:05Z</time>
      </trkpt>
      <trkpt lat="42.75883" lon="1.44007">
        <ele>1718.49</ele>
        <time>2020-10-03T11:45:25Z</time>
      </trkpt>
      <trkpt lat="42.75884" lon="1.44009">
        <ele>1718.97</ele>
        <time>2020-10-03T11:45:39Z</time>
      </trkpt>
      <trkpt lat="42.75884" lon="1.44009">
        <ele>1720.42</ele>
        <time>2020-10-03T11:45:42Z</time>
      </trkpt>
      <trkpt lat="42.75885" lon="1.44009">
        <ele>1720.9</ele>
        <time>2020-10-03T11:46:05Z</time>
      </trkpt>
      <trkpt lat="42.75884" lon="1.4401">
        <ele>1720.9</ele>
        <time>2020-10-03T11:46:29Z</time>
      </trkpt>
      <trkpt lat="42.75884" lon="1.44009">
        <ele>1720.9</ele>
        <time>2020-10-03T11:46:51Z</time>
      </trkpt>
      <trkpt lat="42.75887" lon="1.44005">
        <ele>1719.46</ele>
        <time>2020-10-03T11:47:00Z</time>
      </trkpt>
      <trkpt lat="42.75887" lon="1.43998">
        <ele>1717.05</ele>
        <time>2020-10-03T11:47:10Z</time>
      </trkpt>
      <trkpt lat="42.75887" lon="1.43995">
        <ele>1715.61</ele>
        <time>2020-10-03T11:47:14Z</time>
      </trkpt>
      <trkpt lat="42.7589" lon="1.43987">
        <ele>1713.69</ele>
        <time>2020-10-03T11:47:28Z</time>
      </trkpt>
      <trkpt lat="42.7589" lon="1.43976">
        <ele>1710.8</ele>
        <time>2020-10-03T11:47:41Z</time>
      </trkpt>
      <trkpt lat="42.75889" lon="1.43968">
        <ele>1707.92</ele>
        <time>2020-10-03T11:47:53Z</time>
      </trkpt>
      <trkpt lat="42.75893" lon="1.43961">
        <ele>1705.04</ele>
        <time>2020-10-03T11:48:06Z</time>
      </trkpt>
      <trkpt lat="42.7589" lon="1.43955">
        <ele>1702.63</ele>
        <time>2020-10-03T11:48:18Z</time>
      </trkpt>
      <trkpt lat="42.75896" lon="1.43946">
        <ele>1699.75</ele>
        <time>2020-10-03T11:48:33Z</time>
      </trkpt>
      <trkpt lat="42.75896" lon="1.43943">
        <ele>1698.31</ele>
        <time>2020-10-03T11:48:36Z</time>
      </trkpt>
      <trkpt lat="42.75902" lon="1.43932">
        <ele>1695.9</ele>
        <time>2020-10-03T11:48:50Z</time>
      </trkpt>
      <trkpt lat="42.75905" lon="1.43923">
        <ele>1693.98</ele>
        <time>2020-10-03T11:49:00Z</time>
      </trkpt>
      <trkpt lat="42.7591" lon="1.43912">
        <ele>1692.06</ele>
        <time>2020-10-03T11:49:12Z</time>
      </trkpt>
      <trkpt lat="42.75904" lon="1.43907">
        <ele>1689.17</ele>
        <time>2020-10-03T11:49:26Z</time>
      </trkpt>
      <trkpt lat="42.75907" lon="1.43903">
        <ele>1687.25</ele>
        <time>2020-10-03T11:49:41Z</time>
      </trkpt>
      <trkpt lat="42.75908" lon="1.43896">
        <ele>1686.29</ele>
        <time>2020-10-03T11:50:06Z</time>
      </trkpt>
      <trkpt lat="42.75905" lon="1.43891">
        <ele>1684.37</ele>
        <time>2020-10-03T11:50:22Z</time>
      </trkpt>
      <trkpt lat="42.75905" lon="1.4389">
        <ele>1683.41</ele>
        <time>2020-10-03T11:50:38Z</time>
      </trkpt>
      <trkpt lat="42.759" lon="1.43887">
        <ele>1681.48</ele>
        <time>2020-10-03T11:50:51Z</time>
      </trkpt>
      <trkpt lat="42.75901" lon="1.43885">
        <ele>1680.04</ele>
        <time>2020-10-03T11:50:55Z</time>
      </trkpt>
      <trkpt lat="42.75902" lon="1.43877">
        <ele>1678.12</ele>
        <time>2020-10-03T11:51:09Z</time>
      </trkpt>
      <trkpt lat="42.75897" lon="1.43874">
        <ele>1675.23</ele>
        <time>2020-10-03T11:51:23Z</time>
      </trkpt>
      <trkpt lat="42.75895" lon="1.43873">
        <ele>1673.31</ele>
        <time>2020-10-03T11:51:37Z</time>
      </trkpt>
      <trkpt lat="42.75891" lon="1.43871">
        <ele>1670.91</ele>
        <time>2020-10-03T11:51:52Z</time>
      </trkpt>
      <trkpt lat="42.75887" lon="1.43868">
        <ele>1668.02</ele>
        <time>2020-10-03T11:52:04Z</time>
      </trkpt>
      <trkpt lat="42.75884" lon="1.43867">
        <ele>1668.02</ele>
        <time>2020-10-03T11:52:19Z</time>
      </trkpt>
      <trkpt lat="42.75883" lon="1.43867">
        <ele>1666.58</ele>
        <time>2020-10-03T11:52:22Z</time>
      </trkpt>
      <trkpt lat="42.75879" lon="1.43863">
        <ele>1664.18</ele>
        <time>2020-10-03T11:52:34Z</time>
      </trkpt>
      <trkpt lat="42.75877" lon="1.43861">
        <ele>1662.74</ele>
        <time>2020-10-03T11:52:44Z</time>
      </trkpt>
      <trkpt lat="42.75872" lon="1.43861">
        <ele>1660.33</ele>
        <time>2020-10-03T11:53:01Z</time>
      </trkpt>
      <trkpt lat="42.75872" lon="1.43858">
        <ele>1656.49</ele>
        <time>2020-10-03T11:53:12Z</time>
      </trkpt>
      <trkpt lat="42.75872" lon="1.43858">
        <ele>1659.85</ele>
        <time>2020-10-03T11:53:13Z</time>
      </trkpt>
      <trkpt lat="42.75872" lon="1.43858">
        <ele>1659.85</ele>
        <time>2020-10-03T11:53:17Z</time>
      </trkpt>
      <trkpt lat="42.75871" lon="1.43857">
        <ele>1658.89</ele>
        <time>2020-10-03T11:53:30Z</time>
      </trkpt>
      <trkpt lat="42.75868" lon="1.4386">
        <ele>1658.41</ele>
        <time>2020-10-03T11:53:48Z</time>
      </trkpt>
      <trkpt lat="42.75867" lon="1.43861">
        <ele>1659.37</ele>
        <time>2020-10-03T11:53:54Z</time>
      </trkpt>
      <trkpt lat="42.75867" lon="1.43861">
        <ele>1657.93</ele>
        <time>2020-10-03T11:53:56Z</time>
      </trkpt>
      <trkpt lat="42.7586" lon="1.43861">
        <ele>1655.53</ele>
        <time>2020-10-03T11:54:14Z</time>
      </trkpt>
      <trkpt lat="42.75857" lon="1.43856">
        <ele>1654.09</ele>
        <time>2020-10-03T11:54:30Z</time>
      </trkpt>
      <trkpt lat="42.7586" lon="1.43852">
        <ele>1652.64</ele>
        <time>2020-10-03T11:54:43Z</time>
      </trkpt>
      <trkpt lat="42.75861" lon="1.43849">
        <ele>1652.16</ele>
        <time>2020-10-03T11:54:46Z</time>
      </trkpt>
      <trkpt lat="42.75864" lon="1.43842">
        <ele>1650.24</ele>
        <time>2020-10-03T11:54:59Z</time>
      </trkpt>
      <trkpt lat="42.75862" lon="1.43835">
        <ele>1648.32</ele>
        <time>2020-10-03T11:55:14Z</time>
      </trkpt>
      <trkpt lat="42.75863" lon="1.43831">
        <ele>1647.36</ele>
        <time>2020-10-03T11:55:19Z</time>
      </trkpt>
      <trkpt lat="42.75862" lon="1.43827">
        <ele>1646.4</ele>
        <time>2020-10-03T11:55:23Z</time>
      </trkpt>
      <trkpt lat="42.75866" lon="1.43819">
        <ele>1645.43</ele>
        <time>2020-10-03T11:55:36Z</time>
      </trkpt>
      <trkpt lat="42.75867" lon="1.43814">
        <ele>1644.47</ele>
        <time>2020-10-03T11:55:50Z</time>
      </trkpt>
      <trkpt lat="42.75872" lon="1.43808">
        <ele>1643.03</ele>
        <time>2020-10-03T11:56:06Z</time>
      </trkpt>
      <trkpt lat="42.75873" lon="1.43803">
        <ele>1641.59</ele>
        <time>2020-10-03T11:56:18Z</time>
      </trkpt>
      <trkpt lat="42.75871" lon="1.43796">
        <ele>1639.19</ele>
        <time>2020-10-03T11:56:30Z</time>
      </trkpt>
      <trkpt lat="42.75868" lon="1.43797">
        <ele>1637.74</ele>
        <time>2020-10-03T11:56:37Z</time>
      </trkpt>
      <trkpt lat="42.75864" lon="1.43801">
        <ele>1635.82</ele>
        <time>2020-10-03T11:56:49Z</time>
      </trkpt>
      <trkpt lat="42.75863" lon="1.43801">
        <ele>1635.82</ele>
        <time>2020-10-03T11:56:54Z</time>
      </trkpt>
      <trkpt lat="42.75859" lon="1.43803">
        <ele>1633.9</ele>
        <time>2020-10-03T11:57:08Z</time>
      </trkpt>
      <trkpt lat="42.75858" lon="1.43795">
        <ele>1631.98</ele>
        <time>2020-10-03T11:57:24Z</time>
      </trkpt>
      <trkpt lat="42.75856" lon="1.43792">
        <ele>1630.53</ele>
        <time>2020-10-03T11:57:44Z</time>
      </trkpt>
      <trkpt lat="42.75855" lon="1.4379">
        <ele>1629.57</ele>
        <time>2020-10-03T11:58:03Z</time>
      </trkpt>
      <trkpt lat="42.75854" lon="1.43791">
        <ele>1630.05</ele>
        <time>2020-10-03T11:58:20Z</time>
      </trkpt>
      <trkpt lat="42.75854" lon="1.4379">
        <ele>1628.61</ele>
        <time>2020-10-03T11:58:23Z</time>
      </trkpt>
      <trkpt lat="42.75855" lon="1.43794">
        <ele>1628.61</ele>
        <time>2020-10-03T11:58:44Z</time>
      </trkpt>
      <trkpt lat="42.75851" lon="1.43792">
        <ele>1626.69</ele>
        <time>2020-10-03T11:59:05Z</time>
      </trkpt>
      <trkpt lat="42.75846" lon="1.43788">
        <ele>1625.73</ele>
        <time>2020-10-03T11:59:23Z</time>
      </trkpt>
      <trkpt lat="42.7584" lon="1.43787">
        <ele>1622.84</ele>
        <time>2020-10-03T11:59:35Z</time>
      </trkpt>
      <trkpt lat="42.75836" lon="1.43783">
        <ele>1619.96</ele>
        <time>2020-10-03T11:59:49Z</time>
      </trkpt>
      <trkpt lat="42.75836" lon="1.43776">
        <ele>1618.04</ele>
        <time>2020-10-03T12:00:05Z</time>
      </trkpt>
      <trkpt lat="42.75832" lon="1.4377">
        <ele>1615.15</ele>
        <time>2020-10-03T12:00:21Z</time>
      </trkpt>
      <trkpt lat="42.75824" lon="1.4377">
        <ele>1612.75</ele>
        <time>2020-10-03T12:00:35Z</time>
      </trkpt>
      <trkpt lat="42.75821" lon="1.43767">
        <ele>1610.35</ele>
        <time>2020-10-03T12:00:48Z</time>
      </trkpt>
      <trkpt lat="42.75818" lon="1.43761">
        <ele>1608.42</ele>
        <time>2020-10-03T12:01:00Z</time>
      </trkpt>
      <trkpt lat="42.75813" lon="1.4376">
        <ele>1605.54</ele>
        <time>2020-10-03T12:01:09Z</time>
      </trkpt>
      <trkpt lat="42.75811" lon="1.4376">
        <ele>1606.98</ele>
        <time>2020-10-03T12:01:12Z</time>
      </trkpt>
      <trkpt lat="42.75809" lon="1.43759">
        <ele>1605.06</ele>
        <time>2020-10-03T12:01:14Z</time>
      </trkpt>
      <trkpt lat="42.75804" lon="1.4376">
        <ele>1604.1</ele>
        <time>2020-10-03T12:01:25Z</time>
      </trkpt>
      <trkpt lat="42.75803" lon="1.43761">
        <ele>1603.62</ele>
        <time>2020-10-03T12:01:28Z</time>
      </trkpt>
      <trkpt lat="42.75804" lon="1.43761">
        <ele>1603.14</ele>
        <time>2020-10-03T12:01:45Z</time>
      </trkpt>
      <trkpt lat="42.75803" lon="1.43762">
        <ele>1603.14</ele>
        <time>2020-10-03T12:02:13Z</time>
      </trkpt>
      <trkpt lat="42.75804" lon="1.43762">
        <ele>1603.14</ele>
        <time>2020-10-03T12:02:35Z</time>
      </trkpt>
      <trkpt lat="42.75805" lon="1.43762">
        <ele>1603.14</ele>
        <time>2020-10-03T12:02:54Z</time>
      </trkpt>
      <trkpt lat="42.75805" lon="1.43763">
        <ele>1604.1</ele>
        <time>2020-10-03T12:03:23Z</time>
      </trkpt>
      <trkpt lat="42.75803" lon="1.43765">
        <ele>1604.1</ele>
        <time>2020-10-03T12:03:37Z</time>
      </trkpt>
      <trkpt lat="42.75805" lon="1.43767">
        <ele>1603.14</ele>
        <time>2020-10-03T12:04:02Z</time>
      </trkpt>
      <trkpt lat="42.75804" lon="1.43766">
        <ele>1604.1</ele>
        <time>2020-10-03T12:04:29Z</time>
      </trkpt>
      <trkpt lat="42.75805" lon="1.43766">
        <ele>1604.1</ele>
        <time>2020-10-03T12:04:51Z</time>
      </trkpt>
      <trkpt lat="42.75801" lon="1.43765">
        <ele>1604.58</ele>
        <time>2020-10-03T12:05:22Z</time>
      </trkpt>
      <trkpt lat="42.75802" lon="1.43767">
        <ele>1604.58</ele>
        <time>2020-10-03T12:05:32Z</time>
      </trkpt>
      <trkpt lat="42.75795" lon="1.43771">
        <ele>1604.58</ele>
        <time>2020-10-03T12:05:42Z</time>
      </trkpt>
      <trkpt lat="42.75788" lon="1.43779">
        <ele>1604.58</ele>
        <time>2020-10-03T12:05:51Z</time>
      </trkpt>
      <trkpt lat="42.75776" lon="1.43791">
        <ele>1604.58</ele>
        <time>2020-10-03T12:06:05Z</time>
      </trkpt>
      <trkpt lat="42.75775" lon="1.43792">
        <ele>1604.58</ele>
        <time>2020-10-03T12:06:07Z</time>
      </trkpt>
      <trkpt lat="42.75773" lon="1.43794">
        <ele>1603.14</ele>
        <time>2020-10-03T12:06:09Z</time>
      </trkpt>
      <trkpt lat="42.75766" lon="1.43806">
        <ele>1602.66</ele>
        <time>2020-10-03T12:06:22Z</time>
      </trkpt>
      <trkpt lat="42.75764" lon="1.43808">
        <ele>1604.1</ele>
        <time>2020-10-03T12:06:24Z</time>
      </trkpt>
      <trkpt lat="42.75756" lon="1.43819">
        <ele>1604.1</ele>
        <time>2020-10-03T12:06:37Z</time>
      </trkpt>
      <trkpt lat="42.75755" lon="1.43821">
        <ele>1604.1</ele>
        <time>2020-10-03T12:06:39Z</time>
      </trkpt>
      <trkpt lat="42.75749" lon="1.43834">
        <ele>1602.17</ele>
        <time>2020-10-03T12:06:51Z</time>
      </trkpt>
      <trkpt lat="42.75739" lon="1.43838">
        <ele>1602.17</ele>
        <time>2020-10-03T12:07:00Z</time>
      </trkpt>
      <trkpt lat="42.75729" lon="1.43848">
        <ele>1601.69</ele>
        <time>2020-10-03T12:07:13Z</time>
      </trkpt>
      <trkpt lat="42.75725" lon="1.43853">
        <ele>1600.73</ele>
        <time>2020-10-03T12:07:19Z</time>
      </trkpt>
      <trkpt lat="42.75723" lon="1.43857">
        <ele>1600.73</ele>
        <time>2020-10-03T12:07:23Z</time>
      </trkpt>
      <trkpt lat="42.75721" lon="1.43859">
        <ele>1600.73</ele>
        <time>2020-10-03T12:07:26Z</time>
      </trkpt>
      <trkpt lat="42.75714" lon="1.43875">
        <ele>1599.77</ele>
        <time>2020-10-03T12:07:41Z</time>
      </trkpt>
      <trkpt lat="42.75713" lon="1.43883">
        <ele>1598.81</ele>
        <time>2020-10-03T12:07:46Z</time>
      </trkpt>
      <trkpt lat="42.75712" lon="1.43885">
        <ele>1599.29</ele>
        <time>2020-10-03T12:07:48Z</time>
      </trkpt>
      <trkpt lat="42.75712" lon="1.43891">
        <ele>1597.85</ele>
        <time>2020-10-03T12:07:52Z</time>
      </trkpt>
      <trkpt lat="42.75711" lon="1.43894">
        <ele>1597.85</ele>
        <time>2020-10-03T12:07:54Z</time>
      </trkpt>
      <trkpt lat="42.75707" lon="1.43898">
        <ele>1597.85</ele>
        <time>2020-10-03T12:07:58Z</time>
      </trkpt>
      <trkpt lat="42.75702" lon="1.43908">
        <ele>1597.85</ele>
        <time>2020-10-03T12:08:07Z</time>
      </trkpt>
      <trkpt lat="42.75701" lon="1.4391">
        <ele>1597.85</ele>
        <time>2020-10-03T12:08:09Z</time>
      </trkpt>
      <trkpt lat="42.75697" lon="1.4392">
        <ele>1597.85</ele>
        <time>2020-10-03T12:08:21Z</time>
      </trkpt>
      <trkpt lat="42.75693" lon="1.43924">
        <ele>1597.85</ele>
        <time>2020-10-03T12:08:26Z</time>
      </trkpt>
      <trkpt lat="42.75692" lon="1.43927">
        <ele>1597.85</ele>
        <time>2020-10-03T12:08:29Z</time>
      </trkpt>
      <trkpt lat="42.75687" lon="1.43938">
        <ele>1596.41</ele>
        <time>2020-10-03T12:08:40Z</time>
      </trkpt>
      <trkpt lat="42.75683" lon="1.43949">
        <ele>1596.89</ele>
        <time>2020-10-03T12:08:53Z</time>
      </trkpt>
      <trkpt lat="42.75677" lon="1.43957">
        <ele>1596.89</ele>
        <time>2020-10-03T12:09:08Z</time>
      </trkpt>
      <trkpt lat="42.75673" lon="1.43965">
        <ele>1598.33</ele>
        <time>2020-10-03T12:09:15Z</time>
      </trkpt>
      <trkpt lat="42.75665" lon="1.43973">
        <ele>1599.29</ele>
        <time>2020-10-03T12:09:30Z</time>
      </trkpt>
      <trkpt lat="42.75662" lon="1.43977">
        <ele>1599.29</ele>
        <time>2020-10-03T12:09:34Z</time>
      </trkpt>
      <trkpt lat="42.75654" lon="1.43985">
        <ele>1598.33</ele>
        <time>2020-10-03T12:09:45Z</time>
      </trkpt>
      <trkpt lat="42.75651" lon="1.4399">
        <ele>1598.33</ele>
        <time>2020-10-03T12:09:58Z</time>
      </trkpt>
      <trkpt lat="42.75648" lon="1.43992">
        <ele>1598.33</ele>
        <time>2020-10-03T12:10:02Z</time>
      </trkpt>
      <trkpt lat="42.75646" lon="1.43998">
        <ele>1598.33</ele>
        <time>2020-10-03T12:10:09Z</time>
      </trkpt>
      <trkpt lat="42.75637" lon="1.44013">
        <ele>1597.85</ele>
        <time>2020-10-03T12:10:24Z</time>
      </trkpt>
      <trkpt lat="42.75626" lon="1.44028">
        <ele>1597.85</ele>
        <time>2020-10-03T12:10:40Z</time>
      </trkpt>
      <trkpt lat="42.75622" lon="1.44033">
        <ele>1597.85</ele>
        <time>2020-10-03T12:10:49Z</time>
      </trkpt>
      <trkpt lat="42.75622" lon="1.44036">
        <ele>1598.81</ele>
        <time>2020-10-03T12:10:51Z</time>
      </trkpt>
      <trkpt lat="42.75621" lon="1.44046">
        <ele>1598.81</ele>
        <time>2020-10-03T12:11:03Z</time>
      </trkpt>
      <trkpt lat="42.75619" lon="1.44055">
        <ele>1599.77</ele>
        <time>2020-10-03T12:11:22Z</time>
      </trkpt>
      <trkpt lat="42.75618" lon="1.44056">
        <ele>1599.77</ele>
        <time>2020-10-03T12:11:23Z</time>
      </trkpt>
      <trkpt lat="42.75609" lon="1.4407">
        <ele>1599.77</ele>
        <time>2020-10-03T12:11:37Z</time>
      </trkpt>
      <trkpt lat="42.75607" lon="1.44075">
        <ele>1598.33</ele>
        <time>2020-10-03T12:11:41Z</time>
      </trkpt>
      <trkpt lat="42.75596" lon="1.44087">
        <ele>1600.25</ele>
        <time>2020-10-03T12:11:58Z</time>
      </trkpt>
      <trkpt lat="42.75595" lon="1.44087">
        <ele>1600.25</ele>
        <time>2020-10-03T12:12:19Z</time>
      </trkpt>
      <trkpt lat="42.75595" lon="1.44088">
        <ele>1598.81</ele>
        <time>2020-10-03T12:12:40Z</time>
      </trkpt>
      <trkpt lat="42.7559" lon="1.44092">
        <ele>1598.81</ele>
        <time>2020-10-03T12:12:56Z</time>
      </trkpt>
      <trkpt lat="42.75583" lon="1.44106">
        <ele>1598.81</ele>
        <time>2020-10-03T12:13:11Z</time>
      </trkpt>
      <trkpt lat="42.75579" lon="1.44114">
        <ele>1599.29</ele>
        <time>2020-10-03T12:13:24Z</time>
      </trkpt>
      <trkpt lat="42.75578" lon="1.44114">
        <ele>1599.29</ele>
        <time>2020-10-03T12:13:25Z</time>
      </trkpt>
      <trkpt lat="42.75575" lon="1.4412">
        <ele>1598.33</ele>
        <time>2020-10-03T12:13:32Z</time>
      </trkpt>
      <trkpt lat="42.75574" lon="1.44129">
        <ele>1597.37</ele>
        <time>2020-10-03T12:13:38Z</time>
      </trkpt>
      <trkpt lat="42.75573" lon="1.44133">
        <ele>1597.37</ele>
        <time>2020-10-03T12:13:41Z</time>
      </trkpt>
      <trkpt lat="42.75568" lon="1.44141">
        <ele>1597.85</ele>
        <time>2020-10-03T12:13:49Z</time>
      </trkpt>
      <trkpt lat="42.75566" lon="1.44149">
        <ele>1597.85</ele>
        <time>2020-10-03T12:13:56Z</time>
      </trkpt>
      <trkpt lat="42.75565" lon="1.44153">
        <ele>1597.85</ele>
        <time>2020-10-03T12:13:59Z</time>
      </trkpt>
      <trkpt lat="42.75563" lon="1.44155">
        <ele>1597.85</ele>
        <time>2020-10-03T12:14:01Z</time>
      </trkpt>
      <trkpt lat="42.7556" lon="1.4416">
        <ele>1597.85</ele>
        <time>2020-10-03T12:14:06Z</time>
      </trkpt>
      <trkpt lat="42.75556" lon="1.4417">
        <ele>1597.85</ele>
        <time>2020-10-03T12:14:16Z</time>
      </trkpt>
      <trkpt lat="42.75555" lon="1.44177">
        <ele>1596.89</ele>
        <time>2020-10-03T12:14:21Z</time>
      </trkpt>
      <trkpt lat="42.75553" lon="1.44195">
        <ele>1597.85</ele>
        <time>2020-10-03T12:14:35Z</time>
      </trkpt>
      <trkpt lat="42.75546" lon="1.44211">
        <ele>1599.29</ele>
        <time>2020-10-03T12:14:50Z</time>
      </trkpt>
      <trkpt lat="42.75545" lon="1.44213">
        <ele>1599.29</ele>
        <time>2020-10-03T12:14:53Z</time>
      </trkpt>
      <trkpt lat="42.75542" lon="1.44221">
        <ele>1597.37</ele>
        <time>2020-10-03T12:15:00Z</time>
      </trkpt>
      <trkpt lat="42.75541" lon="1.44226">
        <ele>1596.89</ele>
        <time>2020-10-03T12:15:07Z</time>
      </trkpt>
      <trkpt lat="42.75541" lon="1.44238">
        <ele>1595.45</ele>
        <time>2020-10-03T12:15:16Z</time>
      </trkpt>
      <trkpt lat="42.75541" lon="1.44242">
        <ele>1594.96</ele>
        <time>2020-10-03T12:15:19Z</time>
      </trkpt>
      <trkpt lat="42.75542" lon="1.44248">
        <ele>1595.45</ele>
        <time>2020-10-03T12:15:25Z</time>
      </trkpt>
      <trkpt lat="42.75541" lon="1.44251">
        <ele>1596.89</ele>
        <time>2020-10-03T12:15:27Z</time>
      </trkpt>
      <trkpt lat="42.75538" lon="1.44265">
        <ele>1596.89</ele>
        <time>2020-10-03T12:15:38Z</time>
      </trkpt>
      <trkpt lat="42.75532" lon="1.44273">
        <ele>1596.89</ele>
        <time>2020-10-03T12:15:46Z</time>
      </trkpt>
      <trkpt lat="42.75521" lon="1.4429">
        <ele>1596.89</ele>
        <time>2020-10-03T12:16:03Z</time>
      </trkpt>
      <trkpt lat="42.75514" lon="1.44297">
        <ele>1594.96</ele>
        <time>2020-10-03T12:16:14Z</time>
      </trkpt>
      <trkpt lat="42.75507" lon="1.44298">
        <ele>1594.48</ele>
        <time>2020-10-03T12:16:35Z</time>
      </trkpt>
      <trkpt lat="42.75505" lon="1.44299">
        <ele>1594.48</ele>
        <time>2020-10-03T12:16:37Z</time>
      </trkpt>
      <trkpt lat="42.75498" lon="1.44302">
        <ele>1593.52</ele>
        <time>2020-10-03T12:16:43Z</time>
      </trkpt>
      <trkpt lat="42.75495" lon="1.44306">
        <ele>1592.08</ele>
        <time>2020-10-03T12:16:47Z</time>
      </trkpt>
      <trkpt lat="42.75492" lon="1.44313">
        <ele>1592.08</ele>
        <time>2020-10-03T12:16:53Z</time>
      </trkpt>
      <trkpt lat="42.75483" lon="1.44327">
        <ele>1591.12</ele>
        <time>2020-10-03T12:17:04Z</time>
      </trkpt>
      <trkpt lat="42.75483" lon="1.44336">
        <ele>1590.16</ele>
        <time>2020-10-03T12:17:11Z</time>
      </trkpt>
      <trkpt lat="42.75482" lon="1.44339">
        <ele>1590.16</ele>
        <time>2020-10-03T12:17:14Z</time>
      </trkpt>
      <trkpt lat="42.75481" lon="1.44345">
        <ele>1589.68</ele>
        <time>2020-10-03T12:17:19Z</time>
      </trkpt>
      <trkpt lat="42.75476" lon="1.4436">
        <ele>1589.2</ele>
        <time>2020-10-03T12:17:32Z</time>
      </trkpt>
      <trkpt lat="42.75471" lon="1.44374">
        <ele>1588.24</ele>
        <time>2020-10-03T12:17:44Z</time>
      </trkpt>
      <trkpt lat="42.75468" lon="1.44395">
        <ele>1587.27</ele>
        <time>2020-10-03T12:17:59Z</time>
      </trkpt>
      <trkpt lat="42.75468" lon="1.44396">
        <ele>1586.79</ele>
        <time>2020-10-03T12:18:00Z</time>
      </trkpt>
      <trkpt lat="42.75465" lon="1.44403">
        <ele>1586.79</ele>
        <time>2020-10-03T12:18:05Z</time>
      </trkpt>
      <trkpt lat="42.75462" lon="1.44409">
        <ele>1586.79</ele>
        <time>2020-10-03T12:18:11Z</time>
      </trkpt>
      <trkpt lat="42.75457" lon="1.44413">
        <ele>1585.35</ele>
        <time>2020-10-03T12:18:20Z</time>
      </trkpt>
      <trkpt lat="42.75454" lon="1.44426">
        <ele>1584.39</ele>
        <time>2020-10-03T12:18:34Z</time>
      </trkpt>
      <trkpt lat="42.75453" lon="1.44429">
        <ele>1584.39</ele>
        <time>2020-10-03T12:18:39Z</time>
      </trkpt>
      <trkpt lat="42.7545" lon="1.44434">
        <ele>1585.83</ele>
        <time>2020-10-03T12:18:45Z</time>
      </trkpt>
      <trkpt lat="42.75447" lon="1.44441">
        <ele>1584.39</ele>
        <time>2020-10-03T12:18:54Z</time>
      </trkpt>
      <trkpt lat="42.75443" lon="1.44446">
        <ele>1584.39</ele>
        <time>2020-10-03T12:19:02Z</time>
      </trkpt>
      <trkpt lat="42.75441" lon="1.44448">
        <ele>1584.87</ele>
        <time>2020-10-03T12:19:06Z</time>
      </trkpt>
      <trkpt lat="42.7544" lon="1.4445">
        <ele>1584.87</ele>
        <time>2020-10-03T12:19:08Z</time>
      </trkpt>
      <trkpt lat="42.7544" lon="1.44453">
        <ele>1581.03</ele>
        <time>2020-10-03T12:19:11Z</time>
      </trkpt>
      <trkpt lat="42.75439" lon="1.44456">
        <ele>1584.87</ele>
        <time>2020-10-03T12:19:13Z</time>
      </trkpt>
      <trkpt lat="42.75439" lon="1.44458">
        <ele>1583.91</ele>
        <time>2020-10-03T12:19:15Z</time>
      </trkpt>
      <trkpt lat="42.75438" lon="1.44458">
        <ele>1583.43</ele>
        <time>2020-10-03T12:19:35Z</time>
      </trkpt>
      <trkpt lat="42.75441" lon="1.4446">
        <ele>1583.43</ele>
        <time>2020-10-03T12:20:07Z</time>
      </trkpt>
      <trkpt lat="42.7544" lon="1.4446">
        <ele>1582.95</ele>
        <time>2020-10-03T12:20:35Z</time>
      </trkpt>
      <trkpt lat="42.75438" lon="1.44459">
        <ele>1582.95</ele>
        <time>2020-10-03T12:21:05Z</time>
      </trkpt>
      <trkpt lat="42.75437" lon="1.4446">
        <ele>1582.95</ele>
        <time>2020-10-03T12:21:21Z</time>
      </trkpt>
      <trkpt lat="42.75432" lon="1.44464">
        <ele>1582.47</ele>
        <time>2020-10-03T12:21:38Z</time>
      </trkpt>
      <trkpt lat="42.75429" lon="1.44463">
        <ele>1582.47</ele>
        <time>2020-10-03T12:21:42Z</time>
      </trkpt>
      <trkpt lat="42.75422" lon="1.44463">
        <ele>1581.51</ele>
        <time>2020-10-03T12:21:49Z</time>
      </trkpt>
      <trkpt lat="42.75414" lon="1.44469">
        <ele>1581.03</ele>
        <time>2020-10-03T12:21:59Z</time>
      </trkpt>
      <trkpt lat="42.75405" lon="1.44478">
        <ele>1580.06</ele>
        <time>2020-10-03T12:22:13Z</time>
      </trkpt>
      <trkpt lat="42.75402" lon="1.44483">
        <ele>1580.06</ele>
        <time>2020-10-03T12:22:19Z</time>
      </trkpt>
      <trkpt lat="42.75403" lon="1.44495">
        <ele>1579.1</ele>
        <time>2020-10-03T12:22:32Z</time>
      </trkpt>
      <trkpt lat="42.75401" lon="1.44502">
        <ele>1579.1</ele>
        <time>2020-10-03T12:22:38Z</time>
      </trkpt>
      <trkpt lat="42.75402" lon="1.4451">
        <ele>1580.54</ele>
        <time>2020-10-03T12:22:44Z</time>
      </trkpt>
      <trkpt lat="42.75401" lon="1.44514">
        <ele>1580.54</ele>
        <time>2020-10-03T12:22:47Z</time>
      </trkpt>
      <trkpt lat="42.75399" lon="1.4453">
        <ele>1580.54</ele>
        <time>2020-10-03T12:23:02Z</time>
      </trkpt>
      <trkpt lat="42.75401" lon="1.4455">
        <ele>1581.03</ele>
        <time>2020-10-03T12:23:17Z</time>
      </trkpt>
      <trkpt lat="42.75398" lon="1.44567">
        <ele>1581.99</ele>
        <time>2020-10-03T12:23:30Z</time>
      </trkpt>
      <trkpt lat="42.75396" lon="1.44575">
        <ele>1582.47</ele>
        <time>2020-10-03T12:23:38Z</time>
      </trkpt>
      <trkpt lat="42.75394" lon="1.44592">
        <ele>1585.83</ele>
        <time>2020-10-03T12:23:54Z</time>
      </trkpt>
      <trkpt lat="42.7539" lon="1.44603">
        <ele>1587.75</ele>
        <time>2020-10-03T12:24:09Z</time>
      </trkpt>
      <trkpt lat="42.75389" lon="1.44615">
        <ele>1590.64</ele>
        <time>2020-10-03T12:24:24Z</time>
      </trkpt>
      <trkpt lat="42.75386" lon="1.44628">
        <ele>1591.6</ele>
        <time>2020-10-03T12:24:39Z</time>
      </trkpt>
      <trkpt lat="42.75384" lon="1.44639">
        <ele>1591.12</ele>
        <time>2020-10-03T12:24:48Z</time>
      </trkpt>
      <trkpt lat="42.75379" lon="1.4465">
        <ele>1591.6</ele>
        <time>2020-10-03T12:25:03Z</time>
      </trkpt>
      <trkpt lat="42.75377" lon="1.4465">
        <ele>1592.08</ele>
        <time>2020-10-03T12:25:23Z</time>
      </trkpt>
      <trkpt lat="42.7538" lon="1.4465">
        <ele>1590.64</ele>
        <time>2020-10-03T12:25:41Z</time>
      </trkpt>
      <trkpt lat="42.7538" lon="1.44651">
        <ele>1590.64</ele>
        <time>2020-10-03T12:26:23Z</time>
      </trkpt>
      <trkpt lat="42.7538" lon="1.4465">
        <ele>1591.12</ele>
        <time>2020-10-03T12:26:57Z</time>
      </trkpt>
      <trkpt lat="42.75379" lon="1.44648">
        <ele>1589.68</ele>
        <time>2020-10-03T12:27:33Z</time>
      </trkpt>
      <trkpt lat="42.75379" lon="1.44649">
        <ele>1591.12</ele>
        <time>2020-10-03T12:27:35Z</time>
      </trkpt>
      <trkpt lat="42.7538" lon="1.44652">
        <ele>1590.64</ele>
        <time>2020-10-03T12:27:51Z</time>
      </trkpt>
      <trkpt lat="42.7538" lon="1.44653">
        <ele>1589.2</ele>
        <time>2020-10-03T12:28:19Z</time>
      </trkpt>
      <trkpt lat="42.75382" lon="1.44652">
        <ele>1591.12</ele>
        <time>2020-10-03T12:28:47Z</time>
      </trkpt>
      <trkpt lat="42.75382" lon="1.44654">
        <ele>1591.12</ele>
        <time>2020-10-03T12:28:54Z</time>
      </trkpt>
      <trkpt lat="42.75379" lon="1.4466">
        <ele>1589.68</ele>
        <time>2020-10-03T12:29:08Z</time>
      </trkpt>
      <trkpt lat="42.75378" lon="1.44662">
        <ele>1589.68</ele>
        <time>2020-10-03T12:29:25Z</time>
      </trkpt>
      <trkpt lat="42.75378" lon="1.44665">
        <ele>1589.68</ele>
        <time>2020-10-03T12:29:28Z</time>
      </trkpt>
      <trkpt lat="42.75378" lon="1.44676">
        <ele>1588.24</ele>
        <time>2020-10-03T12:29:37Z</time>
      </trkpt>
      <trkpt lat="42.75377" lon="1.44687">
        <ele>1587.27</ele>
        <time>2020-10-03T12:29:49Z</time>
      </trkpt>
      <trkpt lat="42.75377" lon="1.44688">
        <ele>1586.79</ele>
        <time>2020-10-03T12:29:50Z</time>
      </trkpt>
      <trkpt lat="42.75375" lon="1.4469">
        <ele>1586.79</ele>
        <time>2020-10-03T12:29:53Z</time>
      </trkpt>
      <trkpt lat="42.7537" lon="1.44701">
        <ele>1584.39</ele>
        <time>2020-10-03T12:30:07Z</time>
      </trkpt>
      <trkpt lat="42.75369" lon="1.44701">
        <ele>1583.91</ele>
        <time>2020-10-03T12:30:11Z</time>
      </trkpt>
      <trkpt lat="42.75367" lon="1.44713">
        <ele>1581.03</ele>
        <time>2020-10-03T12:30:23Z</time>
      </trkpt>
      <trkpt lat="42.75363" lon="1.44725">
        <ele>1577.66</ele>
        <time>2020-10-03T12:30:35Z</time>
      </trkpt>
      <trkpt lat="42.75362" lon="1.44728">
        <ele>1579.1</ele>
        <time>2020-10-03T12:30:38Z</time>
      </trkpt>
      <trkpt lat="42.75361" lon="1.44729">
        <ele>1577.66</ele>
        <time>2020-10-03T12:30:40Z</time>
      </trkpt>
      <trkpt lat="42.75362" lon="1.4473">
        <ele>1578.14</ele>
        <time>2020-10-03T12:30:46Z</time>
      </trkpt>
      <trkpt lat="42.75359" lon="1.44733">
        <ele>1576.7</ele>
        <time>2020-10-03T12:30:55Z</time>
      </trkpt>
      <trkpt lat="42.75356" lon="1.44745">
        <ele>1574.78</ele>
        <time>2020-10-03T12:31:07Z</time>
      </trkpt>
      <trkpt lat="42.75354" lon="1.44753">
        <ele>1573.33</ele>
        <time>2020-10-03T12:31:21Z</time>
      </trkpt>
      <trkpt lat="42.75353" lon="1.44766">
        <ele>1572.37</ele>
        <time>2020-10-03T12:31:35Z</time>
      </trkpt>
      <trkpt lat="42.75352" lon="1.44769">
        <ele>1570.45</ele>
        <time>2020-10-03T12:31:38Z</time>
      </trkpt>
      <trkpt lat="42.75352" lon="1.44772">
        <ele>1570.93</ele>
        <time>2020-10-03T12:31:41Z</time>
      </trkpt>
      <trkpt lat="42.75347" lon="1.44779">
        <ele>1566.61</ele>
        <time>2020-10-03T12:31:55Z</time>
      </trkpt>
      <trkpt lat="42.75347" lon="1.44775">
        <ele>1565.64</ele>
        <time>2020-10-03T12:32:06Z</time>
      </trkpt>
      <trkpt lat="42.75341" lon="1.44771">
        <ele>1563.72</ele>
        <time>2020-10-03T12:32:18Z</time>
      </trkpt>
      <trkpt lat="42.75337" lon="1.44785">
        <ele>1560.84</ele>
        <time>2020-10-03T12:32:31Z</time>
      </trkpt>
      <trkpt lat="42.75332" lon="1.44781">
        <ele>1558.43</ele>
        <time>2020-10-03T12:32:44Z</time>
      </trkpt>
      <trkpt lat="42.75329" lon="1.44769">
        <ele>1556.03</ele>
        <time>2020-10-03T12:32:57Z</time>
      </trkpt>
      <trkpt lat="42.75328" lon="1.44767">
        <ele>1555.55</ele>
        <time>2020-10-03T12:33:00Z</time>
      </trkpt>
      <trkpt lat="42.75326" lon="1.4475">
        <ele>1554.59</ele>
        <time>2020-10-03T12:33:14Z</time>
      </trkpt>
      <trkpt lat="42.75326" lon="1.44743">
        <ele>1552.19</ele>
        <time>2020-10-03T12:33:22Z</time>
      </trkpt>
      <trkpt lat="42.75328" lon="1.44733">
        <ele>1550.26</ele>
        <time>2020-10-03T12:33:30Z</time>
      </trkpt>
      <trkpt lat="42.75321" lon="1.44724">
        <ele>1549.3</ele>
        <time>2020-10-03T12:33:42Z</time>
      </trkpt>
      <trkpt lat="42.75315" lon="1.44723">
        <ele>1547.38</ele>
        <time>2020-10-03T12:33:56Z</time>
      </trkpt>
      <trkpt lat="42.75314" lon="1.44729">
        <ele>1544.5</ele>
        <time>2020-10-03T12:34:12Z</time>
      </trkpt>
      <trkpt lat="42.7531" lon="1.44727">
        <ele>1541.61</ele>
        <time>2020-10-03T12:34:24Z</time>
      </trkpt>
      <trkpt lat="42.7531" lon="1.4473">
        <ele>1541.61</ele>
        <time>2020-10-03T12:34:28Z</time>
      </trkpt>
      <trkpt lat="42.75313" lon="1.44741">
        <ele>1539.69</ele>
        <time>2020-10-03T12:34:41Z</time>
      </trkpt>
      <trkpt lat="42.75312" lon="1.44748">
        <ele>1537.77</ele>
        <time>2020-10-03T12:34:52Z</time>
      </trkpt>
      <trkpt lat="42.7531" lon="1.44755">
        <ele>1535.84</ele>
        <time>2020-10-03T12:34:58Z</time>
      </trkpt>
      <trkpt lat="42.75311" lon="1.44766">
        <ele>1533.44</ele>
        <time>2020-10-03T12:35:09Z</time>
      </trkpt>
      <trkpt lat="42.75308" lon="1.44768">
        <ele>1530.56</ele>
        <time>2020-10-03T12:35:21Z</time>
      </trkpt>
      <trkpt lat="42.75306" lon="1.4478">
        <ele>1528.63</ele>
        <time>2020-10-03T12:35:34Z</time>
      </trkpt>
      <trkpt lat="42.75302" lon="1.44789">
        <ele>1526.23</ele>
        <time>2020-10-03T12:35:43Z</time>
      </trkpt>
      <trkpt lat="42.753" lon="1.44791">
        <ele>1526.23</ele>
        <time>2020-10-03T12:35:46Z</time>
      </trkpt>
      <trkpt lat="42.75295" lon="1.44809">
        <ele>1524.79</ele>
        <time>2020-10-03T12:36:01Z</time>
      </trkpt>
      <trkpt lat="42.75294" lon="1.4481">
        <ele>1524.79</ele>
        <time>2020-10-03T12:36:02Z</time>
      </trkpt>
      <trkpt lat="42.75293" lon="1.44817">
        <ele>1523.35</ele>
        <time>2020-10-03T12:36:07Z</time>
      </trkpt>
      <trkpt lat="42.75289" lon="1.44832">
        <ele>1521.42</ele>
        <time>2020-10-03T12:36:22Z</time>
      </trkpt>
      <trkpt lat="42.75288" lon="1.44835">
        <ele>1520.94</ele>
        <time>2020-10-03T12:36:38Z</time>
      </trkpt>
      <trkpt lat="42.75286" lon="1.44838">
        <ele>1520.94</ele>
        <time>2020-10-03T12:36:58Z</time>
      </trkpt>
      <trkpt lat="42.75283" lon="1.44854">
        <ele>1519.02</ele>
        <time>2020-10-03T12:37:12Z</time>
      </trkpt>
      <trkpt lat="42.75279" lon="1.44866">
        <ele>1518.06</ele>
        <time>2020-10-03T12:37:22Z</time>
      </trkpt>
      <trkpt lat="42.75272" lon="1.44878">
        <ele>1517.58</ele>
        <time>2020-10-03T12:37:32Z</time>
      </trkpt>
      <trkpt lat="42.75269" lon="1.44885">
        <ele>1517.1</ele>
        <time>2020-10-03T12:37:37Z</time>
      </trkpt>
      <trkpt lat="42.75263" lon="1.44899">
        <ele>1516.62</ele>
        <time>2020-10-03T12:37:50Z</time>
      </trkpt>
      <trkpt lat="42.75258" lon="1.44915">
        <ele>1515.18</ele>
        <time>2020-10-03T12:38:03Z</time>
      </trkpt>
      <trkpt lat="42.75256" lon="1.44918">
        <ele>1514.21</ele>
        <time>2020-10-03T12:38:05Z</time>
      </trkpt>
      <trkpt lat="42.75248" lon="1.44931">
        <ele>1512.77</ele>
        <time>2020-10-03T12:38:19Z</time>
      </trkpt>
      <trkpt lat="42.75243" lon="1.44942">
        <ele>1509.89</ele>
        <time>2020-10-03T12:38:31Z</time>
      </trkpt>
      <trkpt lat="42.75236" lon="1.44953">
        <ele>1508.93</ele>
        <time>2020-10-03T12:38:43Z</time>
      </trkpt>
      <trkpt lat="42.75229" lon="1.44962">
        <ele>1505.56</ele>
        <time>2020-10-03T12:38:55Z</time>
      </trkpt>
      <trkpt lat="42.75223" lon="1.44972">
        <ele>1504.12</ele>
        <time>2020-10-03T12:39:07Z</time>
      </trkpt>
      <trkpt lat="42.75219" lon="1.44982">
        <ele>1500.76</ele>
        <time>2020-10-03T12:39:19Z</time>
      </trkpt>
      <trkpt lat="42.75212" lon="1.44993">
        <ele>1499.31</ele>
        <time>2020-10-03T12:39:31Z</time>
      </trkpt>
      <trkpt lat="42.75206" lon="1.45005">
        <ele>1497.87</ele>
        <time>2020-10-03T12:39:43Z</time>
      </trkpt>
      <trkpt lat="42.752" lon="1.45017">
        <ele>1494.03</ele>
        <time>2020-10-03T12:39:57Z</time>
      </trkpt>
      <trkpt lat="42.75196" lon="1.45025">
        <ele>1492.1</ele>
        <time>2020-10-03T12:40:05Z</time>
      </trkpt>
      <trkpt lat="42.75191" lon="1.45025">
        <ele>1490.66</ele>
        <time>2020-10-03T12:40:16Z</time>
      </trkpt>
      <trkpt lat="42.75192" lon="1.45013">
        <ele>1488.74</ele>
        <time>2020-10-03T12:40:30Z</time>
      </trkpt>
      <trkpt lat="42.75189" lon="1.45013">
        <ele>1485.85</ele>
        <time>2020-10-03T12:40:42Z</time>
      </trkpt>
      <trkpt lat="42.75182" lon="1.45017">
        <ele>1482.97</ele>
        <time>2020-10-03T12:40:55Z</time>
      </trkpt>
      <trkpt lat="42.75173" lon="1.45024">
        <ele>1480.57</ele>
        <time>2020-10-03T12:41:05Z</time>
      </trkpt>
      <trkpt lat="42.75168" lon="1.45033">
        <ele>1478.16</ele>
        <time>2020-10-03T12:41:17Z</time>
      </trkpt>
      <trkpt lat="42.75162" lon="1.45043">
        <ele>1475.76</ele>
        <time>2020-10-03T12:41:29Z</time>
      </trkpt>
      <trkpt lat="42.75162" lon="1.45044">
        <ele>1475.76</ele>
        <time>2020-10-03T12:41:30Z</time>
      </trkpt>
      <trkpt lat="42.75154" lon="1.45055">
        <ele>1473.36</ele>
        <time>2020-10-03T12:41:42Z</time>
      </trkpt>
      <trkpt lat="42.75149" lon="1.45064">
        <ele>1472.4</ele>
        <time>2020-10-03T12:41:54Z</time>
      </trkpt>
      <trkpt lat="42.75143" lon="1.45068">
        <ele>1472.4</ele>
        <time>2020-10-03T12:42:01Z</time>
      </trkpt>
      <trkpt lat="42.75135" lon="1.45077">
        <ele>1467.59</ele>
        <time>2020-10-03T12:42:16Z</time>
      </trkpt>
      <trkpt lat="42.7513" lon="1.45082">
        <ele>1465.67</ele>
        <time>2020-10-03T12:42:28Z</time>
      </trkpt>
      <trkpt lat="42.75129" lon="1.45083">
        <ele>1464.71</ele>
        <time>2020-10-03T12:42:30Z</time>
      </trkpt>
      <trkpt lat="42.75125" lon="1.45094">
        <ele>1462.78</ele>
        <time>2020-10-03T12:42:44Z</time>
      </trkpt>
      <trkpt lat="42.75121" lon="1.45091">
        <ele>1459.42</ele>
        <time>2020-10-03T12:42:58Z</time>
      </trkpt>
      <trkpt lat="42.75119" lon="1.45096">
        <ele>1457.5</ele>
        <time>2020-10-03T12:43:08Z</time>
      </trkpt>
      <trkpt lat="42.75117" lon="1.451">
        <ele>1457.02</ele>
        <time>2020-10-03T12:43:14Z</time>
      </trkpt>
      <trkpt lat="42.75115" lon="1.45107">
        <ele>1457.02</ele>
        <time>2020-10-03T12:43:22Z</time>
      </trkpt>
      <trkpt lat="42.7511" lon="1.45107">
        <ele>1454.61</ele>
        <time>2020-10-03T12:43:35Z</time>
      </trkpt>
      <trkpt lat="42.75111" lon="1.45096">
        <ele>1452.21</ele>
        <time>2020-10-03T12:43:47Z</time>
      </trkpt>
      <trkpt lat="42.75109" lon="1.45094">
        <ele>1451.25</ele>
        <time>2020-10-03T12:43:59Z</time>
      </trkpt>
      <trkpt lat="42.75106" lon="1.45102">
        <ele>1448.84</ele>
        <time>2020-10-03T12:44:12Z</time>
      </trkpt>
      <trkpt lat="42.751" lon="1.45112">
        <ele>1445.96</ele>
        <time>2020-10-03T12:44:25Z</time>
      </trkpt>
      <trkpt lat="42.75092" lon="1.45121">
        <ele>1443.56</ele>
        <time>2020-10-03T12:44:39Z</time>
      </trkpt>
      <trkpt lat="42.75087" lon="1.45133">
        <ele>1441.15</ele>
        <time>2020-10-03T12:44:51Z</time>
      </trkpt>
      <trkpt lat="42.75083" lon="1.4514">
        <ele>1438.75</ele>
        <time>2020-10-03T12:45:01Z</time>
      </trkpt>
      <trkpt lat="42.75082" lon="1.45144">
        <ele>1438.27</ele>
        <time>2020-10-03T12:45:05Z</time>
      </trkpt>
      <trkpt lat="42.75076" lon="1.45151">
        <ele>1436.35</ele>
        <time>2020-10-03T12:45:17Z</time>
      </trkpt>
      <trkpt lat="42.75075" lon="1.45144">
        <ele>1433.94</ele>
        <time>2020-10-03T12:45:29Z</time>
      </trkpt>
      <trkpt lat="42.75071" lon="1.45149">
        <ele>1432.5</ele>
        <time>2020-10-03T12:45:40Z</time>
      </trkpt>
      <trkpt lat="42.75065" lon="1.45155">
        <ele>1429.14</ele>
        <time>2020-10-03T12:45:54Z</time>
      </trkpt>
      <trkpt lat="42.75065" lon="1.45144">
        <ele>1424.81</ele>
        <time>2020-10-03T12:46:06Z</time>
      </trkpt>
      <trkpt lat="42.75062" lon="1.45129">
        <ele>1422.89</ele>
        <time>2020-10-03T12:46:22Z</time>
      </trkpt>
      <trkpt lat="42.75062" lon="1.45127">
        <ele>1422.89</ele>
        <time>2020-10-03T12:46:24Z</time>
      </trkpt>
      <trkpt lat="42.75065" lon="1.45112">
        <ele>1418.56</ele>
        <time>2020-10-03T12:46:39Z</time>
      </trkpt>
      <trkpt lat="42.75061" lon="1.45113">
        <ele>1417.12</ele>
        <time>2020-10-03T12:46:46Z</time>
      </trkpt>
      <trkpt lat="42.75057" lon="1.45105">
        <ele>1414.24</ele>
        <time>2020-10-03T12:47:01Z</time>
      </trkpt>
      <trkpt lat="42.75054" lon="1.45103">
        <ele>1411.83</ele>
        <time>2020-10-03T12:47:14Z</time>
      </trkpt>
      <trkpt lat="42.7505" lon="1.45107">
        <ele>1411.35</ele>
        <time>2020-10-03T12:47:21Z</time>
      </trkpt>
      <trkpt lat="42.75048" lon="1.45112">
        <ele>1409.43</ele>
        <time>2020-10-03T12:47:26Z</time>
      </trkpt>
      <trkpt lat="42.75044" lon="1.45124">
        <ele>1406.07</ele>
        <time>2020-10-03T12:47:39Z</time>
      </trkpt>
      <trkpt lat="42.75036" lon="1.45135">
        <ele>1404.62</ele>
        <time>2020-10-03T12:47:52Z</time>
      </trkpt>
      <trkpt lat="42.75032" lon="1.45127">
        <ele>1401.74</ele>
        <time>2020-10-03T12:48:06Z</time>
      </trkpt>
      <trkpt lat="42.75029" lon="1.45117">
        <ele>1398.37</ele>
        <time>2020-10-03T12:48:19Z</time>
      </trkpt>
      <trkpt lat="42.75029" lon="1.45116">
        <ele>1398.37</ele>
        <time>2020-10-03T12:48:21Z</time>
      </trkpt>
      <trkpt lat="42.75025" lon="1.45115">
        <ele>1395.49</ele>
        <time>2020-10-03T12:48:35Z</time>
      </trkpt>
      <trkpt lat="42.75021" lon="1.45119">
        <ele>1392.13</ele>
        <time>2020-10-03T12:48:43Z</time>
      </trkpt>
      <trkpt lat="42.75021" lon="1.45119">
        <ele>1392.61</ele>
        <time>2020-10-03T12:48:44Z</time>
      </trkpt>
      <trkpt lat="42.75016" lon="1.45125">
        <ele>1390.68</ele>
        <time>2020-10-03T12:48:57Z</time>
      </trkpt>
      <trkpt lat="42.75014" lon="1.45127">
        <ele>1389.24</ele>
        <time>2020-10-03T12:49:00Z</time>
      </trkpt>
      <trkpt lat="42.75009" lon="1.45124">
        <ele>1386.84</ele>
        <time>2020-10-03T12:49:14Z</time>
      </trkpt>
      <trkpt lat="42.75004" lon="1.45132">
        <ele>1383.96</ele>
        <time>2020-10-03T12:49:29Z</time>
      </trkpt>
      <trkpt lat="42.74998" lon="1.45137">
        <ele>1381.55</ele>
        <time>2020-10-03T12:49:43Z</time>
      </trkpt>
      <trkpt lat="42.74989" lon="1.45134">
        <ele>1378.19</ele>
        <time>2020-10-03T12:49:58Z</time>
      </trkpt>
      <trkpt lat="42.74984" lon="1.4514">
        <ele>1374.82</ele>
        <time>2020-10-03T12:50:14Z</time>
      </trkpt>
      <trkpt lat="42.74979" lon="1.4513">
        <ele>1371.94</ele>
        <time>2020-10-03T12:50:27Z</time>
      </trkpt>
      <trkpt lat="42.74979" lon="1.45121">
        <ele>1370.5</ele>
        <time>2020-10-03T12:50:37Z</time>
      </trkpt>
      <trkpt lat="42.74979" lon="1.45116">
        <ele>1369.54</ele>
        <time>2020-10-03T12:50:41Z</time>
      </trkpt>
      <trkpt lat="42.74977" lon="1.45113">
        <ele>1368.57</ele>
        <time>2020-10-03T12:50:53Z</time>
      </trkpt>
      <trkpt lat="42.74974" lon="1.45117">
        <ele>1365.69</ele>
        <time>2020-10-03T12:51:05Z</time>
      </trkpt>
      <trkpt lat="42.74976" lon="1.45116">
        <ele>1365.21</ele>
        <time>2020-10-03T12:51:35Z</time>
      </trkpt>
      <trkpt lat="42.74971" lon="1.4512">
        <ele>1363.29</ele>
        <time>2020-10-03T12:51:50Z</time>
      </trkpt>
      <trkpt lat="42.74967" lon="1.45121">
        <ele>1361.36</ele>
        <time>2020-10-03T12:52:05Z</time>
      </trkpt>
      <trkpt lat="42.74962" lon="1.45119">
        <ele>1358.48</ele>
        <time>2020-10-03T12:52:18Z</time>
      </trkpt>
      <trkpt lat="42.74961" lon="1.45121">
        <ele>1358</ele>
        <time>2020-10-03T12:52:22Z</time>
      </trkpt>
      <trkpt lat="42.74954" lon="1.45129">
        <ele>1354.63</ele>
        <time>2020-10-03T12:52:36Z</time>
      </trkpt>
      <trkpt lat="42.74951" lon="1.45131">
        <ele>1353.19</ele>
        <time>2020-10-03T12:52:42Z</time>
      </trkpt>
      <trkpt lat="42.7495" lon="1.4513">
        <ele>1355.12</ele>
        <time>2020-10-03T12:52:44Z</time>
      </trkpt>
      <trkpt lat="42.74948" lon="1.45131">
        <ele>1353.19</ele>
        <time>2020-10-03T12:52:47Z</time>
      </trkpt>
      <trkpt lat="42.74946" lon="1.45139">
        <ele>1351.27</ele>
        <time>2020-10-03T12:53:01Z</time>
      </trkpt>
      <trkpt lat="42.74943" lon="1.45151">
        <ele>1348.39</ele>
        <time>2020-10-03T12:53:15Z</time>
      </trkpt>
      <trkpt lat="42.74943" lon="1.45159">
        <ele>1347.91</ele>
        <time>2020-10-03T12:53:21Z</time>
      </trkpt>
      <trkpt lat="42.74945" lon="1.45179">
        <ele>1345.98</ele>
        <time>2020-10-03T12:53:36Z</time>
      </trkpt>
      <trkpt lat="42.74939" lon="1.45182">
        <ele>1344.06</ele>
        <time>2020-10-03T12:53:49Z</time>
      </trkpt>
      <trkpt lat="42.74934" lon="1.45194">
        <ele>1340.7</ele>
        <time>2020-10-03T12:54:05Z</time>
      </trkpt>
      <trkpt lat="42.74927" lon="1.45203">
        <ele>1338.29</ele>
        <time>2020-10-03T12:54:16Z</time>
      </trkpt>
      <trkpt lat="42.74924" lon="1.4521">
        <ele>1336.37</ele>
        <time>2020-10-03T12:54:31Z</time>
      </trkpt>
      <trkpt lat="42.74916" lon="1.45206">
        <ele>1333.01</ele>
        <time>2020-10-03T12:54:46Z</time>
      </trkpt>
      <trkpt lat="42.7491" lon="1.45199">
        <ele>1331.08</ele>
        <time>2020-10-03T12:54:58Z</time>
      </trkpt>
      <trkpt lat="42.74903" lon="1.45203">
        <ele>1328.2</ele>
        <time>2020-10-03T12:55:12Z</time>
      </trkpt>
      <trkpt lat="42.74902" lon="1.45205">
        <ele>1328.2</ele>
        <time>2020-10-03T12:55:14Z</time>
      </trkpt>
      <trkpt lat="42.74902" lon="1.45219">
        <ele>1325.31</ele>
        <time>2020-10-03T12:55:29Z</time>
      </trkpt>
      <trkpt lat="42.74901" lon="1.45229">
        <ele>1321.47</ele>
        <time>2020-10-03T12:55:41Z</time>
      </trkpt>
      <trkpt lat="42.74901" lon="1.4523">
        <ele>1321.47</ele>
        <time>2020-10-03T12:55:42Z</time>
      </trkpt>
      <trkpt lat="42.74899" lon="1.45243">
        <ele>1320.03</ele>
        <time>2020-10-03T12:55:55Z</time>
      </trkpt>
      <trkpt lat="42.749" lon="1.45254">
        <ele>1317.14</ele>
        <time>2020-10-03T12:56:08Z</time>
      </trkpt>
      <trkpt lat="42.74897" lon="1.45265">
        <ele>1315.22</ele>
        <time>2020-10-03T12:56:22Z</time>
      </trkpt>
      <trkpt lat="42.74889" lon="1.45267">
        <ele>1312.34</ele>
        <time>2020-10-03T12:56:35Z</time>
      </trkpt>
      <trkpt lat="42.74881" lon="1.45263">
        <ele>1309.45</ele>
        <time>2020-10-03T12:56:48Z</time>
      </trkpt>
      <trkpt lat="42.74878" lon="1.45264">
        <ele>1308.01</ele>
        <time>2020-10-03T12:56:53Z</time>
      </trkpt>
      <trkpt lat="42.74878" lon="1.45266">
        <ele>1308.01</ele>
        <time>2020-10-03T12:56:55Z</time>
      </trkpt>
      <trkpt lat="42.74878" lon="1.45284">
        <ele>1306.09</ele>
        <time>2020-10-03T12:57:10Z</time>
      </trkpt>
      <trkpt lat="42.74876" lon="1.45291">
        <ele>1303.69</ele>
        <time>2020-10-03T12:57:25Z</time>
      </trkpt>
      <trkpt lat="42.74876" lon="1.45301">
        <ele>1302.24</ele>
        <time>2020-10-03T12:57:36Z</time>
      </trkpt>
      <trkpt lat="42.74872" lon="1.45304">
        <ele>1301.28</ele>
        <time>2020-10-03T12:57:53Z</time>
      </trkpt>
      <trkpt lat="42.74871" lon="1.45306">
        <ele>1302.72</ele>
        <time>2020-10-03T12:58:01Z</time>
      </trkpt>
      <trkpt lat="42.74873" lon="1.45307">
        <ele>1303.2</ele>
        <time>2020-10-03T12:58:07Z</time>
      </trkpt>
      <trkpt lat="42.74872" lon="1.45307">
        <ele>1301.28</ele>
        <time>2020-10-03T12:58:20Z</time>
      </trkpt>
      <trkpt lat="42.74872" lon="1.45308">
        <ele>1302.24</ele>
        <time>2020-10-03T12:58:23Z</time>
      </trkpt>
      <trkpt lat="42.7487" lon="1.45306">
        <ele>1301.28</ele>
        <time>2020-10-03T12:58:48Z</time>
      </trkpt>
      <trkpt lat="42.74871" lon="1.45303">
        <ele>1301.28</ele>
        <time>2020-10-03T12:59:16Z</time>
      </trkpt>
      <trkpt lat="42.7487" lon="1.45303">
        <ele>1301.28</ele>
        <time>2020-10-03T12:59:39Z</time>
      </trkpt>
      <trkpt lat="42.74866" lon="1.45312">
        <ele>1299.36</ele>
        <time>2020-10-03T12:59:51Z</time>
      </trkpt>
      <trkpt lat="42.74859" lon="1.45317">
        <ele>1296.48</ele>
        <time>2020-10-03T13:00:06Z</time>
      </trkpt>
      <trkpt lat="42.74855" lon="1.45311">
        <ele>1294.07</ele>
        <time>2020-10-03T13:00:16Z</time>
      </trkpt>
      <trkpt lat="42.74852" lon="1.45306">
        <ele>1293.59</ele>
        <time>2020-10-03T13:00:29Z</time>
      </trkpt>
      <trkpt lat="42.74848" lon="1.45302">
        <ele>1291.67</ele>
        <time>2020-10-03T13:00:38Z</time>
      </trkpt>
      <trkpt lat="42.74838" lon="1.45296">
        <ele>1289.75</ele>
        <time>2020-10-03T13:00:53Z</time>
      </trkpt>
      <trkpt lat="42.74828" lon="1.45293">
        <ele>1286.38</ele>
        <time>2020-10-03T13:01:07Z</time>
      </trkpt>
      <trkpt lat="42.74825" lon="1.45284">
        <ele>1283.5</ele>
        <time>2020-10-03T13:01:21Z</time>
      </trkpt>
      <trkpt lat="42.74827" lon="1.45278">
        <ele>1281.57</ele>
        <time>2020-10-03T13:01:34Z</time>
      </trkpt>
      <trkpt lat="42.74822" lon="1.4528">
        <ele>1279.65</ele>
        <time>2020-10-03T13:01:45Z</time>
      </trkpt>
      <trkpt lat="42.74821" lon="1.45275">
        <ele>1278.69</ele>
        <time>2020-10-03T13:01:49Z</time>
      </trkpt>
      <trkpt lat="42.7482" lon="1.45271">
        <ele>1278.21</ele>
        <time>2020-10-03T13:01:52Z</time>
      </trkpt>
      <trkpt lat="42.74816" lon="1.45267">
        <ele>1275.33</ele>
        <time>2020-10-03T13:02:04Z</time>
      </trkpt>
      <trkpt lat="42.74814" lon="1.45271">
        <ele>1273.4</ele>
        <time>2020-10-03T13:02:11Z</time>
      </trkpt>
      <trkpt lat="42.74811" lon="1.45281">
        <ele>1271.48</ele>
        <time>2020-10-03T13:02:22Z</time>
      </trkpt>
      <trkpt lat="42.74811" lon="1.45297">
        <ele>1270.04</ele>
        <time>2020-10-03T13:02:34Z</time>
      </trkpt>
      <trkpt lat="42.74808" lon="1.45311">
        <ele>1268.12</ele>
        <time>2020-10-03T13:02:46Z</time>
      </trkpt>
      <trkpt lat="42.74807" lon="1.45317">
        <ele>1268.12</ele>
        <time>2020-10-03T13:02:52Z</time>
      </trkpt>
      <trkpt lat="42.74807" lon="1.45322">
        <ele>1266.67</ele>
        <time>2020-10-03T13:02:56Z</time>
      </trkpt>
      <trkpt lat="42.74809" lon="1.45337">
        <ele>1264.27</ele>
        <time>2020-10-03T13:03:09Z</time>
      </trkpt>
      <trkpt lat="42.74812" lon="1.45348">
        <ele>1261.87</ele>
        <time>2020-10-03T13:03:23Z</time>
      </trkpt>
      <trkpt lat="42.74814" lon="1.45358">
        <ele>1258.02</ele>
        <time>2020-10-03T13:03:35Z</time>
      </trkpt>
      <trkpt lat="42.74814" lon="1.45369">
        <ele>1255.14</ele>
        <time>2020-10-03T13:03:45Z</time>
      </trkpt>
      <trkpt lat="42.74815" lon="1.45378">
        <ele>1252.74</ele>
        <time>2020-10-03T13:03:54Z</time>
      </trkpt>
      <trkpt lat="42.74814" lon="1.45389">
        <ele>1249.37</ele>
        <time>2020-10-03T13:04:04Z</time>
      </trkpt>
      <trkpt lat="42.74814" lon="1.45396">
        <ele>1248.41</ele>
        <time>2020-10-03T13:04:11Z</time>
      </trkpt>
      <trkpt lat="42.7481" lon="1.45393">
        <ele>1245.04</ele>
        <time>2020-10-03T13:04:23Z</time>
      </trkpt>
      <trkpt lat="42.74804" lon="1.45395">
        <ele>1242.16</ele>
        <time>2020-10-03T13:04:33Z</time>
      </trkpt>
      <trkpt lat="42.74799" lon="1.45403">
        <ele>1238.8</ele>
        <time>2020-10-03T13:04:45Z</time>
      </trkpt>
      <trkpt lat="42.74799" lon="1.45406">
        <ele>1238.32</ele>
        <time>2020-10-03T13:04:50Z</time>
      </trkpt>
      <trkpt lat="42.74793" lon="1.45407">
        <ele>1235.91</ele>
        <time>2020-10-03T13:05:02Z</time>
      </trkpt>
      <trkpt lat="42.74786" lon="1.4541">
        <ele>1233.03</ele>
        <time>2020-10-03T13:05:15Z</time>
      </trkpt>
      <trkpt lat="42.74774" lon="1.45408">
        <ele>1230.14</ele>
        <time>2020-10-03T13:05:29Z</time>
      </trkpt>
      <trkpt lat="42.74771" lon="1.45415">
        <ele>1227.74</ele>
        <time>2020-10-03T13:05:44Z</time>
      </trkpt>
      <trkpt lat="42.74763" lon="1.45418">
        <ele>1224.38</ele>
        <time>2020-10-03T13:05:58Z</time>
      </trkpt>
      <trkpt lat="42.74758" lon="1.45416">
        <ele>1221.97</ele>
        <time>2020-10-03T13:06:11Z</time>
      </trkpt>
      <trkpt lat="42.74755" lon="1.45423">
        <ele>1219.57</ele>
        <time>2020-10-03T13:06:26Z</time>
      </trkpt>
      <trkpt lat="42.74754" lon="1.45421">
        <ele>1219.57</ele>
        <time>2020-10-03T13:06:45Z</time>
      </trkpt>
      <trkpt lat="42.74756" lon="1.45418">
        <ele>1218.61</ele>
        <time>2020-10-03T13:07:17Z</time>
      </trkpt>
      <trkpt lat="42.74762" lon="1.45418">
        <ele>1218.61</ele>
        <time>2020-10-03T13:07:41Z</time>
      </trkpt>
      <trkpt lat="42.74756" lon="1.45421">
        <ele>1218.61</ele>
        <time>2020-10-03T13:08:04Z</time>
      </trkpt>
      <trkpt lat="42.74754" lon="1.45422">
        <ele>1218.61</ele>
        <time>2020-10-03T13:08:19Z</time>
      </trkpt>
      <trkpt lat="42.74749" lon="1.45421">
        <ele>1218.61</ele>
        <time>2020-10-03T13:08:42Z</time>
      </trkpt>
      <trkpt lat="42.7475" lon="1.45419">
        <ele>1220.05</ele>
        <time>2020-10-03T13:09:07Z</time>
      </trkpt>
      <trkpt lat="42.74752" lon="1.4542">
        <ele>1220.05</ele>
        <time>2020-10-03T13:09:29Z</time>
      </trkpt>
      <trkpt lat="42.74748" lon="1.4542">
        <ele>1218.13</ele>
        <time>2020-10-03T13:09:34Z</time>
      </trkpt>
      <trkpt lat="42.74744" lon="1.45418">
        <ele>1217.65</ele>
        <time>2020-10-03T13:09:38Z</time>
      </trkpt>
      <trkpt lat="42.74736" lon="1.45418">
        <ele>1216.21</ele>
        <time>2020-10-03T13:09:46Z</time>
      </trkpt>
      <trkpt lat="42.74734" lon="1.45432">
        <ele>1213.32</ele>
        <time>2020-10-03T13:09:59Z</time>
      </trkpt>
      <trkpt lat="42.74732" lon="1.45445">
        <ele>1210.44</ele>
        <time>2020-10-03T13:10:09Z</time>
      </trkpt>
      <trkpt lat="42.74733" lon="1.45458">
        <ele>1208.51</ele>
        <time>2020-10-03T13:10:21Z</time>
      </trkpt>
      <trkpt lat="42.74732" lon="1.45458">
        <ele>1208.03</ele>
        <time>2020-10-03T13:10:22Z</time>
      </trkpt>
      <trkpt lat="42.74732" lon="1.45467">
        <ele>1206.59</ele>
        <time>2020-10-03T13:10:31Z</time>
      </trkpt>
      <trkpt lat="42.74735" lon="1.45481">
        <ele>1203.23</ele>
        <time>2020-10-03T13:10:44Z</time>
      </trkpt>
      <trkpt lat="42.74732" lon="1.45481">
        <ele>1201.3</ele>
        <time>2020-10-03T13:10:50Z</time>
      </trkpt>
      <trkpt lat="42.74728" lon="1.4548">
        <ele>1201.3</ele>
        <time>2020-10-03T13:10:55Z</time>
      </trkpt>
      <trkpt lat="42.74724" lon="1.45479">
        <ele>1199.86</ele>
        <time>2020-10-03T13:11:00Z</time>
      </trkpt>
      <trkpt lat="42.74714" lon="1.45476">
        <ele>1196.5</ele>
        <time>2020-10-03T13:11:13Z</time>
      </trkpt>
      <trkpt lat="42.74714" lon="1.45487">
        <ele>1193.61</ele>
        <time>2020-10-03T13:11:24Z</time>
      </trkpt>
      <trkpt lat="42.74713" lon="1.45494">
        <ele>1192.17</ele>
        <time>2020-10-03T13:11:31Z</time>
      </trkpt>
      <trkpt lat="42.74712" lon="1.45499">
        <ele>1191.21</ele>
        <time>2020-10-03T13:11:36Z</time>
      </trkpt>
      <trkpt lat="42.74702" lon="1.45502">
        <ele>1189.29</ele>
        <time>2020-10-03T13:11:46Z</time>
      </trkpt>
      <trkpt lat="42.74694" lon="1.455">
        <ele>1187.85</ele>
        <time>2020-10-03T13:11:54Z</time>
      </trkpt>
      <trkpt lat="42.74692" lon="1.45503">
        <ele>1186.88</ele>
        <time>2020-10-03T13:11:56Z</time>
      </trkpt>
      <trkpt lat="42.74693" lon="1.4551">
        <ele>1186.4</ele>
        <time>2020-10-03T13:12:00Z</time>
      </trkpt>
      <trkpt lat="42.7469" lon="1.45517">
        <ele>1183.52</ele>
        <time>2020-10-03T13:12:12Z</time>
      </trkpt>
      <trkpt lat="42.74687" lon="1.45519">
        <ele>1181.6</ele>
        <time>2020-10-03T13:12:24Z</time>
      </trkpt>
      <trkpt lat="42.74688" lon="1.45523">
        <ele>1181.12</ele>
        <time>2020-10-03T13:12:28Z</time>
      </trkpt>
      <trkpt lat="42.74692" lon="1.4554">
        <ele>1179.19</ele>
        <time>2020-10-03T13:12:42Z</time>
      </trkpt>
      <trkpt lat="42.74688" lon="1.45542">
        <ele>1176.31</ele>
        <time>2020-10-03T13:12:53Z</time>
      </trkpt>
      <trkpt lat="42.74684" lon="1.45543">
        <ele>1174.87</ele>
        <time>2020-10-03T13:13:01Z</time>
      </trkpt>
      <trkpt lat="42.7468" lon="1.4555">
        <ele>1172.47</ele>
        <time>2020-10-03T13:13:14Z</time>
      </trkpt>
      <trkpt lat="42.74675" lon="1.45551">
        <ele>1169.58</ele>
        <time>2020-10-03T13:13:28Z</time>
      </trkpt>
      <trkpt lat="42.74673" lon="1.4555">
        <ele>1169.1</ele>
        <time>2020-10-03T13:13:32Z</time>
      </trkpt>
      <trkpt lat="42.74671" lon="1.45559">
        <ele>1167.18</ele>
        <time>2020-10-03T13:13:45Z</time>
      </trkpt>
      <trkpt lat="42.74668" lon="1.45559">
        <ele>1164.77</ele>
        <time>2020-10-03T13:13:57Z</time>
      </trkpt>
      <trkpt lat="42.74668" lon="1.45571">
        <ele>1162.37</ele>
        <time>2020-10-03T13:14:10Z</time>
      </trkpt>
      <trkpt lat="42.74666" lon="1.4558">
        <ele>1160.45</ele>
        <time>2020-10-03T13:14:22Z</time>
      </trkpt>
      <trkpt lat="42.74661" lon="1.45579">
        <ele>1159.97</ele>
        <time>2020-10-03T13:14:28Z</time>
      </trkpt>
      <trkpt lat="42.74652" lon="1.45579">
        <ele>1157.56</ele>
        <time>2020-10-03T13:14:40Z</time>
      </trkpt>
      <trkpt lat="42.74651" lon="1.45578">
        <ele>1157.56</ele>
        <time>2020-10-03T13:14:41Z</time>
      </trkpt>
      <trkpt lat="42.74647" lon="1.45574">
        <ele>1157.08</ele>
        <time>2020-10-03T13:14:47Z</time>
      </trkpt>
      <trkpt lat="42.74644" lon="1.45582">
        <ele>1155.16</ele>
        <time>2020-10-03T13:15:00Z</time>
      </trkpt>
      <trkpt lat="42.74648" lon="1.45588">
        <ele>1152.76</ele>
        <time>2020-10-03T13:15:12Z</time>
      </trkpt>
      <trkpt lat="42.74648" lon="1.45592">
        <ele>1150.35</ele>
        <time>2020-10-03T13:15:24Z</time>
      </trkpt>
      <trkpt lat="42.74647" lon="1.4559">
        <ele>1149.39</ele>
        <time>2020-10-03T13:15:34Z</time>
      </trkpt>
      <trkpt lat="42.74646" lon="1.4559">
        <ele>1149.39</ele>
        <time>2020-10-03T13:15:36Z</time>
      </trkpt>
      <trkpt lat="42.74638" lon="1.45582">
        <ele>1149.39</ele>
        <time>2020-10-03T13:15:46Z</time>
      </trkpt>
      <trkpt lat="42.74637" lon="1.45578">
        <ele>1150.35</ele>
        <time>2020-10-03T13:15:50Z</time>
      </trkpt>
      <trkpt lat="42.74636" lon="1.45578">
        <ele>1150.35</ele>
        <time>2020-10-03T13:16:02Z</time>
      </trkpt>
      <trkpt lat="42.74642" lon="1.45584">
        <ele>1150.35</ele>
        <time>2020-10-03T13:16:09Z</time>
      </trkpt>
      <trkpt lat="42.74644" lon="1.45589">
        <ele>1150.35</ele>
        <time>2020-10-03T13:16:13Z</time>
      </trkpt>
      <trkpt lat="42.74647" lon="1.4559">
        <ele>1148.91</ele>
        <time>2020-10-03T13:16:15Z</time>
      </trkpt>
      <trkpt lat="42.74647" lon="1.45591">
        <ele>1148.91</ele>
        <time>2020-10-03T13:16:16Z</time>
      </trkpt>
      <trkpt lat="42.74662" lon="1.45609">
        <ele>1148.43</ele>
        <time>2020-10-03T13:16:33Z</time>
      </trkpt>
      <trkpt lat="42.74669" lon="1.45631">
        <ele>1148.43</ele>
        <time>2020-10-03T13:16:49Z</time>
      </trkpt>
      <trkpt lat="42.74676" lon="1.45655">
        <ele>1148.43</ele>
        <time>2020-10-03T13:17:06Z</time>
      </trkpt>
      <trkpt lat="42.74676" lon="1.45682">
        <ele>1149.39</ele>
        <time>2020-10-03T13:17:22Z</time>
      </trkpt>
      <trkpt lat="42.74673" lon="1.45694">
        <ele>1147.47</ele>
        <time>2020-10-03T13:17:30Z</time>
      </trkpt>
      <trkpt lat="42.7467" lon="1.45699">
        <ele>1147.47</ele>
        <time>2020-10-03T13:17:34Z</time>
      </trkpt>
      <trkpt lat="42.74669" lon="1.45704">
        <ele>1147.47</ele>
        <time>2020-10-03T13:17:38Z</time>
      </trkpt>
      <trkpt lat="42.74667" lon="1.45707">
        <ele>1148.91</ele>
        <time>2020-10-03T13:17:40Z</time>
      </trkpt>
      <trkpt lat="42.74664" lon="1.4572">
        <ele>1149.39</ele>
        <time>2020-10-03T13:17:50Z</time>
      </trkpt>
      <trkpt lat="42.74664" lon="1.45722">
        <ele>1147.95</ele>
        <time>2020-10-03T13:17:51Z</time>
      </trkpt>
      <trkpt lat="42.74664" lon="1.45725">
        <ele>1147.47</ele>
        <time>2020-10-03T13:17:53Z</time>
      </trkpt>
      <trkpt lat="42.74663" lon="1.45728">
        <ele>1148.91</ele>
        <time>2020-10-03T13:17:55Z</time>
      </trkpt>
      <trkpt lat="42.74662" lon="1.45729">
        <ele>1147.47</ele>
        <time>2020-10-03T13:17:57Z</time>
      </trkpt>
      <trkpt lat="42.7466" lon="1.45746">
        <ele>1147.47</ele>
        <time>2020-10-03T13:18:10Z</time>
      </trkpt>
      <trkpt lat="42.74662" lon="1.45772">
        <ele>1147.47</ele>
        <time>2020-10-03T13:18:27Z</time>
      </trkpt>
      <trkpt lat="42.74663" lon="1.4578">
        <ele>1146.99</ele>
        <time>2020-10-03T13:18:40Z</time>
      </trkpt>
      <trkpt lat="42.74665" lon="1.45796">
        <ele>1147.47</ele>
        <time>2020-10-03T13:18:50Z</time>
      </trkpt>
      <trkpt lat="42.74663" lon="1.45805">
        <ele>1146.99</ele>
        <time>2020-10-03T13:18:56Z</time>
      </trkpt>
      <trkpt lat="42.74666" lon="1.45829">
        <ele>1146.99</ele>
        <time>2020-10-03T13:19:12Z</time>
      </trkpt>
      <trkpt lat="42.74671" lon="1.45842">
        <ele>1146.51</ele>
        <time>2020-10-03T13:19:22Z</time>
      </trkpt>
      <trkpt lat="42.74673" lon="1.45851">
        <ele>1148.43</ele>
        <time>2020-10-03T13:19:29Z</time>
      </trkpt>
      <trkpt lat="42.74674" lon="1.45853">
        <ele>1146.99</ele>
        <time>2020-10-03T13:19:32Z</time>
      </trkpt>
      <trkpt lat="42.74674" lon="1.45853">
        <ele>1149.39</ele>
        <time>2020-10-03T13:19:36Z</time>
      </trkpt>
      <trkpt lat="42.74674" lon="1.45853">
        <ele>1147.47</ele>
        <time>2020-10-03T13:19:38Z</time>
      </trkpt>
      <trkpt lat="42.74676" lon="1.45859">
        <ele>1146.99</ele>
        <time>2020-10-03T13:19:44Z</time>
      </trkpt>
      <trkpt lat="42.74687" lon="1.4587">
        <ele>1148.43</ele>
        <time>2020-10-03T13:19:55Z</time>
      </trkpt>
      <trkpt lat="42.74693" lon="1.45875">
        <ele>1147.95</ele>
        <time>2020-10-03T13:20:01Z</time>
      </trkpt>
      <trkpt lat="42.74695" lon="1.45878">
        <ele>1146.99</ele>
        <time>2020-10-03T13:20:04Z</time>
      </trkpt>
      <trkpt lat="42.74704" lon="1.45882">
        <ele>1148.43</ele>
        <time>2020-10-03T13:20:12Z</time>
      </trkpt>
      <trkpt lat="42.74707" lon="1.45885">
        <ele>1146.99</ele>
        <time>2020-10-03T13:20:15Z</time>
      </trkpt>
      <trkpt lat="42.74715" lon="1.4589">
        <ele>1148.43</ele>
        <time>2020-10-03T13:20:23Z</time>
      </trkpt>
      <trkpt lat="42.74718" lon="1.45891">
        <ele>1146.51</ele>
        <time>2020-10-03T13:20:25Z</time>
      </trkpt>
      <trkpt lat="42.74731" lon="1.459">
        <ele>1147.47</ele>
        <time>2020-10-03T13:20:38Z</time>
      </trkpt>
      <trkpt lat="42.74748" lon="1.45906">
        <ele>1146.99</ele>
        <time>2020-10-03T13:20:53Z</time>
      </trkpt>
      <trkpt lat="42.74761" lon="1.45923">
        <ele>1147.95</ele>
        <time>2020-10-03T13:21:09Z</time>
      </trkpt>
      <trkpt lat="42.74762" lon="1.45923">
        <ele>1147.95</ele>
        <time>2020-10-03T13:21:10Z</time>
      </trkpt>
      <trkpt lat="42.74764" lon="1.45925">
        <ele>1146.51</ele>
        <time>2020-10-03T13:21:12Z</time>
      </trkpt>
      <trkpt lat="42.74766" lon="1.45927">
        <ele>1147.47</ele>
        <time>2020-10-03T13:21:14Z</time>
      </trkpt>
      <trkpt lat="42.74771" lon="1.4594">
        <ele>1147.95</ele>
        <time>2020-10-03T13:21:23Z</time>
      </trkpt>
      <trkpt lat="42.74772" lon="1.45943">
        <ele>1146.51</ele>
        <time>2020-10-03T13:21:25Z</time>
      </trkpt>
      <trkpt lat="42.74787" lon="1.45954">
        <ele>1146.51</ele>
        <time>2020-10-03T13:21:40Z</time>
      </trkpt>
      <trkpt lat="42.74803" lon="1.45969">
        <ele>1146.51</ele>
        <time>2020-10-03T13:21:57Z</time>
      </trkpt>
      <trkpt lat="42.74813" lon="1.45976">
        <ele>1147.47</ele>
        <time>2020-10-03T13:22:06Z</time>
      </trkpt>
      <trkpt lat="42.74815" lon="1.45979">
        <ele>1146.03</ele>
        <time>2020-10-03T13:22:09Z</time>
      </trkpt>
      <trkpt lat="42.74818" lon="1.45982">
        <ele>1147.47</ele>
        <time>2020-10-03T13:22:12Z</time>
      </trkpt>
      <trkpt lat="42.74823" lon="1.45983">
        <ele>1145.55</ele>
        <time>2020-10-03T13:22:16Z</time>
      </trkpt>
      <trkpt lat="42.7483" lon="1.45984">
        <ele>1146.99</ele>
        <time>2020-10-03T13:22:24Z</time>
      </trkpt>
      <trkpt lat="42.74831" lon="1.45985">
        <ele>1147.47</ele>
        <time>2020-10-03T13:22:25Z</time>
      </trkpt>
      <trkpt lat="42.74834" lon="1.45985">
        <ele>1146.03</ele>
        <time>2020-10-03T13:22:27Z</time>
      </trkpt>
      <trkpt lat="42.74837" lon="1.45985">
        <ele>1146.99</ele>
        <time>2020-10-03T13:22:30Z</time>
      </trkpt>
      <trkpt lat="42.74841" lon="1.45987">
        <ele>1146.03</ele>
        <time>2020-10-03T13:22:33Z</time>
      </trkpt>
      <trkpt lat="42.74845" lon="1.45988">
        <ele>1147.47</ele>
        <time>2020-10-03T13:22:37Z</time>
      </trkpt>
      <trkpt lat="42.74848" lon="1.45989">
        <ele>1146.03</ele>
        <time>2020-10-03T13:22:40Z</time>
      </trkpt>
      <trkpt lat="42.74849" lon="1.45989">
        <ele>1146.03</ele>
        <time>2020-10-03T13:22:41Z</time>
      </trkpt>
      <trkpt lat="42.74856" lon="1.45994">
        <ele>1147.47</ele>
        <time>2020-10-03T13:22:47Z</time>
      </trkpt>
      <trkpt lat="42.74864" lon="1.46001">
        <ele>1146.03</ele>
        <time>2020-10-03T13:22:56Z</time>
      </trkpt>
      <trkpt lat="42.74866" lon="1.46004">
        <ele>1147.47</ele>
        <time>2020-10-03T13:22:58Z</time>
      </trkpt>
      <trkpt lat="42.7487" lon="1.46008">
        <ele>1146.03</ele>
        <time>2020-10-03T13:23:03Z</time>
      </trkpt>
      <trkpt lat="42.74878" lon="1.46024">
        <ele>1146.51</ele>
        <time>2020-10-03T13:23:15Z</time>
      </trkpt>
      <trkpt lat="42.74879" lon="1.46025">
        <ele>1146.51</ele>
        <time>2020-10-03T13:23:16Z</time>
      </trkpt>
      <trkpt lat="42.7489" lon="1.46042">
        <ele>1147.47</ele>
        <time>2020-10-03T13:23:30Z</time>
      </trkpt>
      <trkpt lat="42.74892" lon="1.46045">
        <ele>1147.47</ele>
        <time>2020-10-03T13:23:32Z</time>
      </trkpt>
      <trkpt lat="42.74894" lon="1.46046">
        <ele>1147.47</ele>
        <time>2020-10-03T13:23:34Z</time>
      </trkpt>
      <trkpt lat="42.74898" lon="1.46049">
        <ele>1146.99</ele>
        <time>2020-10-03T13:23:38Z</time>
      </trkpt>
      <trkpt lat="42.74902" lon="1.46049">
        <ele>1147.47</ele>
        <time>2020-10-03T13:23:42Z</time>
      </trkpt>
      <trkpt lat="42.74916" lon="1.46044">
        <ele>1146.51</ele>
        <time>2020-10-03T13:23:54Z</time>
      </trkpt>
      <trkpt lat="42.74921" lon="1.46042">
        <ele>1145.07</ele>
        <time>2020-10-03T13:23:59Z</time>
      </trkpt>
      <trkpt lat="42.74923" lon="1.46042">
        <ele>1146.99</ele>
        <time>2020-10-03T13:24:01Z</time>
      </trkpt>
      <trkpt lat="42.7494" lon="1.46041">
        <ele>1146.99</ele>
        <time>2020-10-03T13:24:16Z</time>
      </trkpt>
      <trkpt lat="42.74945" lon="1.46043">
        <ele>1146.03</ele>
        <time>2020-10-03T13:24:22Z</time>
      </trkpt>
      <trkpt lat="42.74947" lon="1.46045">
        <ele>1147.47</ele>
        <time>2020-10-03T13:24:24Z</time>
      </trkpt>
      <trkpt lat="42.7495" lon="1.46046">
        <ele>1146.03</ele>
        <time>2020-10-03T13:24:27Z</time>
      </trkpt>
      <trkpt lat="42.74951" lon="1.46049">
        <ele>1146.51</ele>
        <time>2020-10-03T13:24:31Z</time>
      </trkpt>
      <trkpt lat="42.74952" lon="1.46067">
        <ele>1146.03</ele>
        <time>2020-10-03T13:24:41Z</time>
      </trkpt>
      <trkpt lat="42.74954" lon="1.46084">
        <ele>1145.55</ele>
        <time>2020-10-03T13:24:50Z</time>
      </trkpt>
      <trkpt lat="42.74955" lon="1.46087">
        <ele>1147.47</ele>
        <time>2020-10-03T13:24:52Z</time>
      </trkpt>
      <trkpt lat="42.74956" lon="1.46089">
        <ele>1146.51</ele>
        <time>2020-10-03T13:24:55Z</time>
      </trkpt>
      <trkpt lat="42.74955" lon="1.46097">
        <ele>1148.43</ele>
        <time>2020-10-03T13:25:03Z</time>
      </trkpt>
      <trkpt lat="42.74953" lon="1.46099">
        <ele>1146.99</ele>
        <time>2020-10-03T13:25:05Z</time>
      </trkpt>
      <trkpt lat="42.7495" lon="1.46106">
        <ele>1147.47</ele>
        <time>2020-10-03T13:25:11Z</time>
      </trkpt>
      <trkpt lat="42.7495" lon="1.46117">
        <ele>1147.47</ele>
        <time>2020-10-03T13:25:17Z</time>
      </trkpt>
      <trkpt lat="42.74951" lon="1.46129">
        <ele>1147.95</ele>
        <time>2020-10-03T13:25:23Z</time>
      </trkpt>
      <trkpt lat="42.74951" lon="1.46132">
        <ele>1146.51</ele>
        <time>2020-10-03T13:25:25Z</time>
      </trkpt>
      <trkpt lat="42.74947" lon="1.46143">
        <ele>1146.03</ele>
        <time>2020-10-03T13:25:33Z</time>
      </trkpt>
      <trkpt lat="42.74946" lon="1.46146">
        <ele>1149.39</ele>
        <time>2020-10-03T13:25:38Z</time>
      </trkpt>
      <trkpt lat="42.74946" lon="1.46147">
        <ele>1145.55</ele>
        <time>2020-10-03T13:25:39Z</time>
      </trkpt>
      <trkpt lat="42.74946" lon="1.46152">
        <ele>1145.55</ele>
        <time>2020-10-03T13:25:46Z</time>
      </trkpt>
      <trkpt lat="42.74946" lon="1.46153">
        <ele>1146.99</ele>
        <time>2020-10-03T13:25:48Z</time>
      </trkpt>
      <trkpt lat="42.74946" lon="1.46153">
        <ele>1145.55</ele>
        <time>2020-10-03T13:25:50Z</time>
      </trkpt>
      <trkpt lat="42.74945" lon="1.46154">
        <ele>1147.47</ele>
        <time>2020-10-03T13:25:52Z</time>
      </trkpt>
      <trkpt lat="42.74945" lon="1.46154">
        <ele>1146.03</ele>
        <time>2020-10-03T13:25:55Z</time>
      </trkpt>
      <trkpt lat="42.74948" lon="1.46152">
        <ele>1146.03</ele>
        <time>2020-10-03T13:26:10Z</time>
      </trkpt>
      <trkpt lat="42.74949" lon="1.46159">
        <ele>1146.03</ele>
        <time>2020-10-03T13:26:16Z</time>
      </trkpt>
      <trkpt lat="42.7495" lon="1.46161">
        <ele>1147.95</ele>
        <time>2020-10-03T13:26:18Z</time>
      </trkpt>
      <trkpt lat="42.74966" lon="1.46174">
        <ele>1146.51</ele>
        <time>2020-10-03T13:26:33Z</time>
      </trkpt>
      <trkpt lat="42.74973" lon="1.46178">
        <ele>1146.51</ele>
        <time>2020-10-03T13:26:39Z</time>
      </trkpt>
      <trkpt lat="42.74982" lon="1.46197">
        <ele>1146.51</ele>
        <time>2020-10-03T13:26:52Z</time>
      </trkpt>
      <trkpt lat="42.74984" lon="1.462">
        <ele>1146.51</ele>
        <time>2020-10-03T13:26:55Z</time>
      </trkpt>
      <trkpt lat="42.74992" lon="1.46205">
        <ele>1145.55</ele>
        <time>2020-10-03T13:27:03Z</time>
      </trkpt>
      <trkpt lat="42.74999" lon="1.46211">
        <ele>1146.99</ele>
        <time>2020-10-03T13:27:09Z</time>
      </trkpt>
      <trkpt lat="42.75003" lon="1.46213">
        <ele>1145.07</ele>
        <time>2020-10-03T13:27:12Z</time>
      </trkpt>
      <trkpt lat="42.75019" lon="1.46214">
        <ele>1145.55</ele>
        <time>2020-10-03T13:27:28Z</time>
      </trkpt>
      <trkpt lat="42.7502" lon="1.46215">
        <ele>1147.47</ele>
        <time>2020-10-03T13:27:30Z</time>
      </trkpt>
      <trkpt lat="42.75022" lon="1.46216">
        <ele>1145.07</ele>
        <time>2020-10-03T13:27:32Z</time>
      </trkpt>
      <trkpt lat="42.75027" lon="1.4622">
        <ele>1146.03</ele>
        <time>2020-10-03T13:27:36Z</time>
      </trkpt>
      <trkpt lat="42.75034" lon="1.46224">
        <ele>1144.11</ele>
        <time>2020-10-03T13:27:41Z</time>
      </trkpt>
      <trkpt lat="42.75035" lon="1.46224">
        <ele>1147.95</ele>
        <time>2020-10-03T13:27:42Z</time>
      </trkpt>
      <trkpt lat="42.75036" lon="1.46225">
        <ele>1146.51</ele>
        <time>2020-10-03T13:27:43Z</time>
      </trkpt>
      <trkpt lat="42.75041" lon="1.46231">
        <ele>1146.99</ele>
        <time>2020-10-03T13:27:49Z</time>
      </trkpt>
      <trkpt lat="42.75044" lon="1.46235">
        <ele>1146.99</ele>
        <time>2020-10-03T13:27:53Z</time>
      </trkpt>
      <trkpt lat="42.75047" lon="1.46239">
        <ele>1145.55</ele>
        <time>2020-10-03T13:27:55Z</time>
      </trkpt>
      <trkpt lat="42.75051" lon="1.46241">
        <ele>1145.55</ele>
        <time>2020-10-03T13:27:58Z</time>
      </trkpt>
      <trkpt lat="42.75067" lon="1.46251">
        <ele>1146.51</ele>
        <time>2020-10-03T13:28:10Z</time>
      </trkpt>
      <trkpt lat="42.75075" lon="1.46256">
        <ele>1146.51</ele>
        <time>2020-10-03T13:28:18Z</time>
      </trkpt>
      <trkpt lat="42.7508" lon="1.46259">
        <ele>1145.07</ele>
        <time>2020-10-03T13:28:22Z</time>
      </trkpt>
      <trkpt lat="42.75087" lon="1.46261">
        <ele>1146.99</ele>
        <time>2020-10-03T13:28:31Z</time>
      </trkpt>
      <trkpt lat="42.75087" lon="1.46263">
        <ele>1145.55</ele>
        <time>2020-10-03T13:28:33Z</time>
      </trkpt>
      <trkpt lat="42.7509" lon="1.46265">
        <ele>1146.99</ele>
        <time>2020-10-03T13:28:42Z</time>
      </trkpt>
      <trkpt lat="42.75091" lon="1.46266">
        <ele>1143.14</ele>
        <time>2020-10-03T13:28:45Z</time>
      </trkpt>
      <trkpt lat="42.75091" lon="1.46266">
        <ele>1143.14</ele>
        <time>2020-10-03T13:28:46Z</time>
      </trkpt>
      <trkpt lat="42.75091" lon="1.46266">
        <ele>1146.99</ele>
        <time>2020-10-03T13:28:47Z</time>
      </trkpt>
      <trkpt lat="42.75091" lon="1.46266">
        <ele>1146.99</ele>
        <time>2020-10-03T13:28:48Z</time>
      </trkpt>
      <trkpt lat="42.75091" lon="1.46265">
        <ele>1146.03</ele>
        <time>2020-10-03T13:28:53Z</time>
      </trkpt>
      <trkpt lat="42.75091" lon="1.46264">
        <ele>1142.18</ele>
        <time>2020-10-03T13:28:57Z</time>
      </trkpt>
      <trkpt lat="42.75091" lon="1.46264">
        <ele>1144.59</ele>
        <time>2020-10-03T13:28:58Z</time>
      </trkpt>
      <trkpt lat="42.7509" lon="1.46265">
        <ele>1146.51</ele>
        <time>2020-10-03T13:29:01Z</time>
      </trkpt>
      <trkpt lat="42.7509" lon="1.46268">
        <ele>1143.63</ele>
        <time>2020-10-03T13:29:22Z</time>
      </trkpt>
      <trkpt lat="42.75094" lon="1.46273">
        <ele>1144.59</ele>
        <time>2020-10-03T13:29:28Z</time>
      </trkpt>
      <trkpt lat="42.75095" lon="1.46272">
        <ele>1146.51</ele>
        <time>2020-10-03T13:29:32Z</time>
      </trkpt>
      <trkpt lat="42.751" lon="1.46277">
        <ele>1145.55</ele>
        <time>2020-10-03T13:29:37Z</time>
      </trkpt>
      <trkpt lat="42.75101" lon="1.46278">
        <ele>1145.55</ele>
        <time>2020-10-03T13:29:39Z</time>
      </trkpt>
      <trkpt lat="42.75102" lon="1.46281">
        <ele>1146.99</ele>
        <time>2020-10-03T13:29:41Z</time>
      </trkpt>
      <trkpt lat="42.75103" lon="1.46284">
        <ele>1145.55</ele>
        <time>2020-10-03T13:29:44Z</time>
      </trkpt>
      <trkpt lat="42.75104" lon="1.46286">
        <ele>1145.55</ele>
        <time>2020-10-03T13:29:46Z</time>
      </trkpt>
      <trkpt lat="42.75105" lon="1.46288">
        <ele>1145.55</ele>
        <time>2020-10-03T13:29:48Z</time>
      </trkpt>
      <trkpt lat="42.75107" lon="1.46296">
        <ele>1146.03</ele>
        <time>2020-10-03T13:29:56Z</time>
      </trkpt>
      <trkpt lat="42.75106" lon="1.46314">
        <ele>1146.03</ele>
        <time>2020-10-03T13:30:08Z</time>
      </trkpt>
      <trkpt lat="42.75105" lon="1.46318">
        <ele>1146.51</ele>
        <time>2020-10-03T13:30:12Z</time>
      </trkpt>
      <trkpt lat="42.75105" lon="1.46323">
        <ele>1145.07</ele>
        <time>2020-10-03T13:30:15Z</time>
      </trkpt>
      <trkpt lat="42.75104" lon="1.46326">
        <ele>1147.47</ele>
        <time>2020-10-03T13:30:17Z</time>
      </trkpt>
      <trkpt lat="42.75104" lon="1.4633">
        <ele>1146.03</ele>
        <time>2020-10-03T13:30:19Z</time>
      </trkpt>
      <trkpt lat="42.75102" lon="1.46338">
        <ele>1145.55</ele>
        <time>2020-10-03T13:30:24Z</time>
      </trkpt>
      <trkpt lat="42.75098" lon="1.46365">
        <ele>1145.55</ele>
        <time>2020-10-03T13:30:40Z</time>
      </trkpt>
      <trkpt lat="42.75098" lon="1.46368">
        <ele>1145.55</ele>
        <time>2020-10-03T13:30:42Z</time>
      </trkpt>
      <trkpt lat="42.75098" lon="1.46373">
        <ele>1144.11</ele>
        <time>2020-10-03T13:30:46Z</time>
      </trkpt>
      <trkpt lat="42.75099" lon="1.46372">
        <ele>1147.95</ele>
        <time>2020-10-03T13:30:48Z</time>
      </trkpt>
      <trkpt lat="42.75099" lon="1.46371">
        <ele>1146.03</ele>
        <time>2020-10-03T13:30:49Z</time>
      </trkpt>
      <trkpt lat="42.75095" lon="1.46372">
        <ele>1140.74</ele>
        <time>2020-10-03T13:30:53Z</time>
      </trkpt>
      <trkpt lat="42.75095" lon="1.46372">
        <ele>1144.59</ele>
        <time>2020-10-03T13:30:54Z</time>
      </trkpt>
      <trkpt lat="42.75094" lon="1.46373">
        <ele>1146.51</ele>
        <time>2020-10-03T13:30:56Z</time>
      </trkpt>
      <trkpt lat="42.75093" lon="1.46375">
        <ele>1145.07</ele>
        <time>2020-10-03T13:30:59Z</time>
      </trkpt>
      <trkpt lat="42.75094" lon="1.46378">
        <ele>1146.51</ele>
        <time>2020-10-03T13:31:06Z</time>
      </trkpt>
      <trkpt lat="42.75096" lon="1.46384">
        <ele>1144.59</ele>
        <time>2020-10-03T13:31:10Z</time>
      </trkpt>
      <trkpt lat="42.75097" lon="1.46389">
        <ele>1146.99</ele>
        <time>2020-10-03T13:31:13Z</time>
      </trkpt>
      <trkpt lat="42.75097" lon="1.46392">
        <ele>1145.55</ele>
        <time>2020-10-03T13:31:15Z</time>
      </trkpt>
      <trkpt lat="42.75103" lon="1.46403">
        <ele>1144.59</ele>
        <time>2020-10-03T13:31:24Z</time>
      </trkpt>
      <trkpt lat="42.75113" lon="1.46404">
        <ele>1146.03</ele>
        <time>2020-10-03T13:31:32Z</time>
      </trkpt>
      <trkpt lat="42.7513" lon="1.46404">
        <ele>1145.07</ele>
        <time>2020-10-03T13:31:45Z</time>
      </trkpt>
      <trkpt lat="42.75144" lon="1.4641">
        <ele>1145.07</ele>
        <time>2020-10-03T13:32:00Z</time>
      </trkpt>
      <trkpt lat="42.75159" lon="1.46425">
        <ele>1145.07</ele>
        <time>2020-10-03T13:32:17Z</time>
      </trkpt>
      <trkpt lat="42.75162" lon="1.46428">
        <ele>1145.07</ele>
        <time>2020-10-03T13:32:19Z</time>
      </trkpt>
      <trkpt lat="42.75173" lon="1.4644">
        <ele>1144.59</ele>
        <time>2020-10-03T13:32:33Z</time>
      </trkpt>
      <trkpt lat="42.75173" lon="1.46441">
        <ele>1145.55</ele>
        <time>2020-10-03T13:32:35Z</time>
      </trkpt>
      <trkpt lat="42.75176" lon="1.46447">
        <ele>1145.07</ele>
        <time>2020-10-03T13:32:42Z</time>
      </trkpt>
      <trkpt lat="42.75182" lon="1.46456">
        <ele>1145.07</ele>
        <time>2020-10-03T13:32:49Z</time>
      </trkpt>
      <trkpt lat="42.75196" lon="1.4647">
        <ele>1145.55</ele>
        <time>2020-10-03T13:33:04Z</time>
      </trkpt>
      <trkpt lat="42.75199" lon="1.46473">
        <ele>1145.55</ele>
        <time>2020-10-03T13:33:07Z</time>
      </trkpt>
      <trkpt lat="42.75213" lon="1.46491">
        <ele>1146.51</ele>
        <time>2020-10-03T13:33:23Z</time>
      </trkpt>
      <trkpt lat="42.75215" lon="1.46491">
        <ele>1145.07</ele>
        <time>2020-10-03T13:33:25Z</time>
      </trkpt>
      <trkpt lat="42.75227" lon="1.46494">
        <ele>1146.03</ele>
        <time>2020-10-03T13:33:36Z</time>
      </trkpt>
      <trkpt lat="42.75228" lon="1.46497">
        <ele>1146.03</ele>
        <time>2020-10-03T13:33:38Z</time>
      </trkpt>
      <trkpt lat="42.75231" lon="1.46501">
        <ele>1146.03</ele>
        <time>2020-10-03T13:33:42Z</time>
      </trkpt>
      <trkpt lat="42.75245" lon="1.46518">
        <ele>1145.07</ele>
        <time>2020-10-03T13:33:57Z</time>
      </trkpt>
      <trkpt lat="42.75258" lon="1.46531">
        <ele>1146.03</ele>
        <time>2020-10-03T13:34:12Z</time>
      </trkpt>
      <trkpt lat="42.75262" lon="1.46533">
        <ele>1144.11</ele>
        <time>2020-10-03T13:34:16Z</time>
      </trkpt>
      <trkpt lat="42.75273" lon="1.46538">
        <ele>1146.51</ele>
        <time>2020-10-03T13:34:25Z</time>
      </trkpt>
      <trkpt lat="42.75275" lon="1.46542">
        <ele>1145.07</ele>
        <time>2020-10-03T13:34:28Z</time>
      </trkpt>
      <trkpt lat="42.75281" lon="1.46549">
        <ele>1146.03</ele>
        <time>2020-10-03T13:34:35Z</time>
      </trkpt>
      <trkpt lat="42.75282" lon="1.4655">
        <ele>1142.66</ele>
        <time>2020-10-03T13:34:36Z</time>
      </trkpt>
      <trkpt lat="42.75284" lon="1.46553">
        <ele>1146.03</ele>
        <time>2020-10-03T13:34:38Z</time>
      </trkpt>
      <trkpt lat="42.75296" lon="1.46568">
        <ele>1145.55</ele>
        <time>2020-10-03T13:34:53Z</time>
      </trkpt>
      <trkpt lat="42.75303" lon="1.46578">
        <ele>1144.59</ele>
        <time>2020-10-03T13:35:03Z</time>
      </trkpt>
      <trkpt lat="42.75319" lon="1.46595">
        <ele>1144.59</ele>
        <time>2020-10-03T13:35:18Z</time>
      </trkpt>
      <trkpt lat="42.75323" lon="1.466">
        <ele>1146.51</ele>
        <time>2020-10-03T13:35:23Z</time>
      </trkpt>
      <trkpt lat="42.75325" lon="1.46601">
        <ele>1144.59</ele>
        <time>2020-10-03T13:35:25Z</time>
      </trkpt>
      <trkpt lat="42.75334" lon="1.46611">
        <ele>1145.07</ele>
        <time>2020-10-03T13:35:34Z</time>
      </trkpt>
      <trkpt lat="42.75346" lon="1.4662">
        <ele>1145.55</ele>
        <time>2020-10-03T13:35:45Z</time>
      </trkpt>
      <trkpt lat="42.75348" lon="1.46622">
        <ele>1144.11</ele>
        <time>2020-10-03T13:35:47Z</time>
      </trkpt>
      <trkpt lat="42.75364" lon="1.46636">
        <ele>1145.55</ele>
        <time>2020-10-03T13:36:03Z</time>
      </trkpt>
      <trkpt lat="42.75374" lon="1.46649">
        <ele>1146.51</ele>
        <time>2020-10-03T13:36:12Z</time>
      </trkpt>
      <trkpt lat="42.75377" lon="1.46654">
        <ele>1144.11</ele>
        <time>2020-10-03T13:36:16Z</time>
      </trkpt>
      <trkpt lat="42.75391" lon="1.46666">
        <ele>1146.03</ele>
        <time>2020-10-03T13:36:28Z</time>
      </trkpt>
      <trkpt lat="42.75393" lon="1.46668">
        <ele>1144.11</ele>
        <time>2020-10-03T13:36:30Z</time>
      </trkpt>
      <trkpt lat="42.75396" lon="1.46669">
        <ele>1144.11</ele>
        <time>2020-10-03T13:36:33Z</time>
      </trkpt>
      <trkpt lat="42.75406" lon="1.46679">
        <ele>1145.07</ele>
        <time>2020-10-03T13:36:43Z</time>
      </trkpt>
      <trkpt lat="42.7541" lon="1.46683">
        <ele>1144.11</ele>
        <time>2020-10-03T13:36:47Z</time>
      </trkpt>
      <trkpt lat="42.75412" lon="1.46686">
        <ele>1145.07</ele>
        <time>2020-10-03T13:36:50Z</time>
      </trkpt>
      <trkpt lat="42.75413" lon="1.46687">
        <ele>1145.07</ele>
        <time>2020-10-03T13:36:51Z</time>
      </trkpt>
      <trkpt lat="42.75416" lon="1.46692">
        <ele>1143.63</ele>
        <time>2020-10-03T13:36:54Z</time>
      </trkpt>
      <trkpt lat="42.75418" lon="1.46696">
        <ele>1145.55</ele>
        <time>2020-10-03T13:36:57Z</time>
      </trkpt>
      <trkpt lat="42.7542" lon="1.46698">
        <ele>1143.14</ele>
        <time>2020-10-03T13:36:59Z</time>
      </trkpt>
      <trkpt lat="42.75423" lon="1.46701">
        <ele>1145.07</ele>
        <time>2020-10-03T13:37:02Z</time>
      </trkpt>
      <trkpt lat="42.75428" lon="1.46704">
        <ele>1143.63</ele>
        <time>2020-10-03T13:37:06Z</time>
      </trkpt>
      <trkpt lat="42.7543" lon="1.46705">
        <ele>1145.07</ele>
        <time>2020-10-03T13:37:08Z</time>
      </trkpt>
      <trkpt lat="42.75434" lon="1.46708">
        <ele>1143.63</ele>
        <time>2020-10-03T13:37:12Z</time>
      </trkpt>
      <trkpt lat="42.75436" lon="1.46709">
        <ele>1145.07</ele>
        <time>2020-10-03T13:37:14Z</time>
      </trkpt>
      <trkpt lat="42.75443" lon="1.46713">
        <ele>1143.63</ele>
        <time>2020-10-03T13:37:20Z</time>
      </trkpt>
      <trkpt lat="42.75446" lon="1.46713">
        <ele>1145.07</ele>
        <time>2020-10-03T13:37:22Z</time>
      </trkpt>
      <trkpt lat="42.75449" lon="1.46712">
        <ele>1143.63</ele>
        <time>2020-10-03T13:37:25Z</time>
      </trkpt>
      <trkpt lat="42.75451" lon="1.4671">
        <ele>1145.07</ele>
        <time>2020-10-03T13:37:27Z</time>
      </trkpt>
      <trkpt lat="42.75455" lon="1.46707">
        <ele>1143.63</ele>
        <time>2020-10-03T13:37:31Z</time>
      </trkpt>
      <trkpt lat="42.75457" lon="1.46707">
        <ele>1145.55</ele>
        <time>2020-10-03T13:37:37Z</time>
      </trkpt>
      <trkpt lat="42.75457" lon="1.46706">
        <ele>1143.63</ele>
        <time>2020-10-03T13:37:40Z</time>
      </trkpt>
      <trkpt lat="42.7546" lon="1.46703">
        <ele>1145.55</ele>
        <time>2020-10-03T13:37:48Z</time>
      </trkpt>
      <trkpt lat="42.75466" lon="1.46697">
        <ele>1145.55</ele>
        <time>2020-10-03T13:37:55Z</time>
      </trkpt>
      <trkpt lat="42.75469" lon="1.46695">
        <ele>1143.14</ele>
        <time>2020-10-03T13:37:58Z</time>
      </trkpt>
      <trkpt lat="42.75477" lon="1.46699">
        <ele>1143.63</ele>
        <time>2020-10-03T13:38:08Z</time>
      </trkpt>
      <trkpt lat="42.75481" lon="1.46703">
        <ele>1145.07</ele>
        <time>2020-10-03T13:38:12Z</time>
      </trkpt>
      <trkpt lat="42.75483" lon="1.46705">
        <ele>1143.14</ele>
        <time>2020-10-03T13:38:14Z</time>
      </trkpt>
      <trkpt lat="42.75488" lon="1.46707">
        <ele>1145.55</ele>
        <time>2020-10-03T13:38:18Z</time>
      </trkpt>
      <trkpt lat="42.755" lon="1.46708">
        <ele>1142.66</ele>
        <time>2020-10-03T13:38:28Z</time>
      </trkpt>
      <trkpt lat="42.75519" lon="1.46708">
        <ele>1142.66</ele>
        <time>2020-10-03T13:38:45Z</time>
      </trkpt>
      <trkpt lat="42.75521" lon="1.46708">
        <ele>1144.11</ele>
        <time>2020-10-03T13:38:47Z</time>
      </trkpt>
      <trkpt lat="42.75533" lon="1.46721">
        <ele>1143.14</ele>
        <time>2020-10-03T13:39:02Z</time>
      </trkpt>
      <trkpt lat="42.75534" lon="1.46722">
        <ele>1143.14</ele>
        <time>2020-10-03T13:39:03Z</time>
      </trkpt>
      <trkpt lat="42.75538" lon="1.46726">
        <ele>1143.63</ele>
        <time>2020-10-03T13:39:07Z</time>
      </trkpt>
      <trkpt lat="42.75546" lon="1.46735">
        <ele>1144.59</ele>
        <time>2020-10-03T13:39:15Z</time>
      </trkpt>
      <trkpt lat="42.75549" lon="1.46737">
        <ele>1143.14</ele>
        <time>2020-10-03T13:39:17Z</time>
      </trkpt>
      <trkpt lat="42.75566" lon="1.46746">
        <ele>1143.14</ele>
        <time>2020-10-03T13:39:31Z</time>
      </trkpt>
      <trkpt lat="42.75573" lon="1.46751">
        <ele>1144.59</ele>
        <time>2020-10-03T13:39:37Z</time>
      </trkpt>
      <trkpt lat="42.75574" lon="1.46752">
        <ele>1143.14</ele>
        <time>2020-10-03T13:39:39Z</time>
      </trkpt>
      <trkpt lat="42.7558" lon="1.46756">
        <ele>1143.63</ele>
        <time>2020-10-03T13:39:43Z</time>
      </trkpt>
      <trkpt lat="42.7559" lon="1.46769">
        <ele>1144.11</ele>
        <time>2020-10-03T13:39:56Z</time>
      </trkpt>
      <trkpt lat="42.75593" lon="1.46772">
        <ele>1142.66</ele>
        <time>2020-10-03T13:39:59Z</time>
      </trkpt>
      <trkpt lat="42.75594" lon="1.46774">
        <ele>1142.66</ele>
        <time>2020-10-03T13:40:01Z</time>
      </trkpt>
      <trkpt lat="42.75603" lon="1.46784">
        <ele>1142.66</ele>
        <time>2020-10-03T13:40:10Z</time>
      </trkpt>
      <trkpt lat="42.75612" lon="1.46791">
        <ele>1144.11</ele>
        <time>2020-10-03T13:40:17Z</time>
      </trkpt>
      <trkpt lat="42.7563" lon="1.468">
        <ele>1144.11</ele>
        <time>2020-10-03T13:40:34Z</time>
      </trkpt>
      <trkpt lat="42.75637" lon="1.46804">
        <ele>1141.7</ele>
        <time>2020-10-03T13:40:40Z</time>
      </trkpt>
      <trkpt lat="42.7564" lon="1.46805">
        <ele>1143.14</ele>
        <time>2020-10-03T13:40:42Z</time>
      </trkpt>
      <trkpt lat="42.7565" lon="1.46806">
        <ele>1142.66</ele>
        <time>2020-10-03T13:40:51Z</time>
      </trkpt>
      <trkpt lat="42.75654" lon="1.46804">
        <ele>1144.11</ele>
        <time>2020-10-03T13:40:53Z</time>
      </trkpt>
      <trkpt lat="42.75655" lon="1.46803">
        <ele>1144.11</ele>
        <time>2020-10-03T13:40:54Z</time>
      </trkpt>
      <trkpt lat="42.75657" lon="1.46799">
        <ele>1142.18</ele>
        <time>2020-10-03T13:40:56Z</time>
      </trkpt>
      <trkpt lat="42.75659" lon="1.46794">
        <ele>1143.63</ele>
        <time>2020-10-03T13:40:59Z</time>
      </trkpt>
      <trkpt lat="42.7566" lon="1.46776">
        <ele>1143.63</ele>
        <time>2020-10-03T13:41:12Z</time>
      </trkpt>
      <trkpt lat="42.75661" lon="1.46758">
        <ele>1144.11</ele>
        <time>2020-10-03T13:41:27Z</time>
      </trkpt>
      <trkpt lat="42.75663" lon="1.46757">
        <ele>1144.11</ele>
        <time>2020-10-03T13:41:36Z</time>
      </trkpt>
      <trkpt lat="42.75665" lon="1.46757">
        <ele>1142.66</ele>
        <time>2020-10-03T13:41:39Z</time>
      </trkpt>
      <trkpt lat="42.75672" lon="1.46766">
        <ele>1142.66</ele>
        <time>2020-10-03T13:41:54Z</time>
      </trkpt>
      <trkpt lat="42.75676" lon="1.46767">
        <ele>1142.66</ele>
        <time>2020-10-03T13:42:02Z</time>
      </trkpt>
      <trkpt lat="42.75678" lon="1.46768">
        <ele>1142.66</ele>
        <time>2020-10-03T13:42:04Z</time>
      </trkpt>
      <trkpt lat="42.75686" lon="1.46765">
        <ele>1142.66</ele>
        <time>2020-10-03T13:42:12Z</time>
      </trkpt>
      <trkpt lat="42.75696" lon="1.46766">
        <ele>1142.66</ele>
        <time>2020-10-03T13:42:24Z</time>
      </trkpt>
      <trkpt lat="42.75701" lon="1.46773">
        <ele>1142.66</ele>
        <time>2020-10-03T13:42:30Z</time>
      </trkpt>
      <trkpt lat="42.75711" lon="1.46789">
        <ele>1142.66</ele>
        <time>2020-10-03T13:42:42Z</time>
      </trkpt>
      <trkpt lat="42.75713" lon="1.4679">
        <ele>1144.11</ele>
        <time>2020-10-03T13:42:44Z</time>
      </trkpt>
      <trkpt lat="42.75714" lon="1.46792">
        <ele>1142.18</ele>
        <time>2020-10-03T13:42:46Z</time>
      </trkpt>
      <trkpt lat="42.75715" lon="1.46795">
        <ele>1142.66</ele>
        <time>2020-10-03T13:42:48Z</time>
      </trkpt>
      <trkpt lat="42.7572" lon="1.46803">
        <ele>1144.11</ele>
        <time>2020-10-03T13:42:56Z</time>
      </trkpt>
      <trkpt lat="42.75721" lon="1.46804">
        <ele>1141.22</ele>
        <time>2020-10-03T13:42:58Z</time>
      </trkpt>
      <trkpt lat="42.75721" lon="1.46805">
        <ele>1142.66</ele>
        <time>2020-10-03T13:42:59Z</time>
      </trkpt>
      <trkpt lat="42.75722" lon="1.46807">
        <ele>1146.03</ele>
        <time>2020-10-03T13:43:02Z</time>
      </trkpt>
      <trkpt lat="42.75722" lon="1.46807">
        <ele>1144.11</ele>
        <time>2020-10-03T13:43:05Z</time>
      </trkpt>
      <trkpt lat="42.75722" lon="1.46815">
        <ele>1145.07</ele>
        <time>2020-10-03T13:43:16Z</time>
      </trkpt>
      <trkpt lat="42.75722" lon="1.46819">
        <ele>1145.07</ele>
        <time>2020-10-03T13:43:41Z</time>
      </trkpt>
      <trkpt lat="42.75726" lon="1.46821">
        <ele>1145.07</ele>
        <time>2020-10-03T13:43:53Z</time>
      </trkpt>
      <trkpt lat="42.75731" lon="1.46828">
        <ele>1142.66</ele>
        <time>2020-10-03T13:44:05Z</time>
      </trkpt>
      <trkpt lat="42.75732" lon="1.46829">
        <ele>1142.66</ele>
        <time>2020-10-03T13:44:06Z</time>
      </trkpt>
      <trkpt lat="42.75733" lon="1.46831">
        <ele>1144.59</ele>
        <time>2020-10-03T13:44:08Z</time>
      </trkpt>
      <trkpt lat="42.75739" lon="1.46837">
        <ele>1145.55</ele>
        <time>2020-10-03T13:44:18Z</time>
      </trkpt>
      <trkpt lat="42.7574" lon="1.46839">
        <ele>1144.11</ele>
        <time>2020-10-03T13:44:20Z</time>
      </trkpt>
      <trkpt lat="42.75749" lon="1.46843">
        <ele>1144.11</ele>
        <time>2020-10-03T13:44:36Z</time>
      </trkpt>
      <trkpt lat="42.75751" lon="1.46844">
        <ele>1142.66</ele>
        <time>2020-10-03T13:44:41Z</time>
      </trkpt>
      <trkpt lat="42.75752" lon="1.46849">
        <ele>1139.78</ele>
        <time>2020-10-03T13:44:49Z</time>
      </trkpt>
      <trkpt lat="42.75756" lon="1.46852">
        <ele>1140.74</ele>
        <time>2020-10-03T13:44:59Z</time>
      </trkpt>
      <trkpt lat="42.7576" lon="1.46858">
        <ele>1139.3</ele>
        <time>2020-10-03T13:45:11Z</time>
      </trkpt>
      <trkpt lat="42.7576" lon="1.46859">
        <ele>1140.26</ele>
        <time>2020-10-03T13:45:15Z</time>
      </trkpt>
      <trkpt lat="42.7576" lon="1.46859">
        <ele>1144.11</ele>
        <time>2020-10-03T13:45:27Z</time>
      </trkpt>
      <trkpt lat="42.7576" lon="1.46859">
        <ele>1141.22</ele>
        <time>2020-10-03T13:45:28Z</time>
      </trkpt>
      <trkpt lat="42.7576" lon="1.46859">
        <ele>1135.94</ele>
        <time>2020-10-03T13:45:29Z</time>
      </trkpt>
      <trkpt lat="42.7576" lon="1.46859">
        <ele>1138.34</ele>
        <time>2020-10-03T13:45:30Z</time>
      </trkpt>
      <trkpt lat="42.7576" lon="1.4686">
        <ele>1141.22</ele>
        <time>2020-10-03T13:45:32Z</time>
      </trkpt>
      <trkpt lat="42.7576" lon="1.4686">
        <ele>1141.22</ele>
        <time>2020-10-03T13:45:33Z</time>
      </trkpt>
      <trkpt lat="42.75761" lon="1.46856">
        <ele>1138.34</ele>
        <time>2020-10-03T13:45:41Z</time>
      </trkpt>
      <trkpt lat="42.7576" lon="1.46855">
        <ele>1142.18</ele>
        <time>2020-10-03T13:45:42Z</time>
      </trkpt>
      <trkpt lat="42.75759" lon="1.46855">
        <ele>1138.82</ele>
        <time>2020-10-03T13:45:44Z</time>
      </trkpt>
      <trkpt lat="42.75759" lon="1.46854">
        <ele>1138.82</ele>
        <time>2020-10-03T13:45:45Z</time>
      </trkpt>
      <trkpt lat="42.75759" lon="1.46853">
        <ele>1142.66</ele>
        <time>2020-10-03T13:45:47Z</time>
      </trkpt>
      <trkpt lat="42.75761" lon="1.46852">
        <ele>1139.3</ele>
        <time>2020-10-03T13:45:56Z</time>
      </trkpt>
      <trkpt lat="42.75764" lon="1.46854">
        <ele>1138.34</ele>
        <time>2020-10-03T13:46:14Z</time>
      </trkpt>
      <trkpt lat="42.75769" lon="1.46855">
        <ele>1136.42</ele>
        <time>2020-10-03T13:46:32Z</time>
      </trkpt>
      <trkpt lat="42.75774" lon="1.46858">
        <ele>1133.05</ele>
        <time>2020-10-03T13:46:44Z</time>
      </trkpt>
      <trkpt lat="42.75782" lon="1.46861">
        <ele>1129.69</ele>
        <time>2020-10-03T13:46:56Z</time>
      </trkpt>
      <trkpt lat="42.75785" lon="1.46864">
        <ele>1127.28</ele>
        <time>2020-10-03T13:47:15Z</time>
      </trkpt>
      <trkpt lat="42.7579" lon="1.46866">
        <ele>1123.92</ele>
        <time>2020-10-03T13:47:29Z</time>
      </trkpt>
      <trkpt lat="42.75798" lon="1.46869">
        <ele>1120.55</ele>
        <time>2020-10-03T13:47:42Z</time>
      </trkpt>
      <trkpt lat="42.75801" lon="1.4687">
        <ele>1118.63</ele>
        <time>2020-10-03T13:47:48Z</time>
      </trkpt>
      <trkpt lat="42.75808" lon="1.46873">
        <ele>1115.27</ele>
        <time>2020-10-03T13:48:03Z</time>
      </trkpt>
      <trkpt lat="42.75813" lon="1.46876">
        <ele>1112.86</ele>
        <time>2020-10-03T13:48:16Z</time>
      </trkpt>
      <trkpt lat="42.75816" lon="1.46878">
        <ele>1109.98</ele>
        <time>2020-10-03T13:48:28Z</time>
      </trkpt>
      <trkpt lat="42.7582" lon="1.46879">
        <ele>1108.06</ele>
        <time>2020-10-03T13:48:33Z</time>
      </trkpt>
      <trkpt lat="42.75829" lon="1.4688">
        <ele>1104.69</ele>
        <time>2020-10-03T13:48:47Z</time>
      </trkpt>
      <trkpt lat="42.75828" lon="1.46884">
        <ele>1102.29</ele>
        <time>2020-10-03T13:49:06Z</time>
      </trkpt>
      <trkpt lat="42.75827" lon="1.46888">
        <ele>1098.92</ele>
        <time>2020-10-03T13:49:26Z</time>
      </trkpt>
      <trkpt lat="42.75828" lon="1.46888">
        <ele>1100.85</ele>
        <time>2020-10-03T13:49:28Z</time>
      </trkpt>
      <trkpt lat="42.7583" lon="1.46889">
        <ele>1099.4</ele>
        <time>2020-10-03T13:49:30Z</time>
      </trkpt>
      <trkpt lat="42.75832" lon="1.46891">
        <ele>1097</ele>
        <time>2020-10-03T13:49:35Z</time>
      </trkpt>
      <trkpt lat="42.75838" lon="1.46893">
        <ele>1094.6</ele>
        <time>2020-10-03T13:49:46Z</time>
      </trkpt>
      <trkpt lat="42.75844" lon="1.46891">
        <ele>1092.2</ele>
        <time>2020-10-03T13:49:57Z</time>
      </trkpt>
      <trkpt lat="42.75851" lon="1.46889">
        <ele>1088.83</ele>
        <time>2020-10-03T13:50:12Z</time>
      </trkpt>
      <trkpt lat="42.75852" lon="1.46889">
        <ele>1088.83</ele>
        <time>2020-10-03T13:50:13Z</time>
      </trkpt>
      <trkpt lat="42.75853" lon="1.46889">
        <ele>1089.31</ele>
        <time>2020-10-03T13:50:25Z</time>
      </trkpt>
      <trkpt lat="42.75853" lon="1.4689">
        <ele>1088.35</ele>
        <time>2020-10-03T13:50:28Z</time>
      </trkpt>
      <trkpt lat="42.75858" lon="1.46894">
        <ele>1086.43</ele>
        <time>2020-10-03T13:50:43Z</time>
      </trkpt>
      <trkpt lat="42.75869" lon="1.46898">
        <ele>1084.5</ele>
        <time>2020-10-03T13:50:57Z</time>
      </trkpt>
      <trkpt lat="42.75874" lon="1.46901">
        <ele>1081.14</ele>
        <time>2020-10-03T13:51:07Z</time>
      </trkpt>
      <trkpt lat="42.75877" lon="1.46903">
        <ele>1077.29</ele>
        <time>2020-10-03T13:51:21Z</time>
      </trkpt>
      <trkpt lat="42.75884" lon="1.46908">
        <ele>1073.93</ele>
        <time>2020-10-03T13:51:35Z</time>
      </trkpt>
      <trkpt lat="42.75884" lon="1.4691">
        <ele>1072.97</ele>
        <time>2020-10-03T13:51:37Z</time>
      </trkpt>
      <trkpt lat="42.75887" lon="1.46919">
        <ele>1070.57</ele>
        <time>2020-10-03T13:51:49Z</time>
      </trkpt>
      <trkpt lat="42.75898" lon="1.46925">
        <ele>1068.16</ele>
        <time>2020-10-03T13:52:04Z</time>
      </trkpt>
      <trkpt lat="42.75904" lon="1.4693">
        <ele>1065.76</ele>
        <time>2020-10-03T13:52:18Z</time>
      </trkpt>
      <trkpt lat="42.75909" lon="1.46935">
        <ele>1063.36</ele>
        <time>2020-10-03T13:52:33Z</time>
      </trkpt>
      <trkpt lat="42.75912" lon="1.46941">
        <ele>1062.87</ele>
        <time>2020-10-03T13:52:48Z</time>
      </trkpt>
      <trkpt lat="42.75915" lon="1.46942">
        <ele>1059.99</ele>
        <time>2020-10-03T13:53:03Z</time>
      </trkpt>
      <trkpt lat="42.7592" lon="1.46947">
        <ele>1056.15</ele>
        <time>2020-10-03T13:53:15Z</time>
      </trkpt>
      <trkpt lat="42.75922" lon="1.46953">
        <ele>1053.26</ele>
        <time>2020-10-03T13:53:30Z</time>
      </trkpt>
      <trkpt lat="42.75921" lon="1.4696">
        <ele>1050.86</ele>
        <time>2020-10-03T13:53:42Z</time>
      </trkpt>
      <trkpt lat="42.75921" lon="1.46965">
        <ele>1047.49</ele>
        <time>2020-10-03T13:53:51Z</time>
      </trkpt>
      <trkpt lat="42.75921" lon="1.46976">
        <ele>1046.05</ele>
        <time>2020-10-03T13:54:11Z</time>
      </trkpt>
      <trkpt lat="42.75923" lon="1.46976">
        <ele>1044.61</ele>
        <time>2020-10-03T13:54:34Z</time>
      </trkpt>
      <trkpt lat="42.75923" lon="1.46976">
        <ele>1044.13</ele>
        <time>2020-10-03T13:54:44Z</time>
      </trkpt>
      <trkpt lat="42.75923" lon="1.46977">
        <ele>1045.09</ele>
        <time>2020-10-03T13:54:55Z</time>
      </trkpt>
      <trkpt lat="42.75923" lon="1.46977">
        <ele>1043.17</ele>
        <time>2020-10-03T13:54:58Z</time>
      </trkpt>
      <trkpt lat="42.75925" lon="1.46981">
        <ele>1041.25</ele>
        <time>2020-10-03T13:55:15Z</time>
      </trkpt>
      <trkpt lat="42.75926" lon="1.46985">
        <ele>1037.88</ele>
        <time>2020-10-03T13:55:32Z</time>
      </trkpt>
      <trkpt lat="42.75925" lon="1.46994">
        <ele>1035.96</ele>
        <time>2020-10-03T13:55:47Z</time>
      </trkpt>
      <trkpt lat="42.75927" lon="1.46995">
        <ele>1035</ele>
        <time>2020-10-03T13:56:01Z</time>
      </trkpt>
      <trkpt lat="42.75929" lon="1.46992">
        <ele>1035.48</ele>
        <time>2020-10-03T13:56:19Z</time>
      </trkpt>
      <trkpt lat="42.75929" lon="1.46992">
        <ele>1035.48</ele>
        <time>2020-10-03T13:56:20Z</time>
      </trkpt>
      <trkpt lat="42.7593" lon="1.46991">
        <ele>1032.59</ele>
        <time>2020-10-03T13:56:25Z</time>
      </trkpt>
      <trkpt lat="42.7593" lon="1.46991">
        <ele>1036.44</ele>
        <time>2020-10-03T13:56:26Z</time>
      </trkpt>
      <trkpt lat="42.75929" lon="1.46991">
        <ele>1032.59</ele>
        <time>2020-10-03T13:56:35Z</time>
      </trkpt>
      <trkpt lat="42.7593" lon="1.46991">
        <ele>1032.59</ele>
        <time>2020-10-03T13:56:36Z</time>
      </trkpt>
      <trkpt lat="42.75929" lon="1.46991">
        <ele>1035</ele>
        <time>2020-10-03T13:56:39Z</time>
      </trkpt>
      <trkpt lat="42.75933" lon="1.46986">
        <ele>1034.52</ele>
        <time>2020-10-03T13:57:01Z</time>
      </trkpt>
      <trkpt lat="42.75931" lon="1.46989">
        <ele>1033.07</ele>
        <time>2020-10-03T13:57:10Z</time>
      </trkpt>
      <trkpt lat="42.75926" lon="1.46992">
        <ele>1033.07</ele>
        <time>2020-10-03T13:57:29Z</time>
      </trkpt>
      <trkpt lat="42.75928" lon="1.46992">
        <ele>1032.59</ele>
        <time>2020-10-03T13:57:44Z</time>
      </trkpt>
      <trkpt lat="42.75929" lon="1.46992">
        <ele>1033.07</ele>
        <time>2020-10-03T13:57:49Z</time>
      </trkpt>
      <trkpt lat="42.7593" lon="1.46995">
        <ele>1031.15</ele>
        <time>2020-10-03T13:58:07Z</time>
      </trkpt>
      <trkpt lat="42.75931" lon="1.47002">
        <ele>1027.79</ele>
        <time>2020-10-03T13:58:23Z</time>
      </trkpt>
      <trkpt lat="42.75932" lon="1.47012">
        <ele>1027.31</ele>
        <time>2020-10-03T13:58:44Z</time>
      </trkpt>
      <trkpt lat="42.75936" lon="1.47018">
        <ele>1026.34</ele>
        <time>2020-10-03T13:59:03Z</time>
      </trkpt>
      <trkpt lat="42.75935" lon="1.47019">
        <ele>1024.9</ele>
        <time>2020-10-03T13:59:07Z</time>
      </trkpt>
      <trkpt lat="42.75936" lon="1.4702">
        <ele>1023.94</ele>
        <time>2020-10-03T13:59:19Z</time>
      </trkpt>
      <trkpt lat="42.75936" lon="1.47024">
        <ele>1021.06</ele>
        <time>2020-10-03T13:59:29Z</time>
      </trkpt>
      <trkpt lat="42.75936" lon="1.47031">
        <ele>1018.17</ele>
        <time>2020-10-03T13:59:44Z</time>
      </trkpt>
      <trkpt lat="42.75938" lon="1.47036">
        <ele>1016.25</ele>
        <time>2020-10-03T13:59:51Z</time>
      </trkpt>
      <trkpt lat="42.75938" lon="1.47037">
        <ele>1012.89</ele>
        <time>2020-10-03T14:00:04Z</time>
      </trkpt>
      <trkpt lat="42.75943" lon="1.47042">
        <ele>1010.48</ele>
        <time>2020-10-03T14:00:19Z</time>
      </trkpt>
      <trkpt lat="42.75948" lon="1.47048">
        <ele>1010.48</ele>
        <time>2020-10-03T14:00:42Z</time>
      </trkpt>
      <trkpt lat="42.75948" lon="1.47049">
        <ele>1009.04</ele>
        <time>2020-10-03T14:00:56Z</time>
      </trkpt>
      <trkpt lat="42.75952" lon="1.47051">
        <ele>1008.08</ele>
        <time>2020-10-03T14:01:10Z</time>
      </trkpt>
      <trkpt lat="42.75954" lon="1.47055">
        <ele>1007.12</ele>
        <time>2020-10-03T14:01:28Z</time>
      </trkpt>
      <trkpt lat="42.75952" lon="1.47056">
        <ele>1003.27</ele>
        <time>2020-10-03T14:01:41Z</time>
      </trkpt>
      <trkpt lat="42.7595" lon="1.47058">
        <ele>1002.79</ele>
        <time>2020-10-03T14:01:46Z</time>
      </trkpt>
      <trkpt lat="42.75948" lon="1.47063">
        <ele>1000.87</ele>
        <time>2020-10-03T14:01:54Z</time>
      </trkpt>
      <trkpt lat="42.75948" lon="1.47062">
        <ele>1001.83</ele>
        <time>2020-10-03T14:02:19Z</time>
      </trkpt>
      <trkpt lat="42.75948" lon="1.47062">
        <ele>1000.39</ele>
        <time>2020-10-03T14:02:25Z</time>
      </trkpt>
      <trkpt lat="42.75944" lon="1.47064">
        <ele>1000.87</ele>
        <time>2020-10-03T14:02:45Z</time>
      </trkpt>
      <trkpt lat="42.75944" lon="1.47063">
        <ele>1003.75</ele>
        <time>2020-10-03T14:02:52Z</time>
      </trkpt>
      <trkpt lat="42.75935" lon="1.47057">
        <ele>1003.75</ele>
        <time>2020-10-03T14:03:06Z</time>
      </trkpt>
      <trkpt lat="42.75923" lon="1.47057">
        <ele>1004.23</ele>
        <time>2020-10-03T14:03:19Z</time>
      </trkpt>
      <trkpt lat="42.75915" lon="1.47058">
        <ele>1001.35</ele>
        <time>2020-10-03T14:03:38Z</time>
      </trkpt>
      <trkpt lat="42.75912" lon="1.47064">
        <ele>998.47</ele>
        <time>2020-10-03T14:03:55Z</time>
      </trkpt>
      <trkpt lat="42.75911" lon="1.47071">
        <ele>995.1</ele>
        <time>2020-10-03T14:04:06Z</time>
      </trkpt>
      <trkpt lat="42.75909" lon="1.47073">
        <ele>994.62</ele>
        <time>2020-10-03T14:04:10Z</time>
      </trkpt>
      <trkpt lat="42.75909" lon="1.47077">
        <ele>992.22</ele>
        <time>2020-10-03T14:04:13Z</time>
      </trkpt>
      <trkpt lat="42.75911" lon="1.47076">
        <ele>993.18</ele>
        <time>2020-10-03T14:04:30Z</time>
      </trkpt>
      <trkpt lat="42.75912" lon="1.47077">
        <ele>992.22</ele>
        <time>2020-10-03T14:04:42Z</time>
      </trkpt>
      <trkpt lat="42.75912" lon="1.47075">
        <ele>988.37</ele>
        <time>2020-10-03T14:04:47Z</time>
      </trkpt>
      <trkpt lat="42.75912" lon="1.47075">
        <ele>995.58</ele>
        <time>2020-10-03T14:04:48Z</time>
      </trkpt>
      <trkpt lat="42.7591" lon="1.47072">
        <ele>991.26</ele>
        <time>2020-10-03T14:04:53Z</time>
      </trkpt>
      <trkpt lat="42.75909" lon="1.47069">
        <ele>994.14</ele>
        <time>2020-10-03T14:05:00Z</time>
      </trkpt>
      <trkpt lat="42.75904" lon="1.47064">
        <ele>993.18</ele>
        <time>2020-10-03T14:05:16Z</time>
      </trkpt>
      <trkpt lat="42.75896" lon="1.47062">
        <ele>992.7</ele>
        <time>2020-10-03T14:05:40Z</time>
      </trkpt>
      <trkpt lat="42.75896" lon="1.47062">
        <ele>992.22</ele>
        <time>2020-10-03T14:06:03Z</time>
      </trkpt>
      <trkpt lat="42.75897" lon="1.47067">
        <ele>990.3</ele>
        <time>2020-10-03T14:06:21Z</time>
      </trkpt>
      <trkpt lat="42.75895" lon="1.4707">
        <ele>988.85</ele>
        <time>2020-10-03T14:06:38Z</time>
      </trkpt>
      <trkpt lat="42.7589" lon="1.47071">
        <ele>988.85</ele>
        <time>2020-10-03T14:06:52Z</time>
      </trkpt>
      <trkpt lat="42.75889" lon="1.4707">
        <ele>990.3</ele>
        <time>2020-10-03T14:06:55Z</time>
      </trkpt>
      <trkpt lat="42.75887" lon="1.47075">
        <ele>988.85</ele>
        <time>2020-10-03T14:07:06Z</time>
      </trkpt>
      <trkpt lat="42.75884" lon="1.47076">
        <ele>987.89</ele>
        <time>2020-10-03T14:07:22Z</time>
      </trkpt>
      <trkpt lat="42.75874" lon="1.47078">
        <ele>984.53</ele>
        <time>2020-10-03T14:07:38Z</time>
      </trkpt>
      <trkpt lat="42.75869" lon="1.47081">
        <ele>986.45</ele>
        <time>2020-10-03T14:07:49Z</time>
      </trkpt>
      <trkpt lat="42.75869" lon="1.47082">
        <ele>985.01</ele>
        <time>2020-10-03T14:07:51Z</time>
      </trkpt>
      <trkpt lat="42.7587" lon="1.47085">
        <ele>984.05</ele>
        <time>2020-10-03T14:08:08Z</time>
      </trkpt>
      <trkpt lat="42.7587" lon="1.47083">
        <ele>985.97</ele>
        <time>2020-10-03T14:08:11Z</time>
      </trkpt>
      <trkpt lat="42.7587" lon="1.47083">
        <ele>984.05</ele>
        <time>2020-10-03T14:08:13Z</time>
      </trkpt>
      <trkpt lat="42.75863" lon="1.47082">
        <ele>982.6</ele>
        <time>2020-10-03T14:08:27Z</time>
      </trkpt>
      <trkpt lat="42.75862" lon="1.47082">
        <ele>982.6</ele>
        <time>2020-10-03T14:08:29Z</time>
      </trkpt>
      <trkpt lat="42.75852" lon="1.4709">
        <ele>979.24</ele>
        <time>2020-10-03T14:08:43Z</time>
      </trkpt>
      <trkpt lat="42.75851" lon="1.4709">
        <ele>979.24</ele>
        <time>2020-10-03T14:08:44Z</time>
      </trkpt>
      <trkpt lat="42.75849" lon="1.47095">
        <ele>978.76</ele>
        <time>2020-10-03T14:08:56Z</time>
      </trkpt>
      <trkpt lat="42.75848" lon="1.47099">
        <ele>977.32</ele>
        <time>2020-10-03T14:09:01Z</time>
      </trkpt>
      <trkpt lat="42.75845" lon="1.47108">
        <ele>975.39</ele>
        <time>2020-10-03T14:09:13Z</time>
      </trkpt>
      <trkpt lat="42.75836" lon="1.47114">
        <ele>973.47</ele>
        <time>2020-10-03T14:09:31Z</time>
      </trkpt>
      <trkpt lat="42.75832" lon="1.4712">
        <ele>971.07</ele>
        <time>2020-10-03T14:09:46Z</time>
      </trkpt>
      <trkpt lat="42.75836" lon="1.4713">
        <ele>968.18</ele>
        <time>2020-10-03T14:10:00Z</time>
      </trkpt>
      <trkpt lat="42.7584" lon="1.47132">
        <ele>964.82</ele>
        <time>2020-10-03T14:10:12Z</time>
      </trkpt>
      <trkpt lat="42.75844" lon="1.47133">
        <ele>960.98</ele>
        <time>2020-10-03T14:10:26Z</time>
      </trkpt>
      <trkpt lat="42.75845" lon="1.47143">
        <ele>957.13</ele>
        <time>2020-10-03T14:10:39Z</time>
      </trkpt>
      <trkpt lat="42.75847" lon="1.47146">
        <ele>954.25</ele>
        <time>2020-10-03T14:10:48Z</time>
      </trkpt>
      <trkpt lat="42.75853" lon="1.47148">
        <ele>950.4</ele>
        <time>2020-10-03T14:11:01Z</time>
      </trkpt>
      <trkpt lat="42.75861" lon="1.47145">
        <ele>949.44</ele>
        <time>2020-10-03T14:11:14Z</time>
      </trkpt>
      <trkpt lat="42.75869" lon="1.47143">
        <ele>947.52</ele>
        <time>2020-10-03T14:11:29Z</time>
      </trkpt>
      <trkpt lat="42.75871" lon="1.47143">
        <ele>947.04</ele>
        <time>2020-10-03T14:11:41Z</time>
      </trkpt>
      <trkpt lat="42.75879" lon="1.47145">
        <ele>945.59</ele>
        <time>2020-10-03T14:11:55Z</time>
      </trkpt>
      <trkpt lat="42.75882" lon="1.47143">
        <ele>944.63</ele>
        <time>2020-10-03T14:12:02Z</time>
      </trkpt>
      <trkpt lat="42.75887" lon="1.47144">
        <ele>941.75</ele>
        <time>2020-10-03T14:12:15Z</time>
      </trkpt>
      <trkpt lat="42.75897" lon="1.47143">
        <ele>939.35</ele>
        <time>2020-10-03T14:12:33Z</time>
      </trkpt>
      <trkpt lat="42.75906" lon="1.47136">
        <ele>936.46</ele>
        <time>2020-10-03T14:12:46Z</time>
      </trkpt>
      <trkpt lat="42.75917" lon="1.47138">
        <ele>935.5</ele>
        <time>2020-10-03T14:13:01Z</time>
      </trkpt>
      <trkpt lat="42.75928" lon="1.47147">
        <ele>934.06</ele>
        <time>2020-10-03T14:13:14Z</time>
      </trkpt>
      <trkpt lat="42.75933" lon="1.47146">
        <ele>932.14</ele>
        <time>2020-10-03T14:13:26Z</time>
      </trkpt>
      <trkpt lat="42.75941" lon="1.47144">
        <ele>928.77</ele>
        <time>2020-10-03T14:13:37Z</time>
      </trkpt>
      <trkpt lat="42.75951" lon="1.47146">
        <ele>927.81</ele>
        <time>2020-10-03T14:13:51Z</time>
      </trkpt>
      <trkpt lat="42.75959" lon="1.47144">
        <ele>925.89</ele>
        <time>2020-10-03T14:14:04Z</time>
      </trkpt>
      <trkpt lat="42.75968" lon="1.47141">
        <ele>924.93</ele>
        <time>2020-10-03T14:14:16Z</time>
      </trkpt>
      <trkpt lat="42.75982" lon="1.47144">
        <ele>924.45</ele>
        <time>2020-10-03T14:14:32Z</time>
      </trkpt>
      <trkpt lat="42.75984" lon="1.47145">
        <ele>923</ele>
        <time>2020-10-03T14:14:34Z</time>
      </trkpt>
      <trkpt lat="42.75988" lon="1.47153">
        <ele>921.56</ele>
        <time>2020-10-03T14:14:49Z</time>
      </trkpt>
      <trkpt lat="42.75989" lon="1.47155">
        <ele>921.08</ele>
        <time>2020-10-03T14:14:51Z</time>
      </trkpt>
      <trkpt lat="42.75997" lon="1.47161">
        <ele>918.68</ele>
        <time>2020-10-03T14:15:04Z</time>
      </trkpt>
      <trkpt lat="42.76005" lon="1.47162">
        <ele>917.72</ele>
        <time>2020-10-03T14:15:17Z</time>
      </trkpt>
      <trkpt lat="42.76012" lon="1.47164">
        <ele>917.24</ele>
        <time>2020-10-03T14:15:24Z</time>
      </trkpt>
      <trkpt lat="42.76017" lon="1.47166">
        <ele>917.24</ele>
        <time>2020-10-03T14:15:27Z</time>
      </trkpt>
      <trkpt lat="42.76024" lon="1.47173">
        <ele>914.83</ele>
        <time>2020-10-03T14:15:44Z</time>
      </trkpt>
      <trkpt lat="42.76035" lon="1.4718">
        <ele>912.91</ele>
        <time>2020-10-03T14:15:57Z</time>
      </trkpt>
      <trkpt lat="42.76037" lon="1.4718">
        <ele>911.47</ele>
        <time>2020-10-03T14:16:01Z</time>
      </trkpt>
      <trkpt lat="42.76045" lon="1.4719">
        <ele>908.58</ele>
        <time>2020-10-03T14:16:16Z</time>
      </trkpt>
      <trkpt lat="42.76051" lon="1.47195">
        <ele>906.18</ele>
        <time>2020-10-03T14:16:33Z</time>
      </trkpt>
      <trkpt lat="42.76056" lon="1.472">
        <ele>903.3</ele>
        <time>2020-10-03T14:16:43Z</time>
      </trkpt>
      <trkpt lat="42.76064" lon="1.4721">
        <ele>901.37</ele>
        <time>2020-10-03T14:16:59Z</time>
      </trkpt>
      <trkpt lat="42.76075" lon="1.47213">
        <ele>899.45</ele>
        <time>2020-10-03T14:17:16Z</time>
      </trkpt>
      <trkpt lat="42.76082" lon="1.47218">
        <ele>896.57</ele>
        <time>2020-10-03T14:17:31Z</time>
      </trkpt>
      <trkpt lat="42.76098" lon="1.47218">
        <ele>897.05</ele>
        <time>2020-10-03T14:17:45Z</time>
      </trkpt>
      <trkpt lat="42.76107" lon="1.47219">
        <ele>896.09</ele>
        <time>2020-10-03T14:17:58Z</time>
      </trkpt>
      <trkpt lat="42.76116" lon="1.47215">
        <ele>894.64</ele>
        <time>2020-10-03T14:18:11Z</time>
      </trkpt>
      <trkpt lat="42.76128" lon="1.4722">
        <ele>893.2</ele>
        <time>2020-10-03T14:18:29Z</time>
      </trkpt>
      <trkpt lat="42.76138" lon="1.47222">
        <ele>890.8</ele>
        <time>2020-10-03T14:18:44Z</time>
      </trkpt>
      <trkpt lat="42.76148" lon="1.47226">
        <ele>888.4</ele>
        <time>2020-10-03T14:18:59Z</time>
      </trkpt>
      <trkpt lat="42.76156" lon="1.47229">
        <ele>885.51</ele>
        <time>2020-10-03T14:19:16Z</time>
      </trkpt>
      <trkpt lat="42.76169" lon="1.47225">
        <ele>883.11</ele>
        <time>2020-10-03T14:19:35Z</time>
      </trkpt>
      <trkpt lat="42.76177" lon="1.47232">
        <ele>881.67</ele>
        <time>2020-10-03T14:19:50Z</time>
      </trkpt>
      <trkpt lat="42.76189" lon="1.47243">
        <ele>880.22</ele>
        <time>2020-10-03T14:20:04Z</time>
      </trkpt>
      <trkpt lat="42.76198" lon="1.47251">
        <ele>877.82</ele>
        <time>2020-10-03T14:20:18Z</time>
      </trkpt>
      <trkpt lat="42.76205" lon="1.47258">
        <ele>875.42</ele>
        <time>2020-10-03T14:20:30Z</time>
      </trkpt>
      <trkpt lat="42.76215" lon="1.47262">
        <ele>873.98</ele>
        <time>2020-10-03T14:20:45Z</time>
      </trkpt>
      <trkpt lat="42.76224" lon="1.47263">
        <ele>871.57</ele>
        <time>2020-10-03T14:21:01Z</time>
      </trkpt>
      <trkpt lat="42.76232" lon="1.47258">
        <ele>869.17</ele>
        <time>2020-10-03T14:21:13Z</time>
      </trkpt>
      <trkpt lat="42.7624" lon="1.47252">
        <ele>869.65</ele>
        <time>2020-10-03T14:21:27Z</time>
      </trkpt>
      <trkpt lat="42.76249" lon="1.47245">
        <ele>871.09</ele>
        <time>2020-10-03T14:21:44Z</time>
      </trkpt>
      <trkpt lat="42.76254" lon="1.47248">
        <ele>871.09</ele>
        <time>2020-10-03T14:22:01Z</time>
      </trkpt>
      <trkpt lat="42.76258" lon="1.47254">
        <ele>868.69</ele>
        <time>2020-10-03T14:22:14Z</time>
      </trkpt>
      <trkpt lat="42.76264" lon="1.47265">
        <ele>868.69</ele>
        <time>2020-10-03T14:22:29Z</time>
      </trkpt>
      <trkpt lat="42.76266" lon="1.47275">
        <ele>867.73</ele>
        <time>2020-10-03T14:22:43Z</time>
      </trkpt>
      <trkpt lat="42.76272" lon="1.47284">
        <ele>866.77</ele>
        <time>2020-10-03T14:22:57Z</time>
      </trkpt>
      <trkpt lat="42.76276" lon="1.47287">
        <ele>864.84</ele>
        <time>2020-10-03T14:23:14Z</time>
      </trkpt>
      <trkpt lat="42.76279" lon="1.4729">
        <ele>864.84</ele>
        <time>2020-10-03T14:23:27Z</time>
      </trkpt>
      <trkpt lat="42.76281" lon="1.4729">
        <ele>864.84</ele>
        <time>2020-10-03T14:23:34Z</time>
      </trkpt>
      <trkpt lat="42.76288" lon="1.47289">
        <ele>862.92</ele>
        <time>2020-10-03T14:23:47Z</time>
      </trkpt>
      <trkpt lat="42.76285" lon="1.47289">
        <ele>861.96</ele>
        <time>2020-10-03T14:24:05Z</time>
      </trkpt>
      <trkpt lat="42.76289" lon="1.47292">
        <ele>861.48</ele>
        <time>2020-10-03T14:24:19Z</time>
      </trkpt>
      <trkpt lat="42.76292" lon="1.47291">
        <ele>861</ele>
        <time>2020-10-03T14:24:36Z</time>
      </trkpt>
      <trkpt lat="42.76296" lon="1.47296">
        <ele>860.52</ele>
        <time>2020-10-03T14:24:48Z</time>
      </trkpt>
      <trkpt lat="42.76299" lon="1.473">
        <ele>860.04</ele>
        <time>2020-10-03T14:25:02Z</time>
      </trkpt>
      <trkpt lat="42.76303" lon="1.47305">
        <ele>859.08</ele>
        <time>2020-10-03T14:25:17Z</time>
      </trkpt>
      <trkpt lat="42.76309" lon="1.47308">
        <ele>857.15</ele>
        <time>2020-10-03T14:25:38Z</time>
      </trkpt>
      <trkpt lat="42.76318" lon="1.47318">
        <ele>855.23</ele>
        <time>2020-10-03T14:25:52Z</time>
      </trkpt>
      <trkpt lat="42.76329" lon="1.47329">
        <ele>852.83</ele>
        <time>2020-10-03T14:26:08Z</time>
      </trkpt>
      <trkpt lat="42.7634" lon="1.47336">
        <ele>851.87</ele>
        <time>2020-10-03T14:26:19Z</time>
      </trkpt>
      <trkpt lat="42.76348" lon="1.47339">
        <ele>848.98</ele>
        <time>2020-10-03T14:26:31Z</time>
      </trkpt>
      <trkpt lat="42.76353" lon="1.47343">
        <ele>847.06</ele>
        <time>2020-10-03T14:26:46Z</time>
      </trkpt>
      <trkpt lat="42.7636" lon="1.47352">
        <ele>844.66</ele>
        <time>2020-10-03T14:26:59Z</time>
      </trkpt>
      <trkpt lat="42.76364" lon="1.47359">
        <ele>842.73</ele>
        <time>2020-10-03T14:27:08Z</time>
      </trkpt>
      <trkpt lat="42.76374" lon="1.4737">
        <ele>840.33</ele>
        <time>2020-10-03T14:27:21Z</time>
      </trkpt>
      <trkpt lat="42.76384" lon="1.4738">
        <ele>838.89</ele>
        <time>2020-10-03T14:27:33Z</time>
      </trkpt>
      <trkpt lat="42.76389" lon="1.47385">
        <ele>838.41</ele>
        <time>2020-10-03T14:27:39Z</time>
      </trkpt>
      <trkpt lat="42.76393" lon="1.47389">
        <ele>837.93</ele>
        <time>2020-10-03T14:27:52Z</time>
      </trkpt>
      <trkpt lat="42.76398" lon="1.47391">
        <ele>837.45</ele>
        <time>2020-10-03T14:28:13Z</time>
      </trkpt>
      <trkpt lat="42.76409" lon="1.47394">
        <ele>836.48</ele>
        <time>2020-10-03T14:28:26Z</time>
      </trkpt>
      <trkpt lat="42.76417" lon="1.47398">
        <ele>834.56</ele>
        <time>2020-10-03T14:28:38Z</time>
      </trkpt>
      <trkpt lat="42.76428" lon="1.47399">
        <ele>831.68</ele>
        <time>2020-10-03T14:28:51Z</time>
      </trkpt>
      <trkpt lat="42.76435" lon="1.47404">
        <ele>829.27</ele>
        <time>2020-10-03T14:29:05Z</time>
      </trkpt>
      <trkpt lat="42.76435" lon="1.47408">
        <ele>827.83</ele>
        <time>2020-10-03T14:29:09Z</time>
      </trkpt>
      <trkpt lat="42.76431" lon="1.47418">
        <ele>824.95</ele>
        <time>2020-10-03T14:29:22Z</time>
      </trkpt>
      <trkpt lat="42.76432" lon="1.47428">
        <ele>823.99</ele>
        <time>2020-10-03T14:29:27Z</time>
      </trkpt>
      <trkpt lat="42.76437" lon="1.47431">
        <ele>823.51</ele>
        <time>2020-10-03T14:29:32Z</time>
      </trkpt>
      <trkpt lat="42.76453" lon="1.47434">
        <ele>823.03</ele>
        <time>2020-10-03T14:29:45Z</time>
      </trkpt>
      <trkpt lat="42.76468" lon="1.47438">
        <ele>822.06</ele>
        <time>2020-10-03T14:29:58Z</time>
      </trkpt>
      <trkpt lat="42.76485" lon="1.47438">
        <ele>821.58</ele>
        <time>2020-10-03T14:30:15Z</time>
      </trkpt>
      <trkpt lat="42.76495" lon="1.47434">
        <ele>820.62</ele>
        <time>2020-10-03T14:30:24Z</time>
      </trkpt>
      <trkpt lat="42.7651" lon="1.47433">
        <ele>818.7</ele>
        <time>2020-10-03T14:30:39Z</time>
      </trkpt>
      <trkpt lat="42.76523" lon="1.47432">
        <ele>816.78</ele>
        <time>2020-10-03T14:30:51Z</time>
      </trkpt>
      <trkpt lat="42.76537" lon="1.47432">
        <ele>815.82</ele>
        <time>2020-10-03T14:31:04Z</time>
      </trkpt>
      <trkpt lat="42.76544" lon="1.47429">
        <ele>815.82</ele>
        <time>2020-10-03T14:31:11Z</time>
      </trkpt>
      <trkpt lat="42.76547" lon="1.47427">
        <ele>815.82</ele>
        <time>2020-10-03T14:31:13Z</time>
      </trkpt>
      <trkpt lat="42.76562" lon="1.47422">
        <ele>814.85</ele>
        <time>2020-10-03T14:31:27Z</time>
      </trkpt>
      <trkpt lat="42.76579" lon="1.47414">
        <ele>812.93</ele>
        <time>2020-10-03T14:31:45Z</time>
      </trkpt>
      <trkpt lat="42.76584" lon="1.47415">
        <ele>812.45</ele>
        <time>2020-10-03T14:31:49Z</time>
      </trkpt>
      <trkpt lat="42.76586" lon="1.47415">
        <ele>812.45</ele>
        <time>2020-10-03T14:31:51Z</time>
      </trkpt>
      <trkpt lat="42.76599" lon="1.47415">
        <ele>811.49</ele>
        <time>2020-10-03T14:32:01Z</time>
      </trkpt>
      <trkpt lat="42.766" lon="1.47416">
        <ele>811.49</ele>
        <time>2020-10-03T14:32:02Z</time>
      </trkpt>
      <trkpt lat="42.76619" lon="1.47412">
        <ele>810.53</ele>
        <time>2020-10-03T14:32:18Z</time>
      </trkpt>
      <trkpt lat="42.76627" lon="1.47418">
        <ele>807.64</ele>
        <time>2020-10-03T14:32:30Z</time>
      </trkpt>
      <trkpt lat="42.7663" lon="1.47423">
        <ele>807.64</ele>
        <time>2020-10-03T14:32:41Z</time>
      </trkpt>
      <trkpt lat="42.7663" lon="1.47424">
        <ele>806.68</ele>
        <time>2020-10-03T14:32:55Z</time>
      </trkpt>
      <trkpt lat="42.76629" lon="1.47432">
        <ele>805.72</ele>
        <time>2020-10-03T14:33:02Z</time>
      </trkpt>
      <trkpt lat="42.7663" lon="1.47448">
        <ele>802.84</ele>
        <time>2020-10-03T14:33:16Z</time>
      </trkpt>
      <trkpt lat="42.76632" lon="1.47455">
        <ele>799.95</ele>
        <time>2020-10-03T14:33:28Z</time>
      </trkpt>
      <trkpt lat="42.76632" lon="1.47464">
        <ele>798.03</ele>
        <time>2020-10-03T14:33:40Z</time>
      </trkpt>
      <trkpt lat="42.76632" lon="1.47478">
        <ele>795.63</ele>
        <time>2020-10-03T14:33:54Z</time>
      </trkpt>
      <trkpt lat="42.76636" lon="1.47491">
        <ele>793.71</ele>
        <time>2020-10-03T14:34:05Z</time>
      </trkpt>
      <trkpt lat="42.76638" lon="1.47502">
        <ele>790.82</ele>
        <time>2020-10-03T14:34:16Z</time>
      </trkpt>
      <trkpt lat="42.76645" lon="1.47519">
        <ele>788.42</ele>
        <time>2020-10-03T14:34:31Z</time>
      </trkpt>
      <trkpt lat="42.76646" lon="1.47521">
        <ele>787.94</ele>
        <time>2020-10-03T14:34:32Z</time>
      </trkpt>
      <trkpt lat="42.76648" lon="1.47535">
        <ele>785.53</ele>
        <time>2020-10-03T14:34:45Z</time>
      </trkpt>
      <trkpt lat="42.76648" lon="1.47546">
        <ele>783.61</ele>
        <time>2020-10-03T14:34:58Z</time>
      </trkpt>
      <trkpt lat="42.76646" lon="1.47558">
        <ele>783.13</ele>
        <time>2020-10-03T14:35:16Z</time>
      </trkpt>
      <trkpt lat="42.76643" lon="1.47559">
        <ele>783.13</ele>
        <time>2020-10-03T14:35:42Z</time>
      </trkpt>
      <trkpt lat="42.76644" lon="1.47563">
        <ele>783.13</ele>
        <time>2020-10-03T14:36:04Z</time>
      </trkpt>
      <trkpt lat="42.76644" lon="1.47561">
        <ele>783.13</ele>
        <time>2020-10-03T14:36:27Z</time>
      </trkpt>
      <trkpt lat="42.76648" lon="1.47574">
        <ele>781.21</ele>
        <time>2020-10-03T14:36:40Z</time>
      </trkpt>
      <trkpt lat="42.7665" lon="1.47585">
        <ele>779.77</ele>
        <time>2020-10-03T14:36:51Z</time>
      </trkpt>
      <trkpt lat="42.76656" lon="1.47597">
        <ele>777.36</ele>
        <time>2020-10-03T14:37:03Z</time>
      </trkpt>
      <trkpt lat="42.76657" lon="1.47598">
        <ele>777.36</ele>
        <time>2020-10-03T14:37:05Z</time>
      </trkpt>
      <trkpt lat="42.76665" lon="1.47602">
        <ele>775.44</ele>
        <time>2020-10-03T14:37:18Z</time>
      </trkpt>
      <trkpt lat="42.76667" lon="1.47607">
        <ele>774.96</ele>
        <time>2020-10-03T14:37:34Z</time>
      </trkpt>
      <trkpt lat="42.76671" lon="1.47616">
        <ele>772.56</ele>
        <time>2020-10-03T14:37:47Z</time>
      </trkpt>
      <trkpt lat="42.76675" lon="1.47616">
        <ele>771.11</ele>
        <time>2020-10-03T14:37:53Z</time>
      </trkpt>
      <trkpt lat="42.76671" lon="1.47633">
        <ele>767.75</ele>
        <time>2020-10-03T14:38:08Z</time>
      </trkpt>
      <trkpt lat="42.76664" lon="1.4764">
        <ele>765.83</ele>
        <time>2020-10-03T14:38:21Z</time>
      </trkpt>
      <trkpt lat="42.76668" lon="1.47645">
        <ele>763.42</ele>
        <time>2020-10-03T14:38:31Z</time>
      </trkpt>
      <trkpt lat="42.76668" lon="1.47668">
        <ele>760.54</ele>
        <time>2020-10-03T14:38:47Z</time>
      </trkpt>
      <trkpt lat="42.76668" lon="1.47681">
        <ele>760.54</ele>
        <time>2020-10-03T14:39:01Z</time>
      </trkpt>
      <trkpt lat="42.76669" lon="1.47698">
        <ele>759.1</ele>
        <time>2020-10-03T14:39:16Z</time>
      </trkpt>
      <trkpt lat="42.76671" lon="1.47711">
        <ele>757.18</ele>
        <time>2020-10-03T14:39:29Z</time>
      </trkpt>
      <trkpt lat="42.76674" lon="1.4772">
        <ele>755.25</ele>
        <time>2020-10-03T14:39:45Z</time>
      </trkpt>
      <trkpt lat="42.76676" lon="1.47718">
        <ele>755.25</ele>
        <time>2020-10-03T14:39:59Z</time>
      </trkpt>
      <trkpt lat="42.76673" lon="1.47723">
        <ele>754.77</ele>
        <time>2020-10-03T14:40:14Z</time>
      </trkpt>
      <trkpt lat="42.7667" lon="1.47724">
        <ele>752.85</ele>
        <time>2020-10-03T14:40:23Z</time>
      </trkpt>
      <trkpt lat="42.76679" lon="1.47732">
        <ele>749.97</ele>
        <time>2020-10-03T14:40:39Z</time>
      </trkpt>
      <trkpt lat="42.76689" lon="1.47738">
        <ele>746.6</ele>
        <time>2020-10-03T14:40:52Z</time>
      </trkpt>
      <trkpt lat="42.76695" lon="1.47742">
        <ele>744.68</ele>
        <time>2020-10-03T14:41:05Z</time>
      </trkpt>
      <trkpt lat="42.76699" lon="1.47751">
        <ele>742.76</ele>
        <time>2020-10-03T14:41:20Z</time>
      </trkpt>
      <trkpt lat="42.76702" lon="1.47762">
        <ele>740.35</ele>
        <time>2020-10-03T14:41:34Z</time>
      </trkpt>
      <trkpt lat="42.76704" lon="1.47767">
        <ele>739.87</ele>
        <time>2020-10-03T14:41:40Z</time>
      </trkpt>
      <trkpt lat="42.76709" lon="1.47782">
        <ele>737.47</ele>
        <time>2020-10-03T14:41:53Z</time>
      </trkpt>
      <trkpt lat="42.76706" lon="1.47789">
        <ele>736.51</ele>
        <time>2020-10-03T14:42:00Z</time>
      </trkpt>
      <trkpt lat="42.76711" lon="1.47801">
        <ele>735.55</ele>
        <time>2020-10-03T14:42:14Z</time>
      </trkpt>
      <trkpt lat="42.76717" lon="1.47795">
        <ele>736.99</ele>
        <time>2020-10-03T14:42:26Z</time>
      </trkpt>
      <trkpt lat="42.76718" lon="1.47796">
        <ele>736.99</ele>
        <time>2020-10-03T14:42:36Z</time>
      </trkpt>
      <trkpt lat="42.76713" lon="1.47815">
        <ele>735.55</ele>
        <time>2020-10-03T14:42:51Z</time>
      </trkpt>
      <trkpt lat="42.76711" lon="1.47825">
        <ele>735.55</ele>
        <time>2020-10-03T14:42:58Z</time>
      </trkpt>
      <trkpt lat="42.76705" lon="1.47844">
        <ele>735.55</ele>
        <time>2020-10-03T14:43:13Z</time>
      </trkpt>
      <trkpt lat="42.76704" lon="1.4786">
        <ele>735.07</ele>
        <time>2020-10-03T14:43:26Z</time>
      </trkpt>
      <trkpt lat="42.76706" lon="1.47881">
        <ele>735.07</ele>
        <time>2020-10-03T14:43:39Z</time>
      </trkpt>
      <trkpt lat="42.76704" lon="1.479">
        <ele>735.07</ele>
        <time>2020-10-03T14:43:53Z</time>
      </trkpt>
      <trkpt lat="42.76704" lon="1.47902">
        <ele>735.07</ele>
        <time>2020-10-03T14:43:54Z</time>
      </trkpt>
      <trkpt lat="42.76704" lon="1.47915">
        <ele>736.51</ele>
        <time>2020-10-03T14:44:04Z</time>
      </trkpt>
      <trkpt lat="42.76704" lon="1.47923">
        <ele>736.51</ele>
        <time>2020-10-03T14:44:09Z</time>
      </trkpt>
      <trkpt lat="42.76707" lon="1.47945">
        <ele>736.51</ele>
        <time>2020-10-03T14:44:24Z</time>
      </trkpt>
      <trkpt lat="42.76711" lon="1.47955">
        <ele>736.51</ele>
        <time>2020-10-03T14:44:37Z</time>
      </trkpt>
      <trkpt lat="42.76711" lon="1.47958">
        <ele>736.51</ele>
        <time>2020-10-03T14:44:58Z</time>
      </trkpt>
      <trkpt lat="42.76715" lon="1.47963">
        <ele>736.51</ele>
        <time>2020-10-03T14:45:25Z</time>
      </trkpt>
      <trkpt lat="42.76712" lon="1.47967">
        <ele>736.51</ele>
        <time>2020-10-03T14:45:41Z</time>
      </trkpt>
      <trkpt lat="42.76714" lon="1.47974">
        <ele>736.51</ele>
        <time>2020-10-03T14:45:55Z</time>
      </trkpt>
      <trkpt lat="42.76717" lon="1.4799">
        <ele>736.51</ele>
        <time>2020-10-03T14:46:11Z</time>
      </trkpt>
      <trkpt lat="42.76721" lon="1.48004">
        <ele>736.51</ele>
        <time>2020-10-03T14:46:24Z</time>
      </trkpt>
      <trkpt lat="42.76724" lon="1.48007">
        <ele>736.51</ele>
        <time>2020-10-03T14:46:41Z</time>
      </trkpt>
      <trkpt lat="42.76724" lon="1.48007">
        <ele>736.51</ele>
        <time>2020-10-03T14:46:56Z</time>
      </trkpt>
      <trkpt lat="42.76725" lon="1.4801">
        <ele>736.51</ele>
        <time>2020-10-03T14:47:10Z</time>
      </trkpt>
      <trkpt lat="42.76725" lon="1.48011">
        <ele>736.51</ele>
        <time>2020-10-03T14:47:28Z</time>
      </trkpt>
      <trkpt lat="42.76731" lon="1.4801">
        <ele>736.51</ele>
        <time>2020-10-03T14:47:48Z</time>
      </trkpt>
      <trkpt lat="42.76733" lon="1.48008">
        <ele>736.51</ele>
        <time>2020-10-03T14:48:11Z</time>
      </trkpt>
      <trkpt lat="42.76724" lon="1.48011">
        <ele>736.51</ele>
        <time>2020-10-03T14:48:29Z</time>
      </trkpt>
      <trkpt lat="42.76724" lon="1.4801">
        <ele>735.07</ele>
        <time>2020-10-03T14:48:35Z</time>
      </trkpt>
      <trkpt lat="42.76727" lon="1.48005">
        <ele>735.55</ele>
        <time>2020-10-03T14:49:10Z</time>
      </trkpt>
    </trkseg>
  </trk>
</gpx>